weatherino

Wetterdaten aus der Harmsstraße 54 in 24114 Kiel (4. OG, außen), die per BME280 und einem ESP-32 erhoben werden.

Unter https://wetter.janbpunkt.de/weather.xml steht eine entsprechende XML bereit, die das jüngste Messergebnis enthält.

Da der weatherino ab und zu ausfällt/gewartet wird, können Messpunkte fehlen.

Keine Garantie auf Korrektheit der Werte. Keine Haftung für direkte oder indirekte Schäden, die aus der Verwendung der Daten resultieren. Die Daten der Website werden per SSL verschlüsselt übertragen, es werden keine Cookies gesetzt und keine IP-Adressen geloggt. Weiterhin findet keine Verarbeitung von personenbezogenen Daten statt.

Mehr zu dem Projekt findet man hier.

Impressum
Letzte Messung
Zeitpunkt Temperatur Luftfeuchte Luftdruck
2021-11-26 23:50:06 5.19 ℃ 100 % 989.71 hPa

Zeitpunkt Temperatur Luftfeuchte Luftdruck
2021-11-26 23:50:06 5.19 ℃ 100 % 989.71 hPa
2021-11-26 23:40:06 5.23 ℃ 100 % 989.74 hPa
2021-11-26 23:30:06 5.15 ℃ 100 % 989.79 hPa
2021-11-26 23:20:06 5.13 ℃ 100 % 989.87 hPa
2021-11-26 23:10:06 5.23 ℃ 100 % 989.92 hPa
2021-11-26 23:00:06 5.28 ℃ 100 % 990 hPa
2021-11-26 22:50:06 5.32 ℃ 100 % 990.09 hPa
2021-11-26 22:40:06 5.27 ℃ 100 % 990.15 hPa
2021-11-26 22:30:06 5.21 ℃ 100 % 990.2 hPa
2021-11-26 22:20:06 5.27 ℃ 100 % 990.25 hPa
2021-11-26 22:10:06 5.38 ℃ 100 % 990.28 hPa
2021-11-26 22:00:07 5.59 ℃ 100 % 990.3 hPa
2021-11-26 21:50:06 5.69 ℃ 100 % 990.34 hPa
2021-11-26 21:40:07 5.61 ℃ 100 % 990.37 hPa
2021-11-26 21:30:06 5.47 ℃ 100 % 990.42 hPa
2021-11-26 21:20:06 5.48 ℃ 100 % 990.48 hPa
2021-11-26 21:10:06 5.68 ℃ 100 % 990.5 hPa
2021-11-26 21:00:06 5.64 ℃ 100 % 990.52 hPa
2021-11-26 20:50:06 5.68 ℃ 100 % 990.52 hPa
2021-11-26 20:40:06 5.78 ℃ 100 % 990.51 hPa
2021-11-26 20:30:06 5.87 ℃ 100 % 990.56 hPa
2021-11-26 20:20:06 5.88 ℃ 100 % 990.54 hPa
2021-11-26 20:10:06 5.85 ℃ 100 % 990.54 hPa
2021-11-26 20:00:06 5.98 ℃ 100 % 990.54 hPa
2021-11-26 19:50:06 6.06 ℃ 100 % 990.55 hPa
2021-11-26 19:40:06 6.11 ℃ 100 % 990.6 hPa
2021-11-26 19:30:06 5.97 ℃ 100 % 990.64 hPa
2021-11-26 19:20:06 5.88 ℃ 100 % 990.69 hPa
2021-11-26 19:10:06 5.87 ℃ 100 % 990.68 hPa
2021-11-26 19:00:06 6.09 ℃ 100 % 990.73 hPa
2021-11-26 18:50:06 6.08 ℃ 100 % 990.77 hPa
2021-11-26 18:40:06 6.21 ℃ 100 % 990.8 hPa
2021-11-26 18:30:06 6.24 ℃ 100 % 990.86 hPa
2021-11-26 18:20:06 6.37 ℃ 100 % 990.92 hPa
2021-11-26 18:10:06 6.4 ℃ 100 % 990.97 hPa
2021-11-26 18:00:06 6.41 ℃ 100 % 991.03 hPa
2021-11-26 17:50:06 6.51 ℃ 100 % 991.11 hPa
2021-11-26 17:40:06 6.62 ℃ 100 % 991.17 hPa
2021-11-26 17:30:06 6.68 ℃ 100 % 991.22 hPa
2021-11-26 17:20:06 6.6 ℃ 100 % 991.23 hPa
2021-11-26 17:10:06 6.62 ℃ 100 % 991.28 hPa
2021-11-26 17:00:06 6.62 ℃ 100 % 991.38 hPa
2021-11-26 16:50:06 6.72 ℃ 100 % 991.48 hPa
2021-11-26 16:40:06 6.82 ℃ 100 % 991.53 hPa
2021-11-26 16:30:06 6.9 ℃ 100 % 991.57 hPa
2021-11-26 16:20:06 7.01 ℃ 100 % 991.59 hPa
2021-11-26 16:10:06 7.05 ℃ 100 % 991.67 hPa
2021-11-26 16:00:06 7.08 ℃ 100 % 991.76 hPa
2021-11-26 15:50:07 7.02 ℃ 100 % 991.84 hPa
2021-11-26 15:40:07 6.96 ℃ 100 % 991.95 hPa
2021-11-26 15:30:07 7.18 ℃ 100 % 992.08 hPa
2021-11-26 15:20:07 7.29 ℃ 100 % 992.24 hPa
2021-11-26 15:10:07 7.26 ℃ 100 % 992.38 hPa
2021-11-26 15:00:07 7.34 ℃ 100 % 992.5 hPa
2021-11-26 14:50:07 7.41 ℃ 100 % 992.59 hPa
2021-11-26 14:40:07 7.49 ℃ 100 % 992.74 hPa
2021-11-26 14:30:07 7.35 ℃ 100 % 992.91 hPa
2021-11-26 14:20:07 7.51 ℃ 100 % 993.07 hPa
2021-11-26 14:10:07 7.56 ℃ 100 % 993.3 hPa
2021-11-26 14:00:07 7.52 ℃ 100 % 993.55 hPa
2021-11-26 13:50:07 7.37 ℃ 100 % 993.71 hPa
2021-11-26 13:40:07 7.28 ℃ 100 % 993.87 hPa
2021-11-26 13:30:07 7.48 ℃ 100 % 994.05 hPa
2021-11-26 13:20:07 7.7 ℃ 100 % 994.18 hPa
2021-11-26 13:10:07 7.75 ℃ 100 % 994.33 hPa
2021-11-26 13:00:07 7.61 ℃ 100 % 994.5 hPa
2021-11-26 12:50:07 7.54 ℃ 100 % 994.64 hPa
2021-11-26 12:40:07 7.36 ℃ 100 % 994.8 hPa
2021-11-26 12:30:07 7.24 ℃ 100 % 994.92 hPa
2021-11-26 12:20:07 6.95 ℃ 100 % 995.1 hPa
2021-11-26 12:10:07 6.8 ℃ 100 % 995.24 hPa
2021-11-26 12:00:07 7 ℃ 100 % 995.41 hPa
2021-11-26 11:50:07 6.95 ℃ 100 % 995.6 hPa
2021-11-26 11:40:07 6.98 ℃ 100 % 995.75 hPa
2021-11-26 11:30:07 7.15 ℃ 100 % 995.94 hPa
2021-11-26 11:20:07 7.04 ℃ 100 % 996.13 hPa
2021-11-26 11:10:07 7.04 ℃ 100 % 996.33 hPa
2021-11-26 11:00:07 6.9 ℃ 100 % 996.51 hPa
2021-11-26 10:50:07 7.06 ℃ 100 % 996.63 hPa
2021-11-26 10:40:07 6.97 ℃ 100 % 996.7 hPa
2021-11-26 10:30:07 6.96 ℃ 100 % 996.76 hPa
2021-11-26 10:20:07 6.87 ℃ 100 % 996.89 hPa
2021-11-26 10:10:07 7.09 ℃ 100 % 997.07 hPa
2021-11-26 10:00:07 7 ℃ 100 % 997.21 hPa
2021-11-26 09:50:07 6.81 ℃ 100 % 997.32 hPa
2021-11-26 09:40:07 6.69 ℃ 100 % 997.36 hPa
2021-11-26 09:30:07 6.73 ℃ 100 % 997.41 hPa
2021-11-26 09:20:07 6.81 ℃ 100 % 997.45 hPa
2021-11-26 09:10:07 6.61 ℃ 100 % 997.5 hPa
2021-11-26 09:00:07 6.89 ℃ 100 % 997.58 hPa
2021-11-26 08:50:07 6.58 ℃ 100 % 997.65 hPa
2021-11-26 08:40:08 6.36 ℃ 100 % 997.77 hPa
2021-11-26 08:30:07 6.43 ℃ 100 % 997.9 hPa
2021-11-26 08:20:07 6.35 ℃ 100 % 997.98 hPa
2021-11-26 08:10:07 6.24 ℃ 100 % 998.05 hPa
2021-11-26 08:00:07 6.44 ℃ 100 % 998.06 hPa
2021-11-26 07:50:07 6.65 ℃ 100 % 998.13 hPa
2021-11-26 07:40:07 6.9 ℃ 100 % 998.22 hPa
2021-11-26 07:30:07 6.73 ℃ 100 % 998.35 hPa
2021-11-26 07:20:07 6.92 ℃ 100 % 998.46 hPa
2021-11-26 07:10:07 7.04 ℃ 100 % 998.55 hPa
2021-11-26 07:00:07 6.94 ℃ 100 % 998.62 hPa
2021-11-26 06:50:07 6.99 ℃ 100 % 998.69 hPa
2021-11-26 06:40:08 6.81 ℃ 100 % 998.77 hPa
2021-11-26 06:30:07 6.84 ℃ 100 % 998.89 hPa
2021-11-26 06:20:07 7.13 ℃ 100 % 999.04 hPa
2021-11-26 06:10:07 7.46 ℃ 100 % 999.18 hPa
2021-11-26 06:00:07 7.61 ℃ 100 % 999.34 hPa
2021-11-26 05:50:08 7.72 ℃ 100 % 999.47 hPa
2021-11-26 05:40:08 7.39 ℃ 100 % 999.62 hPa
2021-11-26 05:30:07 6.89 ℃ 100 % 999.8 hPa
2021-11-26 05:20:08 6.89 ℃ 100 % 999.9 hPa
2021-11-26 05:10:08 6.74 ℃ 100 % 999.99 hPa
2021-11-26 05:00:08 6.45 ℃ 100 % 1000.08 hPa
2021-11-26 04:50:08 6.17 ℃ 100 % 1000.23 hPa
2021-11-26 04:40:08 6.21 ℃ 100 % 1000.36 hPa
2021-11-26 04:30:08 6.35 ℃ 100 % 1000.45 hPa
2021-11-26 04:20:08 6.27 ℃ 100 % 1000.55 hPa
2021-11-26 04:10:08 6.49 ℃ 100 % 1000.73 hPa
2021-11-26 04:00:08 6.49 ℃ 100 % 1000.88 hPa
2021-11-26 03:50:08 6.69 ℃ 100 % 1001.04 hPa
2021-11-26 03:40:09 6.64 ℃ 100 % 1001.24 hPa
2021-11-26 03:30:08 6.63 ℃ 100 % 1001.43 hPa
2021-11-26 03:20:08 6.36 ℃ 100 % 1001.57 hPa
2021-11-26 03:10:08 6.37 ℃ 100 % 1001.69 hPa
2021-11-26 03:00:08 6.07 ℃ 100 % 1001.79 hPa
2021-11-26 02:50:08 6.01 ℃ 100 % 1001.88 hPa
2021-11-26 02:40:08 5.85 ℃ 100 % 1001.99 hPa
2021-11-26 02:30:08 5.86 ℃ 100 % 1002.16 hPa
2021-11-26 02:20:08 5.76 ℃ 100 % 1002.25 hPa
2021-11-26 02:10:08 5.92 ℃ 100 % 1002.42 hPa
2021-11-26 02:00:08 5.89 ℃ 100 % 1002.53 hPa
2021-11-26 01:50:08 5.8 ℃ 100 % 1002.65 hPa
2021-11-26 01:40:08 6.03 ℃ 100 % 1002.78 hPa
2021-11-26 01:30:08 6.17 ℃ 100 % 1002.91 hPa
2021-11-26 01:20:08 6.23 ℃ 100 % 1003.06 hPa
2021-11-26 01:10:08 6.52 ℃ 100 % 1003.2 hPa
2021-11-26 01:00:08 6.49 ℃ 100 % 1003.26 hPa
2021-11-26 00:50:08 6.32 ℃ 100 % 1003.34 hPa
2021-11-26 00:40:08 6.74 ℃ 100 % 1003.41 hPa
2021-11-26 00:30:08 6.6 ℃ 100 % 1003.43 hPa
2021-11-26 00:20:08 6.69 ℃ 100 % 1003.44 hPa
2021-11-26 00:10:08 6.95 ℃ 100 % 1003.52 hPa
2021-11-26 00:00:08 6.78 ℃ 100 % 1003.59 hPa
2021-11-25 23:50:08 7.03 ℃ 100 % 1003.67 hPa
2021-11-25 23:40:08 7.38 ℃ 100 % 1003.76 hPa
2021-11-25 23:30:08 7.78 ℃ 100 % 1003.83 hPa
2021-11-25 23:20:08 7.77 ℃ 100 % 1003.82 hPa
2021-11-25 23:10:08 7.75 ℃ 100 % 1003.77 hPa
2021-11-25 23:00:08 7.74 ℃ 100 % 1003.73 hPa
2021-11-25 22:50:08 7.53 ℃ 100 % 1003.77 hPa
2021-11-25 22:40:08 7.26 ℃ 100 % 1003.8 hPa
2021-11-25 22:30:08 7.17 ℃ 100 % 1003.84 hPa
2021-11-25 22:20:09 7.28 ℃ 100 % 1003.83 hPa
2021-11-25 22:10:08 7.08 ℃ 100 % 1003.84 hPa
2021-11-25 22:00:08 7.29 ℃ 100 % 1003.84 hPa
2021-11-25 21:50:08 7.07 ℃ 100 % 1003.9 hPa
2021-11-25 21:40:08 7.26 ℃ 100 % 1003.93 hPa
2021-11-25 21:30:08 7.38 ℃ 100 % 1003.92 hPa
2021-11-25 21:20:08 7.6 ℃ 100 % 1003.93 hPa
2021-11-25 21:10:08 7.5 ℃ 100 % 1003.95 hPa
2021-11-25 21:00:08 7.08 ℃ 100 % 1004.03 hPa
2021-11-25 20:50:08 7.13 ℃ 100 % 1004.11 hPa
2021-11-25 20:40:08 7.3 ℃ 100 % 1004.16 hPa
2021-11-25 20:30:08 7.41 ℃ 100 % 1004.23 hPa
2021-11-25 20:20:09 7.56 ℃ 100 % 1004.21 hPa
2021-11-25 20:10:08 7.58 ℃ 100 % 1004.15 hPa
2021-11-25 20:00:08 7.28 ℃ 100 % 1004.11 hPa
2021-11-25 19:50:09 7.48 ℃ 100 % 1004.07 hPa
2021-11-25 19:40:08 7.63 ℃ 100 % 1004.07 hPa
2021-11-25 19:30:08 7.71 ℃ 100 % 1004.06 hPa
2021-11-25 19:20:09 7.61 ℃ 100 % 1004.15 hPa
2021-11-25 19:10:09 7.67 ℃ 100 % 1004.12 hPa
2021-11-25 19:00:08 7.65 ℃ 100 % 1004.14 hPa
2021-11-25 18:50:09 7.69 ℃ 100 % 1004.17 hPa
2021-11-25 18:40:09 7.78 ℃ 100 % 1004.22 hPa
2021-11-25 18:30:09 7.88 ℃ 100 % 1004.27 hPa
2021-11-25 18:20:09 7.88 ℃ 100 % 1004.35 hPa
2021-11-25 18:10:09 7.84 ℃ 100 % 1004.37 hPa
2021-11-25 18:00:09 7.9 ℃ 100 % 1004.34 hPa
2021-11-25 17:50:09 8.01 ℃ 100 % 1004.33 hPa
2021-11-25 17:40:09 8.2 ℃ 100 % 1004.31 hPa
2021-11-25 17:30:09 8.51 ℃ 100 % 1004.32 hPa
2021-11-25 17:20:09 8.36 ℃ 100 % 1004.37 hPa
2021-11-25 17:10:09 8.41 ℃ 100 % 1004.39 hPa
2021-11-25 17:00:09 8.26 ℃ 100 % 1004.42 hPa
2021-11-25 16:50:09 8.23 ℃ 100 % 1004.44 hPa
2021-11-25 16:40:09 8.36 ℃ 100 % 1004.48 hPa
2021-11-25 16:30:09 8.52 ℃ 100 % 1004.45 hPa
2021-11-25 16:20:09 8.58 ℃ 100 % 1004.43 hPa
2021-11-25 16:10:09 8.7 ℃ 100 % 1004.42 hPa
2021-11-25 16:00:09 8.93 ℃ 100 % 1004.46 hPa
2021-11-25 15:50:09 9.11 ℃ 100 % 1004.47 hPa
2021-11-25 15:40:09 9.28 ℃ 100 % 1004.47 hPa
2021-11-25 15:30:09 9.3 ℃ 100 % 1004.46 hPa
2021-11-25 15:20:09 9.35 ℃ 100 % 1004.48 hPa
2021-11-25 15:10:09 9.23 ℃ 100 % 1004.51 hPa
2021-11-25 15:00:09 9.27 ℃ 100 % 1004.54 hPa
2021-11-25 14:50:09 9.27 ℃ 100 % 1004.64 hPa
2021-11-25 14:40:09 9.29 ℃ 100 % 1004.73 hPa
2021-11-25 14:30:09 9.47 ℃ 100 % 1004.78 hPa
2021-11-25 14:20:09 9.89 ℃ 100 % 1004.87 hPa
2021-11-25 14:10:09 10.09 ℃ 100 % 1004.98 hPa
2021-11-25 14:00:09 10.15 ℃ 100 % 1005.11 hPa
2021-11-25 13:50:09 10.25 ℃ 100 % 1005.24 hPa
2021-11-25 13:40:09 10.05 ℃ 100 % 1005.36 hPa
2021-11-25 13:30:09 9.91 ℃ 100 % 1005.52 hPa
2021-11-25 13:20:09 9.7 ℃ 100 % 1005.73 hPa
2021-11-25 13:10:09 9.53 ℃ 100 % 1005.9 hPa
2021-11-25 13:00:09 9.49 ℃ 100 % 1006.09 hPa
2021-11-25 12:50:09 9.38 ℃ 100 % 1006.22 hPa
2021-11-25 12:40:09 9.16 ℃ 100 % 1006.33 hPa
2021-11-25 12:30:09 8.96 ℃ 100 % 1006.42 hPa
2021-11-25 12:20:09 9.11 ℃ 100 % 1006.47 hPa
2021-11-25 12:10:11 8.72 ℃ 100 % 1006.54 hPa
2021-11-25 12:00:09 8.27 ℃ 100 % 1006.7 hPa
2021-11-25 11:50:09 8.28 ℃ 100 % 1006.86 hPa
2021-11-25 11:40:09 8.17 ℃ 100 % 1006.96 hPa
2021-11-25 11:30:09 8.02 ℃ 100 % 1007.07 hPa
2021-11-25 11:20:10 7.94 ℃ 100 % 1007.16 hPa
2021-11-25 11:10:09 8 ℃ 100 % 1007.23 hPa
2021-11-25 11:00:09 8.06 ℃ 100 % 1007.32 hPa
2021-11-25 10:50:09 8.49 ℃ 100 % 1007.38 hPa
2021-11-25 10:40:09 8.12 ℃ 100 % 1007.44 hPa
2021-11-25 10:30:09 8.28 ℃ 100 % 1007.61 hPa
2021-11-25 10:20:09 7.96 ℃ 100 % 1007.72 hPa
2021-11-25 10:10:09 7.8 ℃ 100 % 1007.82 hPa
2021-11-25 10:00:09 7.82 ℃ 100 % 1007.95 hPa
2021-11-25 09:50:09 7.76 ℃ 100 % 1007.99 hPa
2021-11-25 09:40:09 7.77 ℃ 100 % 1008.01 hPa
2021-11-25 09:30:09 7.9 ℃ 100 % 1008.09 hPa
2021-11-25 09:20:09 8.01 ℃ 100 % 1008.16 hPa
2021-11-25 09:10:09 7.95 ℃ 100 % 1008.15 hPa
2021-11-25 09:00:09 8.04 ℃ 100 % 1008.29 hPa
2021-11-25 08:50:09 7.71 ℃ 100 % 1008.45 hPa
2021-11-25 08:40:10 7.82 ℃ 100 % 1008.57 hPa
2021-11-25 08:30:10 7.55 ℃ 100 % 1008.66 hPa
2021-11-25 08:20:10 7.7 ℃ 100 % 1008.76 hPa
2021-11-25 08:10:10 7.76 ℃ 100 % 1008.87 hPa
2021-11-25 08:00:10 7.91 ℃ 100 % 1008.97 hPa
2021-11-25 07:50:10 7.88 ℃ 100 % 1009.12 hPa
2021-11-25 07:40:10 7.79 ℃ 100 % 1009.24 hPa
2021-11-25 07:30:10 7.8 ℃ 100 % 1009.38 hPa
2021-11-25 07:20:10 7.78 ℃ 100 % 1009.52 hPa
2021-11-25 07:10:10 7.83 ℃ 100 % 1009.63 hPa
2021-11-25 07:00:10 7.88 ℃ 100 % 1009.74 hPa
2021-11-25 06:50:10 8 ℃ 100 % 1009.82 hPa
2021-11-25 06:40:10 8.09 ℃ 100 % 1009.9 hPa
2021-11-25 06:30:10 7.97 ℃ 100 % 1009.98 hPa
2021-11-25 06:20:10 8.18 ℃ 100 % 1010.14 hPa
2021-11-25 06:10:10 8.33 ℃ 100 % 1010.26 hPa
2021-11-25 06:00:10 8.48 ℃ 100 % 1010.36 hPa
2021-11-25 05:50:10 8.61 ℃ 100 % 1010.46 hPa
2021-11-25 05:40:10 8.77 ℃ 100 % 1010.58 hPa
2021-11-25 05:30:10 8.83 ℃ 100 % 1010.72 hPa
2021-11-25 05:20:10 8.87 ℃ 100 % 1010.84 hPa
2021-11-25 05:10:10 8.66 ℃ 100 % 1011 hPa
2021-11-25 05:00:10 8.58 ℃ 100 % 1011.18 hPa
2021-11-25 04:50:10 8.77 ℃ 100 % 1011.28 hPa
2021-11-25 04:40:10 8.93 ℃ 100 % 1011.41 hPa
2021-11-25 04:30:10 8.55 ℃ 100 % 1011.59 hPa
2021-11-25 04:20:10 8.55 ℃ 100 % 1011.72 hPa
2021-11-25 04:10:10 8.72 ℃ 100 % 1011.85 hPa
2021-11-25 04:00:10 8.71 ℃ 100 % 1012.01 hPa
2021-11-25 03:50:10 8.67 ℃ 100 % 1012.14 hPa
2021-11-25 03:40:10 8.78 ℃ 100 % 1012.26 hPa
2021-11-25 03:30:10 8.64 ℃ 100 % 1012.41 hPa
2021-11-25 03:20:10 8.66 ℃ 100 % 1012.57 hPa
2021-11-25 03:10:10 8.54 ℃ 100 % 1012.73 hPa
2021-11-25 03:00:10 8.67 ℃ 100 % 1012.85 hPa
2021-11-25 02:50:10 8.62 ℃ 100 % 1013 hPa
2021-11-25 02:40:10 8.63 ℃ 100 % 1013.09 hPa
2021-11-25 02:30:10 8.73 ℃ 100 % 1013.14 hPa
2021-11-25 02:20:10 8.65 ℃ 100 % 1013.24 hPa
2021-11-25 02:10:10 8.66 ℃ 100 % 1013.36 hPa
2021-11-25 02:00:10 8.66 ℃ 100 % 1013.49 hPa
2021-11-25 01:50:10 8.93 ℃ 100 % 1013.65 hPa
2021-11-25 01:40:10 8.96 ℃ 100 % 1013.82 hPa
2021-11-25 01:30:10 8.94 ℃ 100 % 1013.95 hPa
2021-11-25 01:20:10 8.95 ℃ 100 % 1014.03 hPa
2021-11-25 01:10:10 8.82 ℃ 100 % 1014.19 hPa
2021-11-25 01:00:10 8.75 ℃ 100 % 1014.29 hPa
2021-11-25 00:50:10 8.73 ℃ 100 % 1014.36 hPa
2021-11-25 00:40:10 8.87 ℃ 100 % 1014.5 hPa
2021-11-25 00:30:10 9.03 ℃ 100 % 1014.62 hPa
2021-11-25 00:20:10 9.01 ℃ 100 % 1014.74 hPa
2021-11-25 00:10:10 9.2 ℃ 100 % 1014.85 hPa
2021-11-25 00:00:10 9.34 ℃ 100 % 1014.96 hPa
2021-11-24 23:50:10 9.33 ℃ 100 % 1015.06 hPa
2021-11-24 23:40:10 9.19 ℃ 100 % 1015.15 hPa
2021-11-24 23:30:10 9.24 ℃ 100 % 1015.25 hPa
2021-11-24 23:20:10 9.23 ℃ 100 % 1015.33 hPa
2021-11-24 23:10:10 9.33 ℃ 100 % 1015.48 hPa
2021-11-24 23:00:10 8.97 ℃ 100 % 1015.57 hPa
2021-11-24 22:50:11 9.25 ℃ 100 % 1015.73 hPa
2021-11-24 22:40:10 9.18 ℃ 100 % 1015.82 hPa
2021-11-24 22:30:11 9.15 ℃ 100 % 1015.88 hPa
2021-11-24 22:20:11 8.95 ℃ 100 % 1015.91 hPa
2021-11-24 22:10:11 9.13 ℃ 100 % 1015.97 hPa
2021-11-24 22:00:10 9.1 ℃ 100 % 1016.03 hPa
2021-11-24 21:50:11 9.13 ℃ 100 % 1016.09 hPa
2021-11-24 21:40:11 9.15 ℃ 100 % 1016.16 hPa
2021-11-24 21:30:11 9.39 ℃ 100 % 1016.23 hPa
2021-11-24 21:20:11 9.37 ℃ 100 % 1016.33 hPa
2021-11-24 21:10:11 9.52 ℃ 100 % 1016.4 hPa
2021-11-24 21:00:11 9.76 ℃ 100 % 1016.45 hPa
2021-11-24 20:50:11 9.49 ℃ 100 % 1016.47 hPa
2021-11-24 20:40:11 9.72 ℃ 100 % 1016.55 hPa
2021-11-24 20:30:11 9.82 ℃ 100 % 1016.71 hPa
2021-11-24 20:20:11 9.71 ℃ 100 % 1016.85 hPa
2021-11-24 20:10:11 9.73 ℃ 100 % 1016.99 hPa
2021-11-24 20:00:11 9.91 ℃ 100 % 1017.11 hPa
2021-11-24 19:50:11 9.76 ℃ 100 % 1017.2 hPa
2021-11-24 19:40:11 9.98 ℃ 100 % 1017.31 hPa
2021-11-24 19:30:11 10.11 ℃ 100 % 1017.44 hPa
2021-11-24 19:20:11 10.16 ℃ 100 % 1017.53 hPa
2021-11-24 19:10:11 10.29 ℃ 100 % 1017.62 hPa
2021-11-24 19:00:11 10.43 ℃ 100 % 1017.68 hPa
2021-11-24 18:50:11 10.36 ℃ 100 % 1017.75 hPa
2021-11-24 18:40:11 10.37 ℃ 100 % 1017.82 hPa
2021-11-24 18:30:11 10.42 ℃ 100 % 1017.88 hPa
2021-11-24 18:20:11 10.31 ℃ 100 % 1017.97 hPa
2021-11-24 18:10:11 10.33 ℃ 100 % 1018.1 hPa
2021-11-24 18:00:11 10.18 ℃ 100 % 1018.23 hPa
2021-11-24 17:50:11 10.14 ℃ 100 % 1018.29 hPa
2021-11-24 17:40:11 10.01 ℃ 100 % 1018.33 hPa
2021-11-24 17:30:11 9.79 ℃ 100 % 1018.35 hPa
2021-11-23 08:19:36 8.7 ℃ 100 % 1025.9 hPa
2021-11-23 08:09:36 8.87 ℃ 100 % 1025.78 hPa
2021-11-23 07:59:36 8.9 ℃ 100 % 1025.68 hPa
2021-11-23 07:49:36 8.73 ℃ 100 % 1025.6 hPa
2021-11-23 07:39:36 8.56 ℃ 100 % 1025.47 hPa
2021-11-23 07:29:36 8.64 ℃ 100 % 1025.33 hPa
2021-11-23 07:19:36 8.63 ℃ 100 % 1025.28 hPa
2021-11-23 07:09:36 8.7 ℃ 100 % 1025.23 hPa
2021-11-23 06:59:36 8.72 ℃ 100 % 1025.24 hPa
2021-11-23 06:49:36 8.98 ℃ 100 % 1025.2 hPa
2021-11-23 06:39:36 8.98 ℃ 100 % 1025.15 hPa
2021-11-23 06:29:36 8.83 ℃ 100 % 1025.16 hPa
2021-11-23 06:19:36 8.84 ℃ 100 % 1025.16 hPa
2021-11-23 06:09:36 8.87 ℃ 100 % 1025.19 hPa
2021-11-23 05:59:36 8.74 ℃ 100 % 1025.18 hPa
2021-11-23 05:49:36 8.83 ℃ 100 % 1025.15 hPa
2021-11-23 05:39:36 8.86 ℃ 100 % 1025.1 hPa
2021-11-23 05:29:36 8.88 ℃ 100 % 1025.05 hPa
2021-11-23 05:19:36 8.83 ℃ 100 % 1025.06 hPa
2021-11-23 05:09:36 8.82 ℃ 100 % 1025.02 hPa
2021-11-23 04:59:36 8.96 ℃ 100 % 1024.96 hPa
2021-11-23 04:49:36 8.94 ℃ 100 % 1024.85 hPa
2021-11-23 04:39:36 8.93 ℃ 100 % 1024.75 hPa
2021-11-23 04:29:36 9.07 ℃ 100 % 1024.7 hPa
2021-11-23 04:19:36 8.97 ℃ 100 % 1024.7 hPa
2021-11-23 04:09:36 8.96 ℃ 100 % 1024.69 hPa
2021-11-23 03:59:36 8.95 ℃ 100 % 1024.73 hPa
2021-11-23 03:49:36 9.05 ℃ 100 % 1024.76 hPa
2021-11-23 03:39:36 9.01 ℃ 100 % 1024.83 hPa
2021-11-23 03:29:36 9.06 ℃ 100 % 1024.91 hPa
2021-11-23 03:19:36 9.19 ℃ 100 % 1025.04 hPa
2021-11-23 03:09:36 9.07 ℃ 100 % 1025.1 hPa
2021-11-23 02:59:37 9.04 ℃ 100 % 1025.16 hPa
2021-11-23 02:49:36 9.12 ℃ 100 % 1025.2 hPa
2021-11-23 02:39:37 9.13 ℃ 100 % 1025.21 hPa
2021-11-23 02:29:36 9.17 ℃ 100 % 1025.26 hPa
2021-11-23 02:19:37 9.26 ℃ 100 % 1025.28 hPa
2021-11-23 02:09:37 9.33 ℃ 100 % 1025.27 hPa
2021-11-23 01:59:37 9.43 ℃ 100 % 1025.33 hPa
2021-11-23 01:49:37 9.57 ℃ 100 % 1025.29 hPa
2021-11-23 01:39:37 9.82 ℃ 100 % 1025.23 hPa
2021-11-23 01:29:37 9.94 ℃ 100 % 1025.16 hPa
2021-11-23 01:19:37 9.85 ℃ 100 % 1024.99 hPa
2021-11-23 01:09:37 9.9 ℃ 100 % 1024.94 hPa
2021-11-23 00:59:37 10.01 ℃ 100 % 1024.84 hPa
2021-11-23 00:49:37 9.87 ℃ 100 % 1024.84 hPa
2021-11-23 00:39:37 9.89 ℃ 100 % 1024.78 hPa
2021-11-23 00:29:37 9.76 ℃ 100 % 1024.84 hPa
2021-11-23 00:19:37 9.76 ℃ 100 % 1024.93 hPa
2021-11-23 00:09:37 9.77 ℃ 100 % 1025.03 hPa
2021-11-22 23:59:37 9.7 ℃ 100 % 1025.09 hPa
2021-11-22 23:49:37 9.54 ℃ 100 % 1025.12 hPa
2021-11-22 23:39:37 9.28 ℃ 100 % 1025.21 hPa
2021-11-22 23:29:37 9.19 ℃ 100 % 1025.25 hPa
2021-11-22 23:19:37 9.03 ℃ 100 % 1025.25 hPa
2021-11-22 23:09:37 9.13 ℃ 100 % 1025.2 hPa
2021-11-22 22:59:37 9.14 ℃ 100 % 1025.13 hPa
2021-11-22 22:49:37 8.96 ℃ 100 % 1025.05 hPa
2021-11-22 22:39:37 8.85 ℃ 100 % 1025 hPa
2021-11-22 22:29:37 8.74 ℃ 100 % 1025.01 hPa
2021-11-22 22:19:37 8.69 ℃ 100 % 1025.04 hPa
2021-11-22 22:09:37 8.65 ℃ 100 % 1025.06 hPa
2021-11-22 21:59:37 8.36 ℃ 100 % 1025.13 hPa
2021-11-22 21:49:37 8.18 ℃ 100 % 1025.28 hPa
2021-11-22 21:39:37 8.19 ℃ 100 % 1025.32 hPa
2021-11-22 21:29:37 8.09 ℃ 100 % 1025.33 hPa
2021-11-22 21:19:37 8.1 ℃ 100 % 1025.35 hPa
2021-11-22 21:09:37 8.14 ℃ 100 % 1025.37 hPa
2021-11-22 20:59:37 8.06 ℃ 100 % 1025.48 hPa
2021-11-22 20:49:37 7.8 ℃ 100 % 1025.57 hPa
2021-11-22 20:39:37 8 ℃ 100 % 1025.64 hPa
2021-11-22 20:29:37 8.1 ℃ 100 % 1025.73 hPa
2021-11-22 20:19:37 8.25 ℃ 100 % 1025.79 hPa
2021-11-22 20:09:37 8.1 ℃ 100 % 1025.79 hPa
2021-11-22 19:59:37 8.02 ℃ 100 % 1025.87 hPa
2021-11-22 19:49:37 7.87 ℃ 100 % 1025.92 hPa
2021-11-22 19:39:37 8.08 ℃ 100 % 1026.03 hPa
2021-11-22 19:29:37 8.22 ℃ 100 % 1026.08 hPa
2021-11-22 19:19:37 8.35 ℃ 100 % 1026.08 hPa
2021-11-22 19:09:37 8.48 ℃ 100 % 1026.05 hPa
2021-11-22 18:59:37 8.57 ℃ 100 % 1026.05 hPa
2021-11-22 18:49:37 8.51 ℃ 100 % 1026.01 hPa
2021-11-22 18:39:37 8.21 ℃ 100 % 1025.91 hPa
2021-11-22 18:29:37 8.25 ℃ 100 % 1025.79 hPa
2021-11-22 18:19:37 8.23 ℃ 100 % 1025.93 hPa
2021-11-22 18:09:37 8.55 ℃ 100 % 1026.01 hPa
2021-11-22 17:59:37 8.58 ℃ 100 % 1026.19 hPa
2021-11-22 17:49:37 8.78 ℃ 100 % 1026.28 hPa
2021-11-22 17:39:37 8.87 ℃ 100 % 1026.3 hPa
2021-11-22 17:29:37 8.92 ℃ 100 % 1026.3 hPa
2021-11-22 17:19:37 9.01 ℃ 100 % 1026.3 hPa
2021-11-22 17:09:37 8.89 ℃ 100 % 1026.29 hPa
2021-11-22 16:59:37 8.94 ℃ 100 % 1026.28 hPa
2021-11-22 16:49:37 9.19 ℃ 100 % 1026.25 hPa
2021-11-22 16:39:37 9.14 ℃ 100 % 1026.28 hPa
2021-11-22 16:29:37 9.34 ℃ 100 % 1026.23 hPa
2021-11-22 16:19:37 8.97 ℃ 100 % 1026.22 hPa
2021-11-22 16:09:37 8.75 ℃ 100 % 1026.18 hPa
2021-11-22 15:59:38 8.71 ℃ 100 % 1026.16 hPa
2021-11-22 15:49:38 8.96 ℃ 100 % 1026.18 hPa
2021-11-22 15:39:38 8.96 ℃ 100 % 1026.14 hPa
2021-11-22 15:29:38 8.96 ℃ 100 % 1026.08 hPa
2021-11-22 15:19:38 8.89 ℃ 100 % 1026 hPa
2021-11-22 15:09:38 8.83 ℃ 100 % 1025.96 hPa
2021-11-22 14:59:38 8.74 ℃ 100 % 1025.97 hPa
2021-11-22 14:49:38 8.5 ℃ 100 % 1026.07 hPa
2021-11-22 14:39:38 8.6 ℃ 100 % 1026.07 hPa
2021-11-22 14:29:38 8.83 ℃ 100 % 1026.07 hPa
2021-11-22 14:19:38 9.14 ℃ 100 % 1026.08 hPa
2021-11-22 14:09:38 9.75 ℃ 100 % 1026.07 hPa
2021-11-22 13:59:38 9.59 ℃ 100 % 1026.11 hPa
2021-11-22 13:49:38 9.25 ℃ 100 % 1026.17 hPa
2021-11-22 13:39:38 9.32 ℃ 100 % 1026.25 hPa
2021-11-22 13:29:38 9.15 ℃ 100 % 1026.3 hPa
2021-11-22 13:19:38 9.52 ℃ 100 % 1026.29 hPa
2021-11-22 13:09:38 9.3 ℃ 100 % 1026.31 hPa
2021-11-22 12:59:38 8.72 ℃ 100 % 1026.38 hPa
2021-11-22 12:49:38 8.61 ℃ 100 % 1026.4 hPa
2021-11-22 12:39:38 8.7 ℃ 100 % 1026.41 hPa
2021-11-22 12:29:39 8.59 ℃ 100 % 1026.43 hPa
2021-11-22 12:19:38 8.75 ℃ 100 % 1026.44 hPa
2021-11-22 12:09:38 9.03 ℃ 100 % 1026.43 hPa
2021-11-22 11:59:38 8.48 ℃ 100 % 1026.49 hPa
2021-11-22 11:49:38 8.39 ℃ 100 % 1026.5 hPa
2021-11-22 11:39:38 8.37 ℃ 100 % 1026.51 hPa
2021-11-22 11:29:38 8.22 ℃ 100 % 1026.59 hPa
2021-11-22 11:19:38 7.96 ℃ 100 % 1026.6 hPa
2021-11-22 11:09:38 7.84 ℃ 100 % 1026.59 hPa
2021-11-22 10:59:38 7.81 ℃ 100 % 1026.57 hPa
2021-11-22 10:49:38 7.8 ℃ 100 % 1026.52 hPa
2021-11-22 10:39:38 7.86 ℃ 100 % 1026.49 hPa
2021-11-22 10:29:38 7.57 ℃ 100 % 1026.45 hPa
2021-11-22 10:19:38 7.13 ℃ 100 % 1026.42 hPa
2021-11-22 10:09:38 6.69 ℃ 100 % 1026.32 hPa
2021-11-22 09:59:38 6.22 ℃ 100 % 1026.26 hPa
2021-11-22 09:49:38 6.27 ℃ 100 % 1026.13 hPa
2021-11-22 09:39:38 6.28 ℃ 100 % 1026.01 hPa
2021-11-22 09:29:38 6.28 ℃ 100 % 1025.88 hPa
2021-11-22 09:19:38 6.38 ℃ 100 % 1025.63 hPa
2021-11-22 09:09:38 6.29 ℃ 100 % 1025.59 hPa
2021-11-22 08:59:38 6.63 ℃ 100 % 1025.47 hPa
2021-11-22 08:49:38 6.92 ℃ 100 % 1025.31 hPa
2021-11-22 08:39:38 6.82 ℃ 100 % 1025.25 hPa
2021-11-22 08:29:38 6.35 ℃ 100 % 1025.14 hPa
2021-11-22 08:19:38 6.12 ℃ 100 % 1025.03 hPa
2021-11-22 08:09:38 6.05 ℃ 100 % 1024.87 hPa
2021-11-22 07:59:38 6.04 ℃ 100 % 1024.72 hPa
2021-11-22 07:49:38 5.91 ℃ 100 % 1024.64 hPa
2021-11-22 07:39:38 5.62 ℃ 100 % 1024.54 hPa
2021-11-22 07:29:38 5.41 ℃ 100 % 1024.54 hPa
2021-11-22 07:19:38 5.45 ℃ 100 % 1024.51 hPa
2021-11-22 07:09:38 5.5 ℃ 100 % 1024.42 hPa
2021-11-22 06:59:38 5.79 ℃ 100 % 1024.27 hPa
2021-11-22 06:49:38 5.95 ℃ 100 % 1024.12 hPa
2021-11-22 06:39:38 5.97 ℃ 100 % 1024.02 hPa
2021-11-22 06:29:38 5.9 ℃ 100 % 1023.97 hPa
2021-11-22 06:19:38 6.09 ℃ 100 % 1023.87 hPa
2021-11-22 06:09:38 6.26 ℃ 100 % 1023.78 hPa
2021-11-22 05:59:38 6.26 ℃ 100 % 1023.65 hPa
2021-11-22 05:49:39 6.48 ℃ 100 % 1023.49 hPa
2021-11-22 05:39:38 6.47 ℃ 100 % 1023.37 hPa
2021-11-22 05:29:38 6.12 ℃ 100 % 1023.27 hPa
2021-11-22 05:19:39 6.19 ℃ 100 % 1023.17 hPa
2021-11-22 05:09:39 6.19 ℃ 100 % 1023.05 hPa
2021-11-22 04:59:39 6.54 ℃ 100 % 1022.91 hPa
2021-11-22 04:49:39 6.75 ℃ 100 % 1022.81 hPa
2021-11-22 04:39:39 7.14 ℃ 100 % 1022.69 hPa
2021-11-22 04:29:39 7.4 ℃ 100 % 1022.59 hPa
2021-11-22 04:19:39 7.42 ℃ 100 % 1022.54 hPa
2021-11-22 04:09:39 7.52 ℃ 100 % 1022.5 hPa
2021-11-22 03:59:39 7.56 ℃ 100 % 1022.44 hPa
2021-11-22 03:49:39 7.55 ℃ 100 % 1022.36 hPa
2021-11-22 03:39:39 7.63 ℃ 100 % 1022.31 hPa
2021-11-22 03:29:39 7.78 ℃ 100 % 1022.22 hPa
2021-11-22 03:19:39 7.7 ℃ 100 % 1022.09 hPa
2021-11-22 03:09:39 7.69 ℃ 100 % 1022.01 hPa
2021-11-22 02:59:39 7.78 ℃ 100 % 1021.85 hPa
2021-11-22 02:49:39 7.77 ℃ 100 % 1021.69 hPa
2021-11-22 02:39:39 7.77 ℃ 100 % 1021.57 hPa
2021-11-22 02:29:39 7.61 ℃ 100 % 1021.46 hPa
2021-11-22 02:19:39 7.46 ℃ 100 % 1021.3 hPa
2021-11-22 02:09:39 7.54 ℃ 100 % 1021.16 hPa
2021-11-22 01:59:39 7.37 ℃ 100 % 1021.05 hPa
2021-11-22 01:49:39 7.44 ℃ 100 % 1020.87 hPa
2021-11-22 01:39:39 7.54 ℃ 100 % 1020.77 hPa
2021-11-22 01:29:39 7.69 ℃ 100 % 1020.64 hPa
2021-11-22 01:19:39 7.53 ℃ 100 % 1020.54 hPa
2021-11-22 01:09:39 7.57 ℃ 100 % 1020.42 hPa
2021-11-22 00:59:39 7.71 ℃ 100 % 1020.26 hPa
2021-11-22 00:49:39 7.67 ℃ 100 % 1020.13 hPa
2021-11-22 00:39:39 7.86 ℃ 100 % 1020.04 hPa
2021-11-22 00:29:39 7.85 ℃ 100 % 1019.96 hPa
2021-11-22 00:19:40 7.88 ℃ 100 % 1019.85 hPa
2021-11-22 00:09:39 7.89 ℃ 100 % 1019.72 hPa
2021-11-21 23:59:39 7.82 ℃ 100 % 1019.56 hPa
2021-11-21 23:49:39 7.81 ℃ 100 % 1019.38 hPa
2021-11-21 23:39:39 7.89 ℃ 100 % 1019.21 hPa
2021-11-21 23:29:39 7.83 ℃ 100 % 1019.06 hPa
2021-11-21 23:19:39 7.91 ℃ 100 % 1018.92 hPa
2021-11-21 23:09:39 8.01 ℃ 100 % 1018.69 hPa
2021-11-21 22:59:39 8.14 ℃ 100 % 1018.5 hPa
2021-11-21 22:49:39 8.01 ℃ 100 % 1018.41 hPa
2021-11-21 22:39:39 8.05 ℃ 100 % 1018.32 hPa
2021-11-21 22:29:39 8.16 ℃ 100 % 1018.12 hPa
2021-11-21 22:19:39 8.05 ℃ 100 % 1017.97 hPa
2021-11-21 22:09:39 8.06 ℃ 100 % 1017.75 hPa
2021-11-21 21:59:40 8.02 ℃ 100 % 1017.56 hPa
2021-11-21 21:49:39 8.07 ℃ 100 % 1017.41 hPa
2021-11-21 21:39:39 7.97 ℃ 100 % 1017.31 hPa
2021-11-21 21:29:39 8.14 ℃ 100 % 1017.26 hPa
2021-11-21 21:19:39 8.19 ℃ 100 % 1017.09 hPa
2021-11-21 21:09:39 8.34 ℃ 100 % 1016.9 hPa
2021-11-21 20:59:39 8.14 ℃ 100 % 1016.77 hPa
2021-11-21 20:49:40 8.27 ℃ 100 % 1016.5 hPa
2021-11-21 20:39:40 8.22 ℃ 100 % 1016.35 hPa
2021-11-21 20:29:39 8.29 ℃ 100 % 1016.15 hPa
2021-11-21 20:19:40 8.39 ℃ 100 % 1015.91 hPa
2021-11-21 20:09:39 8.38 ℃ 100 % 1015.7 hPa
2021-11-21 19:59:39 8.34 ℃ 100 % 1015.47 hPa
2021-11-21 19:49:40 8.25 ℃ 100 % 1015.24 hPa
2021-11-21 19:39:40 8.17 ℃ 100 % 1014.97 hPa
2021-11-21 19:29:40 8.29 ℃ 100 % 1014.73 hPa
2021-11-21 19:19:40 8.31 ℃ 100 % 1014.45 hPa
2021-11-21 19:09:40 8.45 ℃ 100 % 1014.2 hPa
2021-11-21 18:59:40 8.42 ℃ 100 % 1014.03 hPa
2021-11-21 18:49:40 8.48 ℃ 100 % 1013.88 hPa
2021-11-21 18:39:40 8.42 ℃ 100 % 1013.69 hPa
2021-11-21 18:29:40 8.55 ℃ 100 % 1013.4 hPa
2021-11-21 18:19:40 8.59 ℃ 100 % 1013.19 hPa
2021-11-21 18:09:40 8.79 ℃ 100 % 1012.95 hPa
2021-11-21 17:59:40 8.93 ℃ 100 % 1012.68 hPa
2021-11-21 17:49:40 8.95 ℃ 100 % 1012.47 hPa
2021-11-21 17:39:40 9.13 ℃ 100 % 1012.27 hPa
2021-11-21 17:29:40 9.14 ℃ 100 % 1012.2 hPa
2021-11-21 17:19:40 9.27 ℃ 100 % 1012.06 hPa
2021-11-21 17:09:40 9.78 ℃ 100 % 1011.84 hPa
2021-11-21 16:59:40 10.13 ℃ 100 % 1011.69 hPa
2021-11-21 16:49:40 9.87 ℃ 100 % 1011.54 hPa
2021-11-21 16:39:40 9.56 ℃ 100 % 1011.39 hPa
2021-11-21 16:29:40 10.09 ℃ 100 % 1011.21 hPa
2021-11-21 16:19:40 9.41 ℃ 100 % 1011.02 hPa
2021-11-21 16:09:41 9.32 ℃ 100 % 1010.9 hPa
2021-11-21 15:59:40 10.18 ℃ 100 % 1010.73 hPa
2021-11-21 15:49:40 11.71 ℃ 100 % 1010.38 hPa
2021-11-21 15:39:40 11.84 ℃ 100 % 1010.21 hPa
2021-11-21 15:29:40 12.2 ℃ 100 % 1010.05 hPa
2021-11-21 15:19:40 12.06 ℃ 100 % 1009.92 hPa
2021-11-21 15:09:40 11.25 ℃ 100 % 1009.82 hPa
2021-11-21 14:59:40 10.51 ℃ 100 % 1009.78 hPa
2021-11-21 14:49:40 10.77 ℃ 100 % 1009.67 hPa
2021-11-21 14:39:40 12.08 ℃ 100 % 1009.33 hPa
2021-11-21 14:29:40 12.14 ℃ 100 % 1009.21 hPa
2021-11-21 14:19:40 11.82 ℃ 100 % 1009.11 hPa
2021-11-21 14:09:40 11.53 ℃ 100 % 1009.11 hPa
2021-11-21 13:59:40 11.47 ℃ 100 % 1009.07 hPa
2021-11-21 13:49:40 11.43 ℃ 100 % 1009.02 hPa
2021-11-21 13:39:40 11.83 ℃ 100 % 1008.9 hPa
2021-11-21 13:29:40 11.99 ℃ 100 % 1008.84 hPa
2021-11-21 13:19:40 11.95 ℃ 100 % 1008.81 hPa
2021-11-21 13:09:40 11.88 ℃ 100 % 1008.82 hPa
2021-11-21 12:59:40 11.96 ℃ 100 % 1008.81 hPa
2021-11-21 12:49:40 11.91 ℃ 100 % 1008.77 hPa
2021-11-21 12:39:40 11.7 ℃ 100 % 1008.74 hPa
2021-11-21 12:29:40 11.81 ℃ 100 % 1008.67 hPa
2021-11-21 12:19:40 12 ℃ 100 % 1008.62 hPa
2021-11-21 12:09:40 11.93 ℃ 100 % 1008.58 hPa
2021-11-21 11:59:40 11.75 ℃ 100 % 1008.57 hPa
2021-11-21 11:49:40 11.7 ℃ 100 % 1008.56 hPa
2021-11-21 11:39:40 11.87 ℃ 100 % 1008.59 hPa
2021-11-21 11:29:40 11.86 ℃ 100 % 1008.58 hPa
2021-11-21 11:19:40 11.79 ℃ 100 % 1008.55 hPa
2021-11-21 11:09:40 11.67 ℃ 100 % 1008.55 hPa
2021-11-21 10:59:40 11.47 ℃ 100 % 1008.57 hPa
2021-11-21 10:49:40 11.59 ℃ 100 % 1008.58 hPa
2021-11-21 10:39:40 11.61 ℃ 100 % 1008.56 hPa
2021-11-21 10:29:40 11.68 ℃ 100 % 1008.53 hPa
2021-11-21 10:19:40 11.38 ℃ 100 % 1008.54 hPa
2021-11-21 10:09:40 11.79 ℃ 100 % 1008.53 hPa
2021-11-21 09:59:40 12.03 ℃ 100 % 1008.48 hPa
2021-11-21 09:49:40 12.38 ℃ 100 % 1008.45 hPa
2021-11-21 09:39:40 12.51 ℃ 100 % 1008.38 hPa
2021-11-21 09:29:40 12.53 ℃ 100 % 1008.34 hPa
2021-11-21 09:19:40 12.64 ℃ 100 % 1008.32 hPa
2021-11-21 09:09:40 12.27 ℃ 100 % 1008.32 hPa
2021-11-21 08:59:40 11.91 ℃ 100 % 1008.26 hPa
2021-11-21 08:49:40 11.38 ℃ 100 % 1008.23 hPa
2021-11-21 08:39:41 11.15 ℃ 100 % 1008.22 hPa
2021-11-21 08:29:41 11.41 ℃ 100 % 1008.12 hPa
2021-11-21 08:19:41 12.09 ℃ 100 % 1008.06 hPa
2021-11-21 08:09:40 12.18 ℃ 100 % 1007.98 hPa
2021-11-21 07:59:41 12.39 ℃ 100 % 1007.9 hPa
2021-11-21 07:49:41 12.73 ℃ 100 % 1007.88 hPa
2021-11-21 07:39:41 12.69 ℃ 100 % 1007.83 hPa
2021-11-21 07:29:41 12.68 ℃ 100 % 1007.81 hPa
2021-11-21 07:19:41 12.47 ℃ 100 % 1007.82 hPa
2021-11-21 07:09:41 12.13 ℃ 100 % 1007.81 hPa
2021-11-21 06:59:41 11.86 ℃ 100 % 1007.83 hPa
2021-11-21 06:49:41 11.9 ℃ 100 % 1007.82 hPa
2021-11-21 06:39:41 11.81 ℃ 100 % 1007.78 hPa
2021-11-21 06:29:41 11.93 ℃ 100 % 1007.77 hPa
2021-11-21 06:19:41 11.64 ℃ 100 % 1007.77 hPa
2021-11-21 06:09:41 11.6 ℃ 100 % 1007.78 hPa
2021-11-21 05:59:41 11.63 ℃ 100 % 1007.82 hPa
2021-11-21 05:49:41 11.7 ℃ 100 % 1007.85 hPa
2021-11-21 05:39:41 11.54 ℃ 100 % 1007.86 hPa
2021-11-21 05:29:41 11.75 ℃ 100 % 1007.84 hPa
2021-11-21 05:19:41 11.63 ℃ 100 % 1007.82 hPa
2021-11-21 05:09:41 11.94 ℃ 100 % 1007.81 hPa
2021-11-21 04:59:41 12.01 ℃ 100 % 1007.86 hPa
2021-11-21 04:49:41 12.19 ℃ 100 % 1007.87 hPa
2021-11-21 04:39:41 12.05 ℃ 100 % 1007.92 hPa
2021-11-21 04:29:41 12.15 ℃ 100 % 1007.97 hPa
2021-11-21 04:19:41 12 ℃ 100 % 1007.98 hPa
2021-11-21 04:09:41 12.21 ℃ 100 % 1007.96 hPa
2021-11-21 03:59:41 12.44 ℃ 100 % 1007.95 hPa
2021-11-21 03:49:41 12.2 ℃ 100 % 1007.97 hPa
2021-11-21 03:39:41 12.08 ℃ 100 % 1008.02 hPa
2021-11-21 03:29:41 12.16 ℃ 100 % 1008.11 hPa
2021-11-21 03:19:41 12.26 ℃ 100 % 1008.16 hPa
2021-11-21 03:09:41 12.27 ℃ 100 % 1008.19 hPa
2021-11-21 02:59:41 12.26 ℃ 100 % 1008.29 hPa
2021-11-21 02:49:41 12.04 ℃ 100 % 1008.3 hPa
2021-11-21 02:39:41 11.75 ℃ 100 % 1008.37 hPa
2021-11-21 02:29:41 11.85 ℃ 100 % 1008.5 hPa
2021-11-21 02:19:41 11.74 ℃ 100 % 1008.48 hPa
2021-11-21 02:09:41 11.67 ℃ 100 % 1008.44 hPa
2021-11-21 01:59:41 11.78 ℃ 100 % 1008.29 hPa
2021-11-21 01:49:41 12.01 ℃ 100 % 1008.32 hPa
2021-11-21 01:39:41 11.81 ℃ 100 % 1008.43 hPa
2021-11-21 01:29:41 11.79 ℃ 100 % 1008.53 hPa
2021-11-21 01:19:41 11.67 ℃ 100 % 1008.6 hPa
2021-11-21 01:09:41 11.73 ℃ 100 % 1008.72 hPa
2021-11-21 00:59:41 11.84 ℃ 100 % 1008.85 hPa
2021-11-21 00:49:41 11.82 ℃ 100 % 1008.97 hPa
2021-11-21 00:39:41 11.81 ℃ 100 % 1009.15 hPa
2021-11-21 00:29:42 12.07 ℃ 100 % 1009.28 hPa
2021-11-21 00:19:42 12.33 ℃ 100 % 1009.47 hPa
2021-11-21 00:09:41 12.47 ℃ 100 % 1009.61 hPa
2021-11-20 23:59:41 12.25 ℃ 100 % 1009.77 hPa
2021-11-20 23:49:41 12.24 ℃ 100 % 1009.88 hPa
2021-11-20 23:39:41 12.21 ℃ 100 % 1009.95 hPa
2021-11-20 23:29:41 12.2 ℃ 100 % 1010.02 hPa
2021-11-20 23:19:41 12.03 ℃ 100 % 1010.1 hPa
2021-11-20 23:09:41 11.92 ℃ 100 % 1010.2 hPa
2021-11-20 22:59:42 11.8 ℃ 100 % 1010.34 hPa
2021-11-20 22:49:41 11.71 ℃ 100 % 1010.51 hPa
2021-11-20 22:39:41 11.98 ℃ 100 % 1010.6 hPa
2021-11-20 22:29:41 12.31 ℃ 100 % 1010.74 hPa
2021-11-20 22:19:42 12.29 ℃ 100 % 1010.88 hPa
2021-11-20 22:09:42 12.19 ℃ 100 % 1011.05 hPa
2021-11-20 21:59:41 12.03 ℃ 100 % 1011.28 hPa
2021-11-20 21:49:42 12.13 ℃ 100 % 1011.4 hPa
2021-11-20 21:39:42 12.21 ℃ 100 % 1011.51 hPa
2021-11-20 21:29:41 12.18 ℃ 100 % 1011.7 hPa
2021-11-20 21:19:41 12.03 ℃ 100 % 1011.81 hPa
2021-11-20 21:09:42 12.14 ℃ 100 % 1011.91 hPa
2021-11-20 20:59:42 12.02 ℃ 100 % 1012 hPa
2021-11-20 20:49:42 12.13 ℃ 100 % 1012.11 hPa
2021-11-20 20:39:42 12.29 ℃ 100 % 1012.21 hPa
2021-11-20 20:29:42 12.53 ℃ 100 % 1012.34 hPa
2021-11-20 20:19:42 12.75 ℃ 100 % 1012.49 hPa
2021-11-20 20:09:42 12.53 ℃ 100 % 1012.64 hPa
2021-11-20 19:59:42 12.52 ℃ 100 % 1012.76 hPa
2021-11-20 19:49:42 12.59 ℃ 100 % 1012.9 hPa
2021-11-20 19:39:42 12.41 ℃ 100 % 1013.01 hPa
2021-11-20 19:29:42 12.45 ℃ 100 % 1013.19 hPa
2021-11-20 19:19:42 12.44 ℃ 100 % 1013.34 hPa
2021-11-20 19:09:42 12.6 ℃ 100 % 1013.49 hPa
2021-11-20 18:59:42 12.74 ℃ 100 % 1013.58 hPa
2021-11-20 18:49:42 12.75 ℃ 100 % 1013.64 hPa
2021-11-20 18:39:42 12.75 ℃ 100 % 1013.77 hPa
2021-11-20 18:29:42 12.78 ℃ 100 % 1013.91 hPa
2021-11-20 18:19:42 13.05 ℃ 100 % 1014.04 hPa
2021-11-20 18:09:42 12.94 ℃ 100 % 1014.13 hPa
2021-11-20 17:59:42 12.99 ℃ 100 % 1014.27 hPa
2021-11-20 17:49:42 13.03 ℃ 100 % 1014.41 hPa
2021-11-20 17:39:42 12.37 ℃ 100 % 1014.53 hPa
2021-11-20 17:29:42 12.19 ℃ 100 % 1014.68 hPa
2021-11-20 17:19:42 12.26 ℃ 100 % 1014.81 hPa
2021-11-20 17:09:42 12.28 ℃ 100 % 1014.84 hPa
2021-11-20 16:59:42 12.51 ℃ 100 % 1014.85 hPa
2021-11-20 16:49:42 12.4 ℃ 100 % 1014.98 hPa
2021-11-20 16:39:42 12.48 ℃ 100 % 1015.12 hPa
2021-11-20 16:29:42 12.51 ℃ 100 % 1015.19 hPa
2021-11-20 16:19:42 12.45 ℃ 100 % 1015.31 hPa
2021-11-20 16:09:42 12.59 ℃ 100 % 1015.48 hPa
2021-11-20 15:59:42 12.79 ℃ 100 % 1015.57 hPa
2021-11-20 15:49:42 12.91 ℃ 100 % 1015.67 hPa
2021-11-20 15:39:42 12.78 ℃ 100 % 1015.75 hPa
2021-11-20 15:29:42 12.81 ℃ 100 % 1015.88 hPa
2021-11-20 15:19:42 12.87 ℃ 100 % 1016.02 hPa
2021-11-20 15:09:42 12.9 ℃ 100 % 1016.08 hPa
2021-11-20 14:59:42 12.93 ℃ 100 % 1016.14 hPa
2021-11-20 14:49:42 12.91 ℃ 100 % 1016.37 hPa
2021-11-20 14:39:42 12.98 ℃ 100 % 1016.56 hPa
2021-11-20 14:29:42 13 ℃ 100 % 1016.71 hPa
2021-11-20 14:19:42 13.01 ℃ 100 % 1016.86 hPa
2021-11-20 14:09:42 12.92 ℃ 100 % 1017.16 hPa
2021-11-20 13:59:42 13.04 ℃ 100 % 1017.39 hPa
2021-11-20 13:49:42 12.96 ℃ 100 % 1017.66 hPa
2021-11-20 13:39:42 13 ℃ 100 % 1017.87 hPa
2021-11-20 13:29:42 13.15 ℃ 100 % 1018.05 hPa
2021-11-20 13:19:42 13.2 ℃ 100 % 1018.33 hPa
2021-11-20 13:09:42 13.23 ℃ 100 % 1018.51 hPa
2021-11-20 12:59:42 13.3 ℃ 100 % 1018.66 hPa
2021-11-20 12:49:42 13.36 ℃ 100 % 1018.89 hPa
2021-11-20 12:39:42 13.35 ℃ 100 % 1019.07 hPa
2021-11-20 12:29:42 13.39 ℃ 100 % 1019.27 hPa
2021-11-20 12:19:42 13.49 ℃ 100 % 1019.46 hPa
2021-11-20 12:09:42 13.61 ℃ 100 % 1019.59 hPa
2021-11-20 11:59:42 13.79 ℃ 100 % 1019.71 hPa
2021-11-20 11:49:42 13.79 ℃ 100 % 1019.83 hPa
2021-11-20 11:39:42 13.67 ℃ 100 % 1019.96 hPa
2021-11-20 11:29:42 13.67 ℃ 100 % 1020.1 hPa
2021-11-20 11:19:42 13.56 ℃ 100 % 1020.2 hPa
2021-11-20 11:09:43 13.47 ℃ 100 % 1020.33 hPa
2021-11-20 10:59:42 13.5 ℃ 100 % 1020.42 hPa
2021-11-20 10:49:43 13.29 ℃ 100 % 1020.52 hPa
2021-11-20 10:39:42 13.36 ℃ 100 % 1020.57 hPa
2021-11-20 10:29:43 13.51 ℃ 100 % 1020.65 hPa
2021-11-20 10:19:43 13.36 ℃ 100 % 1020.75 hPa
2021-11-20 10:09:43 13.39 ℃ 100 % 1020.85 hPa
2021-11-20 09:59:43 13.46 ℃ 100 % 1020.93 hPa
2021-11-20 09:49:43 13.28 ℃ 100 % 1020.96 hPa
2021-11-20 09:39:43 13.26 ℃ 100 % 1021.02 hPa
2021-11-20 09:29:43 13.24 ℃ 100 % 1021.11 hPa
2021-11-20 09:19:43 13.22 ℃ 100 % 1021.2 hPa
2021-11-20 09:09:43 13.38 ℃ 100 % 1021.33 hPa
2021-11-20 08:59:43 13.48 ℃ 100 % 1021.41 hPa
2021-11-20 08:49:43 13.57 ℃ 100 % 1021.46 hPa
2021-11-20 08:39:43 13.47 ℃ 100 % 1021.54 hPa
2021-11-20 08:29:43 13.55 ℃ 100 % 1021.63 hPa
2021-11-20 08:19:43 13.35 ℃ 100 % 1021.71 hPa
2021-11-20 08:09:43 13.45 ℃ 100 % 1021.75 hPa
2021-11-20 07:59:43 13.38 ℃ 100 % 1021.81 hPa
2021-11-20 07:49:43 13.32 ℃ 100 % 1021.79 hPa
2021-11-20 07:39:43 13.29 ℃ 100 % 1021.77 hPa
2021-11-20 07:29:43 13.25 ℃ 100 % 1021.75 hPa
2021-11-20 07:19:43 13.2 ℃ 100 % 1021.74 hPa
2021-11-20 07:09:43 13.25 ℃ 100 % 1021.75 hPa
2021-11-20 06:59:43 13.22 ℃ 100 % 1021.74 hPa
2021-11-20 06:49:43 13.15 ℃ 100 % 1021.75 hPa
2021-11-20 06:39:43 13.24 ℃ 100 % 1021.8 hPa
2021-11-20 06:29:43 13.2 ℃ 100 % 1021.88 hPa
2021-11-20 06:19:43 13.03 ℃ 100 % 1021.99 hPa
2021-11-20 06:09:43 12.8 ℃ 100 % 1022.08 hPa
2021-11-20 05:59:43 12.8 ℃ 100 % 1022.1 hPa
2021-11-20 05:49:43 12.74 ℃ 100 % 1022.17 hPa
2021-11-20 05:39:43 13 ℃ 100 % 1022.22 hPa
2021-11-20 05:29:43 13.24 ℃ 100 % 1022.21 hPa
2021-11-20 05:19:43 13.17 ℃ 100 % 1022.25 hPa
2021-11-20 05:09:43 13.04 ℃ 100 % 1022.37 hPa
2021-11-20 04:59:43 13.01 ℃ 100 % 1022.53 hPa
2021-11-20 04:49:43 12.91 ℃ 100 % 1022.58 hPa
2021-11-20 04:39:43 12.88 ℃ 100 % 1022.62 hPa
2021-11-20 04:29:43 12.93 ℃ 100 % 1022.64 hPa
2021-11-20 04:19:43 13.08 ℃ 100 % 1022.68 hPa
2021-11-20 04:09:43 13.14 ℃ 100 % 1022.77 hPa
2021-11-20 03:59:43 13.22 ℃ 100 % 1022.89 hPa
2021-11-20 03:49:43 13.07 ℃ 100 % 1022.95 hPa
2021-11-20 03:39:43 12.91 ℃ 100 % 1023.04 hPa
2021-11-20 03:29:43 13.02 ℃ 100 % 1023.14 hPa
2021-11-20 03:19:43 13.11 ℃ 100 % 1023.28 hPa
2021-11-20 03:09:43 13.18 ℃ 100 % 1023.43 hPa
2021-11-20 02:59:43 13.34 ℃ 100 % 1023.54 hPa
2021-11-20 02:49:43 13.38 ℃ 100 % 1023.57 hPa
2021-11-20 02:39:43 13.51 ℃ 100 % 1023.59 hPa
2021-11-20 02:29:43 13.53 ℃ 100 % 1023.64 hPa
2021-11-20 02:19:43 13.61 ℃ 100 % 1023.66 hPa
2021-11-20 02:09:43 13.58 ℃ 100 % 1023.74 hPa
2021-11-20 01:59:43 13.38 ℃ 100 % 1023.76 hPa
2021-11-20 01:49:43 13.67 ℃ 100 % 1023.78 hPa
2021-11-20 01:39:43 13.65 ℃ 100 % 1023.78 hPa
2021-11-20 01:29:43 13.8 ℃ 100 % 1023.77 hPa
2021-11-20 01:19:43 13.72 ℃ 100 % 1023.74 hPa
2021-11-20 01:09:43 13.63 ℃ 100 % 1023.67 hPa
2021-11-20 00:59:43 13.72 ℃ 100 % 1023.59 hPa
2021-11-20 00:49:43 13.4 ℃ 100 % 1023.56 hPa
2021-11-20 00:39:43 13.45 ℃ 100 % 1023.61 hPa
2021-11-20 00:29:44 13.54 ℃ 100 % 1023.67 hPa
2021-11-20 00:19:43 13.7 ℃ 100 % 1023.69 hPa
2021-11-20 00:09:44 13.72 ℃ 100 % 1023.66 hPa
2021-11-19 23:59:44 13.83 ℃ 100 % 1023.61 hPa
2021-11-19 23:49:44 13.83 ℃ 100 % 1023.66 hPa
2021-11-19 23:39:44 13.79 ℃ 100 % 1023.68 hPa
2021-11-19 23:29:44 13.81 ℃ 100 % 1023.68 hPa
2021-11-19 23:19:44 13.61 ℃ 100 % 1023.65 hPa
2021-11-19 23:09:44 13.73 ℃ 100 % 1023.59 hPa
2021-11-19 22:59:44 13.78 ℃ 100 % 1023.54 hPa
2021-11-19 22:49:44 13.77 ℃ 100 % 1023.52 hPa
2021-11-19 22:39:44 13.81 ℃ 100 % 1023.5 hPa
2021-11-19 22:29:44 13.82 ℃ 100 % 1023.52 hPa
2021-11-19 22:19:44 13.99 ℃ 100 % 1023.57 hPa
2021-11-19 22:09:44 14 ℃ 100 % 1023.56 hPa
2021-11-19 21:59:44 14 ℃ 100 % 1023.49 hPa
2021-11-19 21:49:44 14 ℃ 100 % 1023.4 hPa
2021-11-19 21:39:44 14.03 ℃ 100 % 1023.41 hPa
2021-11-19 21:29:44 14.26 ℃ 100 % 1023.39 hPa
2021-11-19 21:19:44 14.18 ℃ 100 % 1023.22 hPa
2021-11-19 21:09:44 14.43 ℃ 100 % 1023.03 hPa
2021-11-19 20:59:44 14.28 ℃ 100 % 1022.9 hPa
2021-11-19 20:49:44 14.19 ℃ 100 % 1022.84 hPa
2021-11-19 20:39:44 13.92 ℃ 100 % 1022.76 hPa
2021-11-19 20:29:44 13.87 ℃ 100 % 1022.8 hPa
2021-11-19 20:19:44 13.93 ℃ 100 % 1022.83 hPa
2021-11-19 20:09:44 13.9 ℃ 100 % 1022.85 hPa
2021-11-19 19:59:44 13.93 ℃ 100 % 1022.79 hPa
2021-11-19 19:49:44 13.86 ℃ 100 % 1022.65 hPa
2021-11-19 19:39:44 13.81 ℃ 100 % 1022.59 hPa
2021-11-19 19:29:44 13.83 ℃ 100 % 1022.58 hPa
2021-11-19 19:19:44 13.86 ℃ 100 % 1022.54 hPa
2021-11-19 19:09:44 13.8 ℃ 100 % 1022.37 hPa
2021-11-19 18:59:44 13.81 ℃ 100 % 1022.37 hPa
2021-11-19 18:49:44 13.79 ℃ 100 % 1022.4 hPa
2021-11-19 18:39:44 13.84 ℃ 100 % 1022.42 hPa
2021-11-19 18:29:44 13.84 ℃ 100 % 1022.44 hPa
2021-11-19 18:19:44 13.85 ℃ 100 % 1022.37 hPa
2021-11-19 18:09:44 13.81 ℃ 100 % 1022.29 hPa
2021-11-19 17:59:44 13.95 ℃ 100 % 1022.24 hPa
2021-11-19 17:49:44 14 ℃ 100 % 1022.15 hPa
2021-11-19 17:39:44 14 ℃ 100 % 1022.11 hPa
2021-11-19 17:29:44 13.89 ℃ 100 % 1022.11 hPa
2021-11-19 17:19:44 13.85 ℃ 100 % 1022.13 hPa
2021-11-19 17:09:44 13.83 ℃ 100 % 1022.11 hPa
2021-11-19 16:59:44 13.87 ℃ 100 % 1022.03 hPa
2021-11-19 16:49:44 13.8 ℃ 100 % 1021.99 hPa
2021-11-19 16:39:44 13.95 ℃ 100 % 1021.96 hPa
2021-11-19 16:29:44 14.06 ℃ 100 % 1021.97 hPa
2021-11-19 16:19:44 13.98 ℃ 100 % 1021.99 hPa
2021-11-19 16:09:44 14.09 ℃ 100 % 1022.08 hPa
2021-11-19 15:59:44 14.16 ℃ 100 % 1022.09 hPa
2021-11-19 15:49:44 14.13 ℃ 100 % 1022.12 hPa
2021-11-19 15:39:44 14.14 ℃ 100 % 1022 hPa
2021-11-19 15:29:44 14.19 ℃ 100 % 1021.94 hPa
2021-11-19 15:19:44 14.18 ℃ 100 % 1021.9 hPa
2021-11-19 15:09:44 14.27 ℃ 100 % 1021.89 hPa
2021-11-19 14:59:44 14.18 ℃ 100 % 1021.86 hPa
2021-11-19 14:49:44 14.33 ℃ 100 % 1021.81 hPa
2021-11-19 14:39:44 14.26 ℃ 100 % 1021.86 hPa
2021-11-19 14:29:44 14.32 ℃ 100 % 1021.83 hPa
2021-11-19 14:19:44 14.29 ℃ 100 % 1021.85 hPa
2021-11-19 14:09:44 14.38 ℃ 100 % 1021.83 hPa
2021-11-19 13:59:45 14.25 ℃ 100 % 1021.79 hPa
2021-11-19 13:49:44 14.32 ℃ 100 % 1021.78 hPa
2021-11-19 13:39:45 14.32 ℃ 100 % 1021.85 hPa
2021-11-19 13:29:44 14.25 ℃ 100 % 1021.82 hPa
2021-11-19 13:19:44 14.28 ℃ 100 % 1021.88 hPa
2021-11-19 13:09:45 14.28 ℃ 100 % 1021.91 hPa
2021-11-19 12:59:45 14.23 ℃ 100 % 1021.89 hPa
2021-11-19 12:49:44 14.23 ℃ 100 % 1021.86 hPa
2021-11-19 12:39:45 14.31 ℃ 100 % 1021.86 hPa
2021-11-19 12:29:45 14.37 ℃ 100 % 1021.84 hPa
2021-11-19 12:19:45 14.38 ℃ 100 % 1021.87 hPa
2021-11-19 12:09:45 14.4 ℃ 100 % 1021.85 hPa
2021-11-19 11:59:45 14.36 ℃ 100 % 1021.8 hPa
2021-11-19 11:49:45 14.46 ℃ 100 % 1021.81 hPa
2021-11-19 11:39:45 14.4 ℃ 100 % 1021.86 hPa
2021-11-19 11:29:45 14.31 ℃ 100 % 1021.86 hPa
2021-11-19 11:19:45 14.21 ℃ 100 % 1021.86 hPa
2021-11-19 11:09:45 14.25 ℃ 100 % 1021.91 hPa
2021-11-19 10:59:45 14.24 ℃ 100 % 1021.88 hPa
2021-11-19 10:49:45 14.16 ℃ 100 % 1021.81 hPa
2021-11-19 10:39:45 14.09 ℃ 100 % 1021.77 hPa
2021-11-19 10:29:45 14.17 ℃ 100 % 1021.76 hPa
2021-11-19 10:19:45 14.16 ℃ 100 % 1021.74 hPa
2021-11-19 10:09:45 14.05 ℃ 100 % 1021.66 hPa
2021-11-19 09:59:45 14.02 ℃ 100 % 1021.62 hPa
2021-11-19 09:49:45 13.99 ℃ 100 % 1021.55 hPa
2021-11-19 09:39:45 14.03 ℃ 100 % 1021.54 hPa
2021-11-19 09:29:45 13.99 ℃ 100 % 1021.49 hPa
2021-11-19 09:19:45 14.04 ℃ 100 % 1021.43 hPa
2021-11-19 09:09:45 13.94 ℃ 100 % 1021.33 hPa
2021-11-19 08:59:45 13.94 ℃ 100 % 1021.29 hPa
2021-11-19 08:49:45 13.92 ℃ 100 % 1021.17 hPa
2021-11-19 08:39:45 13.88 ℃ 100 % 1021.13 hPa
2021-11-19 08:29:45 13.86 ℃ 100 % 1021.07 hPa
2021-11-19 08:19:45 13.79 ℃ 100 % 1021.01 hPa
2021-11-19 08:09:45 13.7 ℃ 100 % 1020.9 hPa
2021-11-19 07:59:45 13.79 ℃ 100 % 1020.82 hPa
2021-11-19 07:49:45 13.74 ℃ 100 % 1020.74 hPa
2021-11-19 07:39:45 13.8 ℃ 100 % 1020.69 hPa
2021-11-19 07:29:45 13.81 ℃ 100 % 1020.65 hPa
2021-11-19 07:19:45 13.85 ℃ 100 % 1020.6 hPa
2021-11-19 07:09:45 13.87 ℃ 100 % 1020.6 hPa
2021-11-19 06:59:45 13.89 ℃ 100 % 1020.61 hPa
2021-11-19 06:49:45 13.82 ℃ 100 % 1020.64 hPa
2021-11-19 06:39:45 13.85 ℃ 100 % 1020.6 hPa
2021-11-19 06:29:45 13.77 ℃ 100 % 1020.61 hPa
2021-11-19 06:19:45 13.95 ℃ 100 % 1020.56 hPa
2021-11-19 06:09:45 13.93 ℃ 100 % 1020.56 hPa
2021-11-19 05:59:45 13.83 ℃ 100 % 1020.65 hPa
2021-11-19 05:49:45 13.89 ℃ 100 % 1020.63 hPa
2021-11-19 05:39:45 13.82 ℃ 100 % 1020.56 hPa
2021-11-19 05:29:45 13.84 ℃ 100 % 1020.61 hPa
2021-11-19 05:19:45 13.83 ℃ 100 % 1020.64 hPa
2021-11-19 05:09:45 13.89 ℃ 100 % 1020.56 hPa
2021-11-19 04:59:45 13.89 ℃ 100 % 1020.55 hPa
2021-11-19 04:49:45 13.77 ℃ 100 % 1020.54 hPa
2021-11-19 04:39:45 13.95 ℃ 100 % 1020.4 hPa
2021-11-19 04:29:45 13.83 ℃ 100 % 1020.37 hPa
2021-11-19 04:19:45 13.85 ℃ 100 % 1020.28 hPa
2021-11-19 04:09:45 13.91 ℃ 100 % 1020.15 hPa
2021-11-19 03:59:45 13.87 ℃ 100 % 1020.18 hPa
2021-11-19 03:49:45 13.87 ℃ 100 % 1020.14 hPa
2021-11-19 03:39:45 13.78 ℃ 100 % 1020.14 hPa
2021-11-19 03:29:45 13.74 ℃ 100 % 1020.17 hPa
2021-11-19 03:19:45 13.59 ℃ 100 % 1020.24 hPa
2021-11-19 03:09:45 13.64 ℃ 100 % 1020.29 hPa
2021-11-19 02:59:45 13.67 ℃ 100 % 1020.31 hPa
2021-11-19 02:49:45 13.67 ℃ 100 % 1020.4 hPa
2021-11-19 02:39:45 13.73 ℃ 100 % 1020.33 hPa
2021-11-19 02:29:45 13.69 ℃ 100 % 1020.28 hPa
2021-11-19 02:19:46 13.71 ℃ 100 % 1020.24 hPa
2021-11-19 02:09:45 13.68 ℃ 100 % 1020.22 hPa
2021-11-19 01:59:46 13.71 ℃ 100 % 1020.1 hPa
2021-11-19 01:49:45 13.67 ℃ 100 % 1020 hPa
2021-11-19 01:39:46 13.67 ℃ 100 % 1019.92 hPa
2021-11-19 01:29:46 13.69 ℃ 100 % 1019.9 hPa
2021-11-19 01:19:46 13.67 ℃ 100 % 1019.86 hPa
2021-11-19 01:09:46 13.66 ℃ 100 % 1019.93 hPa
2021-11-19 00:59:46 13.51 ℃ 100 % 1019.98 hPa
2021-11-19 00:49:46 13.54 ℃ 100 % 1020.03 hPa
2021-11-19 00:39:46 13.49 ℃ 100 % 1020.09 hPa
2021-11-19 00:29:46 13.55 ℃ 100 % 1020.23 hPa
2021-11-19 00:19:46 13.65 ℃ 100 % 1020.33 hPa
2021-11-19 00:09:46 13.71 ℃ 100 % 1020.34 hPa
2021-11-18 23:59:46 13.55 ℃ 100 % 1020.22 hPa
2021-11-18 23:49:46 13.63 ℃ 100 % 1020.05 hPa
2021-11-18 23:39:46 13.38 ℃ 100 % 1020 hPa
2021-11-18 23:29:46 13.41 ℃ 100 % 1020.03 hPa
2021-11-18 23:19:46 13.38 ℃ 100 % 1020.01 hPa
2021-11-18 23:09:46 13.39 ℃ 100 % 1019.85 hPa
2021-11-18 22:59:46 13.32 ℃ 100 % 1019.8 hPa
2021-11-18 22:49:46 13.31 ℃ 100 % 1019.77 hPa
2021-11-18 22:39:46 13.25 ℃ 100 % 1019.81 hPa
2021-11-18 22:29:46 13.26 ℃ 100 % 1019.78 hPa
2021-11-18 22:19:46 13.23 ℃ 100 % 1019.69 hPa
2021-11-18 22:09:46 13.16 ℃ 100 % 1019.82 hPa
2021-11-18 21:59:46 13.14 ℃ 100 % 1019.76 hPa
2021-11-18 21:49:46 13.08 ℃ 100 % 1019.67 hPa
2021-11-18 21:39:46 13.1 ℃ 100 % 1019.65 hPa
2021-11-18 21:29:46 13.01 ℃ 100 % 1019.63 hPa
2021-11-18 21:19:46 13 ℃ 100 % 1019.65 hPa
2021-11-18 21:09:46 12.91 ℃ 100 % 1019.63 hPa
2021-11-18 20:59:46 12.87 ℃ 100 % 1019.63 hPa
2021-11-18 20:49:46 12.83 ℃ 100 % 1019.67 hPa
2021-11-18 20:39:46 12.75 ℃ 100 % 1019.77 hPa
2021-11-18 20:29:46 12.75 ℃ 100 % 1019.84 hPa
2021-11-18 20:19:46 12.72 ℃ 100 % 1019.86 hPa
2021-11-18 20:09:46 12.67 ℃ 100 % 1019.94 hPa
2021-11-18 19:59:46 12.67 ℃ 100 % 1019.96 hPa
2021-11-18 19:49:46 12.69 ℃ 100 % 1019.96 hPa
2021-11-18 19:39:46 12.59 ℃ 100 % 1019.89 hPa
2021-11-18 19:29:46 12.62 ℃ 100 % 1019.81 hPa
2021-11-18 19:19:46 12.63 ℃ 100 % 1019.69 hPa
2021-11-18 19:09:46 12.76 ℃ 100 % 1019.46 hPa
2021-11-18 18:59:46 12.86 ℃ 100 % 1019.29 hPa
2021-11-18 18:49:46 12.81 ℃ 100 % 1019.15 hPa
2021-11-18 18:39:46 12.64 ℃ 100 % 1019 hPa
2021-11-18 18:29:46 12.57 ℃ 100 % 1018.94 hPa
2021-11-18 18:19:46 12.54 ℃ 100 % 1018.92 hPa
2021-11-18 18:09:46 11.96 ℃ 100 % 1018.84 hPa
2021-11-18 17:59:46 11.94 ℃ 100 % 1018.83 hPa
2021-11-18 17:49:46 11.82 ℃ 100 % 1018.84 hPa
2021-11-18 17:39:46 11.82 ℃ 100 % 1018.88 hPa
2021-11-18 17:29:46 11.73 ℃ 100 % 1018.81 hPa
2021-11-18 17:19:46 11.66 ℃ 100 % 1018.84 hPa
2021-11-18 17:09:46 11.6 ℃ 100 % 1018.89 hPa
2021-11-18 16:59:46 11.48 ℃ 100 % 1019.03 hPa
2021-11-18 16:49:46 11.43 ℃ 100 % 1019.06 hPa
2021-11-18 16:39:46 11.44 ℃ 100 % 1019.08 hPa
2021-11-18 16:29:47 11.31 ℃ 100 % 1019.06 hPa
2021-11-18 16:19:46 11.19 ℃ 100 % 1019.07 hPa
2021-11-18 16:09:46 11.16 ℃ 100 % 1019.06 hPa
2021-11-18 15:59:46 11.06 ℃ 100 % 1019.13 hPa
2021-11-18 15:49:46 11.04 ℃ 100 % 1019.14 hPa
2021-11-18 15:39:46 11.08 ℃ 100 % 1019.19 hPa
2021-11-18 15:29:47 11.1 ℃ 100 % 1019.23 hPa
2021-11-18 15:19:47 11.13 ℃ 100 % 1019.22 hPa
2021-11-18 15:09:47 11.17 ℃ 100 % 1019.24 hPa
2021-11-18 14:59:47 11.13 ℃ 100 % 1019.32 hPa
2021-11-18 14:49:47 11.21 ℃ 100 % 1019.4 hPa
2021-11-18 14:39:47 11.16 ℃ 100 % 1019.39 hPa
2021-11-18 14:29:47 11.21 ℃ 100 % 1019.37 hPa
2021-11-18 14:19:47 11.22 ℃ 100 % 1019.46 hPa
2021-11-18 14:09:47 11.23 ℃ 100 % 1019.56 hPa
2021-11-18 13:59:47 11.22 ℃ 100 % 1019.66 hPa
2021-11-18 13:49:47 11.29 ℃ 100 % 1019.77 hPa
2021-11-18 13:39:47 11.43 ℃ 100 % 1019.93 hPa
2021-11-18 13:29:47 11.47 ℃ 100 % 1019.99 hPa
2021-11-18 13:19:47 11.51 ℃ 100 % 1020.14 hPa
2021-11-18 13:09:47 11.53 ℃ 100 % 1020.29 hPa
2021-11-18 12:59:47 11.78 ℃ 100 % 1020.41 hPa
2021-11-18 12:49:47 11.86 ℃ 100 % 1020.43 hPa
2021-11-15 02:22:15 10.1 ℃ 100 % 1031.22 hPa
2021-11-15 02:12:15 10.05 ℃ 100 % 1031.19 hPa
2021-11-15 02:02:15 10.12 ℃ 100 % 1031.19 hPa
2021-11-15 01:52:15 10.28 ℃ 100 % 1031.16 hPa
2021-11-15 01:42:15 10.22 ℃ 100 % 1031.14 hPa
2021-11-15 01:32:16 10.16 ℃ 100 % 1031.17 hPa
2021-11-15 01:22:15 10.29 ℃ 100 % 1031.25 hPa
2021-11-15 01:12:15 10.37 ℃ 100 % 1031.33 hPa
2021-11-15 01:02:16 10.32 ℃ 100 % 1031.38 hPa
2021-11-15 00:52:16 10.23 ℃ 100 % 1031.44 hPa
2021-11-15 00:42:16 10.38 ℃ 100 % 1031.51 hPa
2021-11-15 00:32:16 10.44 ℃ 100 % 1031.56 hPa
2021-11-15 00:22:16 10.47 ℃ 100 % 1031.65 hPa
2021-11-15 00:12:16 10.47 ℃ 100 % 1031.72 hPa
2021-11-15 00:02:16 10.43 ℃ 100 % 1031.72 hPa
2021-11-14 23:52:16 10.43 ℃ 100 % 1031.71 hPa
2021-11-14 23:42:16 10.41 ℃ 100 % 1031.65 hPa
2021-11-14 23:32:16 10.34 ℃ 100 % 1031.6 hPa
2021-11-14 23:22:16 10.31 ℃ 100 % 1031.57 hPa
2021-11-14 23:12:16 10.24 ℃ 100 % 1031.58 hPa
2021-11-14 23:02:16 10.34 ℃ 100 % 1031.63 hPa
2021-11-14 22:52:16 10.32 ℃ 100 % 1031.66 hPa
2021-11-14 22:42:16 10.36 ℃ 100 % 1031.67 hPa
2021-11-14 22:32:16 10.51 ℃ 100 % 1031.64 hPa
2021-11-14 22:22:16 10.47 ℃ 100 % 1031.62 hPa
2021-11-14 22:12:16 10.36 ℃ 100 % 1031.59 hPa
2021-11-14 22:02:16 10.27 ℃ 100 % 1031.58 hPa
2021-11-14 21:52:16 10.49 ℃ 100 % 1031.59 hPa
2021-11-14 21:42:16 10.5 ℃ 100 % 1031.55 hPa
2021-11-14 21:32:16 10.57 ℃ 100 % 1031.56 hPa
2021-11-14 21:22:16 10.65 ℃ 100 % 1031.53 hPa
2021-11-14 21:12:16 10.68 ℃ 100 % 1031.5 hPa
2021-11-14 21:02:16 10.76 ℃ 100 % 1031.41 hPa
2021-11-14 20:52:16 10.25 ℃ 100 % 1031.32 hPa
2021-11-14 20:42:16 10.34 ℃ 100 % 1031.26 hPa
2021-11-14 20:32:16 10.48 ℃ 100 % 1031.15 hPa
2021-11-14 20:22:16 10.26 ℃ 100 % 1031.14 hPa
2021-11-14 20:12:16 10.31 ℃ 100 % 1031 hPa
2021-11-14 20:02:16 10.45 ℃ 100 % 1030.88 hPa
2021-11-14 19:52:16 10.5 ℃ 100 % 1030.76 hPa
2021-11-14 19:42:16 10.43 ℃ 100 % 1030.71 hPa
2021-11-14 19:32:16 10.4 ℃ 100 % 1030.64 hPa
2021-11-14 19:22:16 10.52 ℃ 100 % 1030.65 hPa
2021-11-14 19:12:16 10.25 ℃ 100 % 1030.59 hPa
2021-11-14 19:02:16 9.82 ℃ 100 % 1030.54 hPa
2021-11-14 18:52:16 10.01 ℃ 100 % 1030.38 hPa
2021-11-14 18:42:16 10.03 ℃ 100 % 1030.23 hPa
2021-11-14 18:32:16 10.11 ℃ 100 % 1030.12 hPa
2021-11-14 18:22:16 10.04 ℃ 100 % 1030.04 hPa
2021-11-14 18:12:16 10.17 ℃ 100 % 1029.89 hPa
2021-11-14 18:02:16 10.33 ℃ 100 % 1029.87 hPa
2021-11-14 17:52:16 10.39 ℃ 100 % 1029.8 hPa
2021-11-14 17:42:16 10.37 ℃ 100 % 1029.76 hPa
2021-11-14 17:32:16 10.18 ℃ 100 % 1029.73 hPa
2021-11-14 17:22:16 10.33 ℃ 100 % 1029.66 hPa
2021-11-14 17:12:16 10.37 ℃ 100 % 1029.62 hPa
2021-11-14 17:02:16 10.35 ℃ 100 % 1029.47 hPa
2021-11-14 16:52:16 10.46 ℃ 100 % 1029.37 hPa
2021-11-14 16:42:16 10.33 ℃ 100 % 1029.32 hPa
2021-11-14 16:32:16 10.24 ℃ 100 % 1029.24 hPa
2021-11-14 16:22:16 10.3 ℃ 100 % 1029.16 hPa
2021-11-14 16:12:16 10.17 ℃ 100 % 1029.16 hPa
2021-11-14 16:02:16 10.29 ℃ 100 % 1029.08 hPa
2021-11-14 15:52:16 10.33 ℃ 100 % 1029.03 hPa
2021-11-14 15:42:16 10.42 ℃ 100 % 1028.98 hPa
2021-11-14 15:32:16 10.51 ℃ 100 % 1028.98 hPa
2021-11-14 15:22:16 10.49 ℃ 100 % 1028.89 hPa
2021-11-14 15:12:16 10.51 ℃ 100 % 1028.8 hPa
2021-11-14 15:02:16 10.51 ℃ 100 % 1028.74 hPa
2021-11-14 14:52:16 10.49 ℃ 100 % 1028.67 hPa
2021-11-14 14:42:17 10.47 ℃ 100 % 1028.6 hPa
2021-11-14 14:32:17 10.73 ℃ 100 % 1028.53 hPa
2021-11-14 14:22:17 10.77 ℃ 100 % 1028.47 hPa
2021-11-14 14:12:17 10.58 ℃ 100 % 1028.5 hPa
2021-11-14 14:02:17 10.71 ℃ 100 % 1028.49 hPa
2021-11-14 13:52:17 10.73 ℃ 100 % 1028.44 hPa
2021-11-14 13:42:17 10.7 ℃ 100 % 1028.31 hPa
2021-11-14 13:32:17 10.73 ℃ 100 % 1028.21 hPa
2021-11-14 13:22:17 10.86 ℃ 100 % 1028.11 hPa
2021-11-14 13:12:17 10.63 ℃ 100 % 1028.04 hPa
2021-11-14 13:02:17 10.61 ℃ 100 % 1027.96 hPa
2021-11-14 12:52:17 10.71 ℃ 100 % 1027.91 hPa
2021-11-14 12:42:17 10.55 ℃ 100 % 1027.86 hPa
2021-11-14 12:32:17 10.58 ℃ 100 % 1027.79 hPa
2021-11-14 12:22:17 10.52 ℃ 100 % 1027.75 hPa
2021-11-14 12:12:17 10.47 ℃ 100 % 1027.7 hPa
2021-11-14 12:02:17 10.39 ℃ 100 % 1027.65 hPa
2021-11-14 11:52:17 10.52 ℃ 100 % 1027.58 hPa
2021-11-14 11:42:17 10.42 ℃ 100 % 1027.53 hPa
2021-11-14 11:32:17 10.53 ℃ 100 % 1027.4 hPa
2021-11-14 11:22:17 10.67 ℃ 100 % 1027.3 hPa
2021-11-14 11:12:17 10.82 ℃ 100 % 1027.27 hPa
2021-11-14 11:02:17 10.68 ℃ 100 % 1027.23 hPa
2021-11-14 10:52:17 10.6 ℃ 100 % 1027.14 hPa
2021-11-14 10:42:17 10.45 ℃ 100 % 1027.04 hPa
2021-11-14 10:32:17 10.4 ℃ 100 % 1026.9 hPa
2021-11-14 10:22:17 10.31 ℃ 100 % 1026.75 hPa
2021-11-14 10:12:17 10.36 ℃ 100 % 1026.63 hPa
2021-11-14 10:02:17 10.35 ℃ 100 % 1026.5 hPa
2021-11-14 09:52:17 10.26 ℃ 100 % 1026.38 hPa
2021-11-14 09:42:17 10.46 ℃ 100 % 1026.18 hPa
2021-11-14 09:32:17 10.61 ℃ 100 % 1026.01 hPa
2021-11-14 09:22:17 10.61 ℃ 100 % 1025.91 hPa
2021-11-14 09:12:17 10.46 ℃ 100 % 1025.76 hPa
2021-11-14 09:02:17 10.33 ℃ 100 % 1025.63 hPa
2021-11-14 08:52:17 10.46 ℃ 100 % 1025.52 hPa
2021-11-14 08:42:17 10.42 ℃ 100 % 1025.38 hPa
2021-11-14 08:32:17 10.56 ℃ 100 % 1025.2 hPa
2021-11-14 08:22:17 10.63 ℃ 100 % 1025.07 hPa
2021-11-14 08:12:17 10.31 ℃ 100 % 1024.93 hPa
2021-11-14 08:02:17 10.12 ℃ 100 % 1024.83 hPa
2021-11-14 07:52:17 10.08 ℃ 100 % 1024.66 hPa
2021-11-14 07:42:17 10.1 ℃ 100 % 1024.45 hPa
2021-11-14 07:32:17 10.06 ℃ 100 % 1024.25 hPa
2021-11-14 07:22:17 10.01 ℃ 100 % 1024.03 hPa
2021-11-14 07:12:17 9.81 ℃ 100 % 1023.9 hPa
2021-11-14 07:02:17 9.91 ℃ 100 % 1023.79 hPa
2021-11-14 06:52:17 10.11 ℃ 100 % 1023.71 hPa
2021-11-14 06:42:17 10.07 ℃ 100 % 1023.58 hPa
2021-11-14 06:32:17 10.36 ℃ 100 % 1023.46 hPa
2021-11-14 06:22:17 10.12 ℃ 100 % 1023.39 hPa
2021-11-14 06:12:17 10.08 ℃ 100 % 1023.31 hPa
2021-11-14 06:02:17 9.9 ℃ 100 % 1023.22 hPa
2021-11-14 05:52:17 9.88 ℃ 100 % 1023.11 hPa
2021-11-14 05:42:17 9.95 ℃ 100 % 1023.04 hPa
2021-11-14 05:32:17 9.95 ℃ 100 % 1022.95 hPa
2021-11-14 05:22:17 9.91 ℃ 100 % 1022.88 hPa
2021-11-14 05:12:17 9.88 ℃ 100 % 1022.78 hPa
2021-11-14 05:02:18 10.06 ℃ 100 % 1022.67 hPa
2021-11-14 04:52:18 9.86 ℃ 100 % 1022.6 hPa
2021-11-14 04:42:17 9.78 ℃ 100 % 1022.51 hPa
2021-11-14 04:32:17 9.62 ℃ 100 % 1022.43 hPa
2021-11-14 04:22:17 9.74 ℃ 100 % 1022.34 hPa
2021-11-14 04:12:18 9.69 ℃ 100 % 1022.25 hPa
2021-11-14 04:02:17 9.64 ℃ 100 % 1022.17 hPa
2021-11-14 03:52:18 9.43 ℃ 100 % 1022.1 hPa
2021-11-14 03:42:18 9.31 ℃ 100 % 1022.03 hPa
2021-11-14 03:32:18 9.24 ℃ 100 % 1021.96 hPa
2021-11-14 03:22:18 9.24 ℃ 100 % 1021.89 hPa
2021-11-14 03:12:18 9.23 ℃ 100 % 1021.81 hPa
2021-11-14 03:02:18 9.21 ℃ 100 % 1021.73 hPa
2021-11-14 02:52:18 9.05 ℃ 100 % 1021.61 hPa
2021-11-14 02:42:18 9.09 ℃ 100 % 1021.49 hPa
2021-11-14 02:32:18 8.98 ℃ 100 % 1021.37 hPa
2021-11-14 02:22:18 9.05 ℃ 100 % 1021.26 hPa
2021-11-14 02:12:18 9.11 ℃ 100 % 1021.18 hPa
2021-11-14 02:02:18 9.09 ℃ 100 % 1021.04 hPa
2021-11-14 01:52:18 9.2 ℃ 100 % 1020.95 hPa
2021-11-14 01:42:18 8.93 ℃ 100 % 1020.9 hPa
2021-11-14 01:32:18 8.93 ℃ 100 % 1020.86 hPa
2021-11-14 01:22:18 9 ℃ 100 % 1020.82 hPa
2021-11-14 01:12:18 9.15 ℃ 100 % 1020.82 hPa
2021-11-14 01:02:18 9.14 ℃ 100 % 1020.76 hPa
2021-11-14 00:52:18 9.09 ℃ 100 % 1020.65 hPa
2021-11-14 00:42:18 9.03 ℃ 100 % 1020.55 hPa
2021-11-14 00:32:18 9.11 ℃ 100 % 1020.42 hPa
2021-11-14 00:22:18 9.12 ℃ 100 % 1020.31 hPa
2021-11-14 00:12:18 9.23 ℃ 100 % 1020.2 hPa
2021-11-14 00:02:18 9.54 ℃ 100 % 1020.05 hPa
2021-11-13 23:52:18 9.57 ℃ 100 % 1019.97 hPa
2021-11-13 23:42:18 9.51 ℃ 100 % 1019.95 hPa
2021-11-13 23:32:18 9.39 ℃ 100 % 1019.91 hPa
2021-11-13 23:22:18 9.17 ℃ 100 % 1019.85 hPa
2021-11-13 23:12:18 9.3 ℃ 100 % 1019.77 hPa
2021-11-13 23:02:18 9.48 ℃ 100 % 1019.71 hPa
2021-11-13 22:52:18 9.56 ℃ 100 % 1019.7 hPa
2021-11-13 22:42:18 9.75 ℃ 100 % 1019.63 hPa
2021-11-13 22:32:18 10.44 ℃ 100 % 1019.47 hPa
2021-11-13 22:22:18 9.97 ℃ 100 % 1019.38 hPa
2021-11-13 22:12:18 10.1 ℃ 100 % 1019.26 hPa
2021-11-13 22:02:18 9.69 ℃ 100 % 1019.2 hPa
2021-11-13 21:52:18 9.56 ℃ 100 % 1019.09 hPa
2021-11-13 21:42:18 9.73 ℃ 100 % 1018.98 hPa
2021-11-13 21:32:18 10.12 ℃ 100 % 1018.83 hPa
2021-11-13 21:22:18 10.43 ℃ 100 % 1018.67 hPa
2021-11-13 21:12:18 10.48 ℃ 100 % 1018.52 hPa
2021-11-13 21:02:18 10.23 ℃ 100 % 1018.4 hPa
2021-11-13 20:52:18 10.13 ℃ 100 % 1018.29 hPa
2021-11-13 20:42:18 9.79 ℃ 100 % 1018.26 hPa
2021-11-13 20:32:18 9.4 ℃ 100 % 1018.25 hPa
2021-11-13 20:22:18 8.89 ℃ 100 % 1018.19 hPa
2021-11-13 20:12:18 8.93 ℃ 100 % 1018.1 hPa
2021-11-13 20:02:18 9.21 ℃ 100 % 1018.01 hPa
2021-11-13 19:52:18 9.52 ℃ 100 % 1017.91 hPa
2021-11-13 19:42:18 9.45 ℃ 100 % 1017.85 hPa
2021-11-13 19:32:18 9.15 ℃ 100 % 1017.79 hPa
2021-11-13 19:22:18 9 ℃ 100 % 1017.67 hPa
2021-11-13 19:12:19 9.04 ℃ 100 % 1017.51 hPa
2021-11-13 19:02:19 9.28 ℃ 100 % 1017.38 hPa
2021-11-13 18:52:18 9.37 ℃ 100 % 1017.26 hPa
2021-11-13 18:42:19 9.39 ℃ 100 % 1017.14 hPa
2021-11-13 18:32:18 9.26 ℃ 100 % 1016.98 hPa
2021-11-13 18:22:18 9.21 ℃ 100 % 1016.86 hPa
2021-11-13 18:12:18 9.7 ℃ 100 % 1016.71 hPa
2021-11-13 18:02:19 9.62 ℃ 100 % 1016.61 hPa
2021-11-13 17:52:18 9.59 ℃ 100 % 1016.52 hPa
2021-11-13 17:42:19 10.06 ℃ 100 % 1016.41 hPa
2021-11-13 17:32:18 9.89 ℃ 100 % 1016.31 hPa
2021-11-13 17:22:18 9.47 ℃ 100 % 1016.2 hPa
2021-11-13 17:12:19 9.49 ℃ 100 % 1016.1 hPa
2021-11-13 17:02:19 9.46 ℃ 100 % 1015.98 hPa
2021-11-13 16:52:19 9.68 ℃ 100 % 1015.91 hPa
2021-11-13 16:42:19 9.96 ℃ 100 % 1015.81 hPa
2021-11-13 16:32:19 9.88 ℃ 100 % 1015.69 hPa
2021-11-13 16:22:19 9.84 ℃ 100 % 1015.57 hPa
2021-11-13 16:12:19 9.61 ℃ 100 % 1015.49 hPa
2021-11-13 16:02:19 9.67 ℃ 100 % 1015.38 hPa
2021-11-13 15:52:19 9.64 ℃ 100 % 1015.33 hPa
2021-11-13 15:42:19 9.89 ℃ 100 % 1015.23 hPa
2021-11-13 15:32:19 10.16 ℃ 100 % 1015.13 hPa
2021-11-13 15:22:19 10.46 ℃ 100 % 1015 hPa
2021-11-13 15:12:19 10.16 ℃ 100 % 1014.9 hPa
2021-11-13 15:02:19 9.66 ℃ 100 % 1014.82 hPa
2021-11-13 14:52:19 9.41 ℃ 100 % 1014.74 hPa
2021-11-13 14:42:19 9.37 ℃ 100 % 1014.69 hPa
2021-11-13 14:32:19 9.56 ℃ 100 % 1014.64 hPa
2021-11-13 14:22:19 9.78 ℃ 100 % 1014.59 hPa
2021-11-13 14:12:19 9.71 ℃ 100 % 1014.56 hPa
2021-11-13 14:02:19 9.78 ℃ 100 % 1014.57 hPa
2021-11-13 13:52:19 9.88 ℃ 100 % 1014.53 hPa
2021-11-13 13:42:19 9.85 ℃ 100 % 1014.52 hPa
2021-11-13 13:32:19 10.24 ℃ 100 % 1014.45 hPa
2021-11-13 13:22:19 9.88 ℃ 100 % 1014.44 hPa
2021-11-13 13:12:19 9.58 ℃ 100 % 1014.42 hPa
2021-11-13 13:02:19 9.62 ℃ 100 % 1014.39 hPa
2021-11-13 12:52:19 9.21 ℃ 100 % 1014.35 hPa
2021-11-13 12:42:19 9.16 ℃ 100 % 1014.25 hPa
2021-11-13 12:32:19 9.1 ℃ 100 % 1014.2 hPa
2021-11-13 12:22:19 9.05 ℃ 100 % 1014.16 hPa
2021-11-13 12:12:19 8.83 ℃ 100 % 1014.16 hPa
2021-11-13 12:02:19 8.89 ℃ 100 % 1014.15 hPa
2021-11-13 11:52:19 8.71 ℃ 100 % 1014.12 hPa
2021-11-13 11:42:19 8.85 ℃ 100 % 1014.12 hPa
2021-11-13 11:32:19 8.82 ℃ 100 % 1014.1 hPa
2021-11-13 11:22:19 8.77 ℃ 100 % 1014.06 hPa
2021-11-13 11:12:19 8.71 ℃ 100 % 1014.05 hPa
2021-11-13 11:02:19 8.58 ℃ 100 % 1014.03 hPa
2021-11-13 10:52:19 8.65 ℃ 100 % 1013.99 hPa
2021-11-13 10:42:19 8.43 ℃ 100 % 1013.92 hPa
2021-11-13 10:32:19 8.37 ℃ 100 % 1013.79 hPa
2021-11-13 10:22:19 8.37 ℃ 100 % 1013.69 hPa
2021-11-13 10:12:19 8.37 ℃ 100 % 1013.6 hPa
2021-11-13 10:02:19 8.07 ℃ 100 % 1013.52 hPa
2021-11-13 09:52:19 8.05 ℃ 100 % 1013.51 hPa
2021-11-13 09:42:19 8.08 ℃ 100 % 1013.55 hPa
2021-11-13 09:32:19 8.06 ℃ 100 % 1013.53 hPa
2021-11-13 09:22:19 8.17 ℃ 100 % 1013.48 hPa
2021-11-13 09:12:19 8.06 ℃ 100 % 1013.41 hPa
2021-11-13 09:02:19 8.21 ℃ 100 % 1013.29 hPa
2021-11-13 08:52:19 8.18 ℃ 100 % 1013.17 hPa
2021-11-13 08:42:19 8.01 ℃ 100 % 1013.06 hPa
2021-11-13 08:32:19 8.06 ℃ 100 % 1012.97 hPa
2021-11-13 08:22:19 7.98 ℃ 100 % 1012.85 hPa
2021-11-13 08:12:19 8.07 ℃ 100 % 1012.78 hPa
2021-11-13 08:02:20 7.81 ℃ 100 % 1012.69 hPa
2021-11-13 07:52:19 7.67 ℃ 100 % 1012.51 hPa
2021-11-13 07:42:19 7.58 ℃ 100 % 1012.36 hPa
2021-11-13 07:32:19 7.51 ℃ 100 % 1012.22 hPa
2021-11-13 07:22:19 7.45 ℃ 100 % 1012.13 hPa
2021-11-13 07:12:19 7.7 ℃ 100 % 1012.1 hPa
2021-11-13 07:02:19 7.59 ℃ 100 % 1012.06 hPa
2021-11-13 06:52:19 7.6 ℃ 100 % 1012.07 hPa
2021-11-13 06:42:20 7.45 ℃ 100 % 1012.07 hPa
2021-11-13 06:32:20 7.58 ℃ 100 % 1012.04 hPa
2021-11-13 06:22:20 7.65 ℃ 100 % 1011.96 hPa
2021-11-13 06:12:20 7.62 ℃ 100 % 1011.89 hPa
2021-11-13 06:02:20 7.57 ℃ 100 % 1011.89 hPa
2021-11-13 05:52:20 7.6 ℃ 100 % 1011.85 hPa
2021-11-13 05:42:20 7.66 ℃ 100 % 1011.75 hPa
2021-11-13 05:32:20 7.71 ℃ 100 % 1011.7 hPa
2021-11-13 05:22:20 7.76 ℃ 100 % 1011.7 hPa
2021-11-13 05:12:20 7.62 ℃ 100 % 1011.66 hPa
2021-11-13 05:02:20 7.67 ℃ 100 % 1011.6 hPa
2021-11-13 04:52:20 7.94 ℃ 100 % 1011.62 hPa
2021-11-13 04:42:20 7.89 ℃ 100 % 1011.62 hPa
2021-11-13 04:32:20 7.95 ℃ 100 % 1011.64 hPa
2021-11-13 04:22:20 7.89 ℃ 100 % 1011.7 hPa
2021-11-13 04:12:20 7.44 ℃ 100 % 1011.75 hPa
2021-11-13 04:02:20 7.58 ℃ 100 % 1011.78 hPa
2021-11-13 03:52:20 7.69 ℃ 100 % 1011.78 hPa
2021-11-13 03:42:20 7.57 ℃ 100 % 1011.72 hPa
2021-11-13 03:32:20 7.53 ℃ 100 % 1011.78 hPa
2021-11-13 03:22:20 7.54 ℃ 100 % 1011.82 hPa
2021-11-13 03:12:20 7.53 ℃ 100 % 1011.89 hPa
2021-11-13 03:02:20 7.46 ℃ 100 % 1011.92 hPa
2021-11-13 02:52:20 7.38 ℃ 100 % 1011.98 hPa
2021-11-13 02:42:20 7.37 ℃ 100 % 1011.97 hPa
2021-11-13 02:32:20 7.37 ℃ 100 % 1011.99 hPa
2021-11-13 02:22:20 7.35 ℃ 100 % 1012.03 hPa
2021-11-13 02:12:20 7.62 ℃ 100 % 1011.98 hPa
2021-11-13 02:02:20 7.41 ℃ 100 % 1011.93 hPa
2021-11-13 01:52:20 7.53 ℃ 100 % 1011.93 hPa
2021-11-13 01:42:20 7.42 ℃ 100 % 1011.96 hPa
2021-11-13 01:32:20 7.4 ℃ 100 % 1012.03 hPa
2021-11-13 01:22:20 7.55 ℃ 100 % 1012.06 hPa
2021-11-13 01:12:20 7.65 ℃ 100 % 1012.13 hPa
2021-11-13 01:02:20 7.61 ℃ 100 % 1012.19 hPa
2021-11-13 00:52:20 7.6 ℃ 100 % 1012.3 hPa
2021-11-13 00:42:20 7.42 ℃ 100 % 1012.37 hPa
2021-11-13 00:32:20 7.42 ℃ 100 % 1012.43 hPa
2021-11-13 00:22:20 7.55 ℃ 100 % 1012.54 hPa
2021-11-13 00:12:20 7.51 ℃ 100 % 1012.58 hPa
2021-11-13 00:02:20 7.55 ℃ 100 % 1012.57 hPa
2021-11-12 23:52:20 7.57 ℃ 100 % 1012.65 hPa
2021-11-12 23:42:20 7.65 ℃ 100 % 1012.68 hPa
2021-11-12 23:32:20 7.69 ℃ 100 % 1012.83 hPa
2021-11-12 23:22:20 7.78 ℃ 100 % 1012.95 hPa
2021-11-12 23:12:20 7.72 ℃ 100 % 1013.02 hPa
2021-11-12 23:02:20 7.72 ℃ 100 % 1013.01 hPa
2021-11-12 22:52:20 7.84 ℃ 100 % 1013.05 hPa
2021-11-12 22:42:20 7.91 ℃ 100 % 1013.12 hPa
2021-11-12 22:32:20 7.99 ℃ 100 % 1013.14 hPa
2021-11-12 22:22:20 8.29 ℃ 100 % 1013.19 hPa
2021-11-12 22:12:20 8.38 ℃ 100 % 1013.26 hPa
2021-11-12 22:02:21 8.4 ℃ 100 % 1013.41 hPa
2021-11-12 21:52:20 8.54 ℃ 100 % 1013.57 hPa
2021-11-12 21:42:21 8.62 ℃ 100 % 1013.73 hPa
2021-11-12 21:32:20 9.01 ℃ 100 % 1013.85 hPa
2021-11-12 21:22:21 9.31 ℃ 100 % 1014.02 hPa
2021-11-12 21:12:20 9.14 ℃ 100 % 1014.12 hPa
2021-11-12 21:02:20 9.32 ℃ 100 % 1014.15 hPa
2021-11-12 20:52:20 9.57 ℃ 100 % 1014.14 hPa
2021-11-12 20:42:21 10.03 ℃ 100 % 1014.02 hPa
2021-11-12 20:32:21 10.47 ℃ 100 % 1013.99 hPa
2021-11-12 20:22:21 11.18 ℃ 100 % 1013.98 hPa
2021-11-12 20:12:21 10.61 ℃ 100 % 1014.13 hPa
2021-11-12 20:02:21 10.57 ℃ 100 % 1014.31 hPa
2021-11-12 19:52:21 10.78 ℃ 100 % 1014.43 hPa
2021-11-12 19:42:21 11.39 ℃ 100 % 1014.55 hPa
2021-11-12 19:32:21 12.05 ℃ 100 % 1014.69 hPa
2021-11-12 19:22:21 11.85 ℃ 100 % 1014.81 hPa
2021-11-12 19:12:21 11.17 ℃ 100 % 1014.96 hPa
2021-11-12 19:02:21 10.79 ℃ 100 % 1015 hPa
2021-11-12 18:52:21 10.79 ℃ 100 % 1015.08 hPa
2021-11-12 18:42:21 9.89 ℃ 100 % 1015.08 hPa
2021-11-12 18:32:21 9.95 ℃ 100 % 1015.06 hPa
2021-11-12 18:22:21 10.15 ℃ 100 % 1015.11 hPa
2021-11-12 18:12:21 10.25 ℃ 100 % 1015.18 hPa
2021-11-12 18:02:21 10.11 ℃ 100 % 1015.22 hPa
2021-11-12 17:52:23 10.11 ℃ 100 % 1015.08 hPa
2021-11-12 17:42:21 10.41 ℃ 100 % 1015.08 hPa
2021-11-12 17:32:21 10.38 ℃ 100 % 1015.06 hPa
2021-11-12 17:22:21 10.34 ℃ 100 % 1015.05 hPa
2021-11-12 17:12:21 10.49 ℃ 100 % 1015.12 hPa
2021-11-12 17:02:21 10.58 ℃ 100 % 1015.23 hPa
2021-11-12 16:52:21 10.74 ℃ 100 % 1015.33 hPa
2021-11-12 16:42:21 10.81 ℃ 100 % 1015.53 hPa
2021-11-12 16:32:21 11.08 ℃ 100 % 1015.75 hPa
2021-11-12 16:22:21 11.28 ℃ 100 % 1016.02 hPa
2021-11-12 16:12:21 11.57 ℃ 100 % 1016.24 hPa
2021-11-12 16:02:21 11.45 ℃ 100 % 1016.43 hPa
2021-11-12 15:52:21 11.58 ℃ 100 % 1016.54 hPa
2021-11-12 15:42:21 11.78 ℃ 100 % 1016.69 hPa
2021-11-12 15:32:21 11.9 ℃ 100 % 1016.94 hPa
2021-11-12 15:22:21 11.91 ℃ 100 % 1017.22 hPa
2021-11-12 15:12:21 11.93 ℃ 100 % 1017.41 hPa
2021-11-12 15:02:21 11.9 ℃ 100 % 1017.54 hPa
2021-11-12 14:52:21 12.04 ℃ 100 % 1017.66 hPa
2021-11-12 14:42:21 12.15 ℃ 100 % 1017.74 hPa
2021-11-12 14:32:21 12.15 ℃ 100 % 1017.8 hPa
2021-11-12 14:22:21 11.98 ℃ 100 % 1017.82 hPa
2021-11-12 14:12:21 11.95 ℃ 100 % 1017.9 hPa
2021-11-12 14:02:21 12.06 ℃ 100 % 1018.09 hPa
2021-11-12 13:52:21 11.99 ℃ 100 % 1018.24 hPa
2021-11-12 13:42:21 11.98 ℃ 100 % 1018.44 hPa
2021-11-12 13:32:21 12.04 ℃ 100 % 1018.6 hPa
2021-11-12 13:22:21 12.21 ℃ 100 % 1018.74 hPa
2021-11-12 13:12:21 12.53 ℃ 100 % 1018.9 hPa
2021-11-12 13:02:21 12.83 ℃ 100 % 1019.01 hPa
2021-11-12 12:52:21 13.05 ℃ 100 % 1019.12 hPa
2021-11-12 12:42:21 12.8 ℃ 100 % 1019.34 hPa
2021-11-12 12:32:21 12.8 ℃ 100 % 1019.49 hPa
2021-11-12 12:22:21 12.55 ℃ 100 % 1019.67 hPa
2021-11-12 12:12:21 12.3 ℃ 100 % 1019.87 hPa
2021-11-12 12:02:21 11.77 ℃ 100 % 1020.08 hPa
2021-11-12 11:52:21 11.56 ℃ 100 % 1020.19 hPa
2021-11-12 11:42:21 11.42 ℃ 100 % 1020.32 hPa
2021-11-12 11:32:21 11.1 ℃ 100 % 1020.4 hPa
2021-11-12 11:22:21 10.98 ℃ 100 % 1020.46 hPa
2021-11-12 11:12:21 10.66 ℃ 100 % 1020.52 hPa
2021-11-12 11:02:22 10.73 ℃ 100 % 1020.52 hPa
2021-11-12 10:52:21 10.92 ℃ 100 % 1020.59 hPa
2021-11-12 10:42:21 10.81 ℃ 100 % 1020.58 hPa
2021-11-12 10:32:21 10.75 ℃ 100 % 1020.62 hPa
2021-11-12 10:22:21 10.89 ℃ 100 % 1020.66 hPa
2021-11-12 10:12:22 11.04 ℃ 100 % 1020.62 hPa
2021-11-12 10:02:22 10.94 ℃ 100 % 1020.56 hPa
2021-11-12 09:52:22 11.07 ℃ 100 % 1020.63 hPa
2021-11-12 09:42:22 10.8 ℃ 100 % 1020.66 hPa
2021-11-12 09:32:22 10.92 ℃ 100 % 1020.62 hPa
2021-11-12 09:22:22 11.09 ℃ 100 % 1020.63 hPa
2021-11-12 09:12:22 10.91 ℃ 100 % 1020.62 hPa
2021-11-12 09:02:22 10.8 ℃ 100 % 1020.65 hPa
2021-11-12 08:52:22 10.77 ℃ 100 % 1020.65 hPa
2021-11-12 08:42:22 10.65 ℃ 100 % 1020.71 hPa
2021-11-12 08:32:22 10.59 ℃ 100 % 1020.74 hPa
2021-11-12 08:22:22 10.61 ℃ 100 % 1020.78 hPa
2021-11-12 08:12:22 10.58 ℃ 100 % 1020.89 hPa
2021-11-12 08:02:22 10.65 ℃ 100 % 1020.97 hPa
2021-11-12 07:52:22 10.7 ℃ 100 % 1021.01 hPa
2021-11-12 07:42:22 10.75 ℃ 100 % 1021.05 hPa
2021-11-12 07:32:22 10.7 ℃ 100 % 1021.1 hPa
2021-11-12 07:22:22 10.82 ℃ 100 % 1021.12 hPa
2021-11-12 07:12:22 11.03 ℃ 100 % 1021.2 hPa
2021-11-12 07:02:22 11.14 ℃ 100 % 1021.34 hPa
2021-11-12 06:52:22 11.03 ℃ 100 % 1021.47 hPa
2021-11-12 06:42:22 11.11 ℃ 100 % 1021.59 hPa
2021-11-12 06:32:22 11.29 ℃ 100 % 1021.66 hPa
2021-11-12 06:22:22 11.31 ℃ 100 % 1021.69 hPa
2021-11-12 06:12:22 11.53 ℃ 100 % 1021.8 hPa
2021-11-12 06:02:22 11.79 ℃ 100 % 1022 hPa
2021-11-12 05:52:22 11.82 ℃ 100 % 1022.13 hPa
2021-11-12 05:42:22 11.82 ℃ 100 % 1022.18 hPa
2021-11-12 05:32:22 11.81 ℃ 100 % 1022.17 hPa
2021-11-12 05:22:22 11.75 ℃ 100 % 1022.22 hPa
2021-11-12 05:12:22 11.85 ℃ 100 % 1022.29 hPa
2021-11-12 05:02:22 11.89 ℃ 100 % 1022.36 hPa
2021-11-12 04:52:22 12.11 ℃ 100 % 1022.39 hPa
2021-11-12 04:42:22 12.07 ℃ 100 % 1022.44 hPa
2021-11-12 04:32:22 12.16 ℃ 100 % 1022.45 hPa
2021-11-12 04:22:22 12.21 ℃ 100 % 1022.5 hPa
2021-11-12 04:12:22 11.84 ℃ 100 % 1022.54 hPa
2021-11-12 04:02:22 11.89 ℃ 100 % 1022.49 hPa
2021-11-12 03:52:22 11.95 ℃ 100 % 1022.52 hPa
2021-11-12 03:42:22 11.77 ℃ 100 % 1022.61 hPa
2021-11-12 03:32:22 11.85 ℃ 100 % 1022.68 hPa
2021-11-12 03:22:22 11.61 ℃ 100 % 1022.79 hPa
2021-11-12 03:12:22 11.35 ℃ 100 % 1022.89 hPa
2021-11-12 03:02:22 11.45 ℃ 100 % 1023.09 hPa
2021-11-12 02:52:22 11.52 ℃ 100 % 1023.14 hPa
2021-11-12 02:42:22 11.29 ℃ 100 % 1023.25 hPa
2021-11-12 02:32:23 11.14 ℃ 100 % 1023.33 hPa
2021-11-12 02:22:22 11.21 ℃ 100 % 1023.32 hPa
2021-11-12 02:12:22 11.2 ℃ 100 % 1023.35 hPa
2021-11-12 02:02:22 11.42 ℃ 100 % 1023.33 hPa
2021-11-12 01:52:22 11.34 ℃ 100 % 1023.33 hPa
2021-11-12 01:42:22 11.33 ℃ 100 % 1023.38 hPa
2021-11-12 01:32:22 11.25 ℃ 100 % 1023.44 hPa
2021-11-12 01:22:22 11.05 ℃ 100 % 1023.53 hPa
2021-11-12 01:12:22 11.1 ℃ 100 % 1023.55 hPa
2021-11-12 01:02:22 10.99 ℃ 100 % 1023.53 hPa
2021-11-12 00:52:22 11.13 ℃ 100 % 1023.46 hPa
2021-11-12 00:42:22 10.94 ℃ 100 % 1023.49 hPa
2021-11-12 00:32:22 10.99 ℃ 100 % 1023.48 hPa
2021-11-12 00:22:22 10.96 ℃ 100 % 1023.51 hPa
2021-11-12 00:12:22 10.81 ℃ 100 % 1023.54 hPa
2021-11-12 00:02:22 10.57 ℃ 100 % 1023.6 hPa
2021-11-11 23:52:23 10.51 ℃ 100 % 1023.58 hPa
2021-11-11 23:42:22 10.53 ℃ 100 % 1023.6 hPa
2021-11-11 23:32:22 10.65 ℃ 100 % 1023.63 hPa
2021-11-11 23:22:22 10.94 ℃ 100 % 1023.65 hPa
2021-11-11 23:12:23 11.38 ℃ 100 % 1023.65 hPa
2021-11-11 23:02:23 11.75 ℃ 100 % 1023.64 hPa
2021-11-11 22:52:23 12.02 ℃ 100 % 1023.61 hPa
2021-11-11 22:42:23 11.9 ℃ 100 % 1023.54 hPa
2021-11-11 22:32:23 12.26 ℃ 100 % 1023.49 hPa
2021-11-11 22:22:23 12.45 ℃ 100 % 1023.52 hPa
2021-11-11 22:12:23 12.56 ℃ 100 % 1023.54 hPa
2021-11-11 22:02:23 12.6 ℃ 100 % 1023.56 hPa
2021-11-11 21:52:23 12.71 ℃ 100 % 1023.57 hPa
2021-11-11 21:42:23 12.9 ℃ 100 % 1023.55 hPa
2021-11-11 21:32:23 12.95 ℃ 100 % 1023.57 hPa
2021-11-11 21:22:23 12.92 ℃ 100 % 1023.56 hPa
2021-11-11 21:12:23 13.19 ℃ 100 % 1023.55 hPa
2021-11-11 21:02:23 13.12 ℃ 100 % 1023.57 hPa
2021-11-11 20:52:23 13.13 ℃ 100 % 1023.54 hPa
2021-11-11 20:42:23 13.27 ℃ 100 % 1023.53 hPa
2021-11-11 20:32:23 13.45 ℃ 100 % 1023.57 hPa
2021-11-11 20:22:23 13 ℃ 100 % 1023.62 hPa
2021-11-11 20:12:23 12.75 ℃ 100 % 1023.58 hPa
2021-11-11 20:02:23 12.73 ℃ 100 % 1023.57 hPa
2021-11-11 19:52:23 12.79 ℃ 100 % 1023.54 hPa
2021-11-11 19:42:23 12.7 ℃ 100 % 1023.55 hPa
2021-11-11 19:32:23 12.46 ℃ 100 % 1023.54 hPa
2021-11-11 19:22:23 12.46 ℃ 100 % 1023.52 hPa
2021-11-11 19:12:23 12.5 ℃ 100 % 1023.53 hPa
2021-11-11 19:02:23 12.66 ℃ 100 % 1023.53 hPa
2021-11-11 18:52:23 12.76 ℃ 100 % 1023.44 hPa
2021-11-11 18:42:23 12.85 ℃ 100 % 1023.34 hPa
2021-11-11 18:32:23 12.85 ℃ 100 % 1023.27 hPa
2021-11-11 18:22:23 12.67 ℃ 100 % 1023.15 hPa
2021-11-11 18:12:23 12.67 ℃ 100 % 1023.04 hPa
2021-11-11 18:02:23 12.53 ℃ 100 % 1022.93 hPa
2021-11-11 17:52:23 12.83 ℃ 100 % 1022.82 hPa
2021-11-11 17:42:23 13.02 ℃ 100 % 1022.73 hPa
2021-11-11 17:32:23 13.2 ℃ 100 % 1022.69 hPa
2021-11-11 17:22:23 13.15 ℃ 100 % 1022.63 hPa
2021-11-11 17:12:23 13.51 ℃ 100 % 1022.61 hPa
2021-11-11 17:02:23 13.41 ℃ 100 % 1022.57 hPa
2021-11-11 16:52:23 13.31 ℃ 100 % 1022.58 hPa
2021-11-11 16:42:23 13.35 ℃ 100 % 1022.56 hPa
2021-11-11 16:32:23 13.28 ℃ 100 % 1022.64 hPa
2021-11-11 16:22:23 13.25 ℃ 100 % 1022.68 hPa
2021-11-11 16:12:23 13.41 ℃ 100 % 1022.68 hPa
2021-11-11 16:02:23 13.48 ℃ 100 % 1022.68 hPa
2021-11-11 15:52:23 13.6 ℃ 100 % 1022.62 hPa
2021-11-11 15:42:23 13.64 ℃ 100 % 1022.56 hPa
2021-11-11 15:32:23 13.95 ℃ 100 % 1022.55 hPa
2021-11-11 15:22:23 14.1 ℃ 100 % 1022.52 hPa
2021-11-11 15:12:23 14.1 ℃ 100 % 1022.47 hPa
2021-11-11 15:02:23 14.08 ℃ 100 % 1022.45 hPa
2021-11-11 14:52:23 13.9 ℃ 100 % 1022.4 hPa
2021-11-11 14:42:23 14.07 ℃ 100 % 1022.38 hPa
2021-11-11 14:32:23 14.03 ℃ 100 % 1022.37 hPa
2021-11-11 14:22:23 13.9 ℃ 100 % 1022.36 hPa
2021-11-11 14:12:23 14.01 ℃ 100 % 1022.3 hPa
2021-11-11 14:02:23 13.56 ℃ 100 % 1022.36 hPa
2021-11-11 13:52:23 12.88 ℃ 100 % 1022.39 hPa
2021-11-11 13:42:23 12.5 ℃ 100 % 1022.46 hPa
2021-11-11 13:32:23 12.46 ℃ 100 % 1022.45 hPa
2021-11-11 13:22:23 12.5 ℃ 100 % 1022.44 hPa
2021-11-11 13:12:23 12.55 ℃ 100 % 1022.44 hPa
2021-11-11 13:02:23 12.54 ℃ 100 % 1022.48 hPa
2021-11-11 12:52:24 12.56 ℃ 100 % 1022.47 hPa
2021-11-11 12:42:23 12.47 ℃ 100 % 1022.47 hPa
2021-11-11 12:32:23 12.43 ℃ 100 % 1022.5 hPa
2021-11-11 12:22:24 12.44 ℃ 100 % 1022.55 hPa
2021-11-11 12:12:23 12.37 ℃ 100 % 1022.57 hPa
2021-11-11 12:02:23 12.38 ℃ 100 % 1022.61 hPa
2021-11-11 11:52:24 12.39 ℃ 100 % 1022.67 hPa
2021-11-11 11:42:24 12.42 ℃ 100 % 1022.65 hPa
2021-11-11 11:32:24 12.33 ℃ 100 % 1022.66 hPa
2021-11-11 11:22:24 12.33 ℃ 100 % 1022.64 hPa
2021-11-11 11:12:24 12.1 ℃ 100 % 1022.64 hPa
2021-11-11 11:02:24 12.16 ℃ 100 % 1022.61 hPa
2021-11-11 10:52:24 12.17 ℃ 100 % 1022.6 hPa
2021-11-11 10:42:24 12.29 ℃ 100 % 1022.64 hPa
2021-11-11 10:32:24 12.31 ℃ 100 % 1022.69 hPa
2021-11-11 10:22:24 12.27 ℃ 100 % 1022.74 hPa
2021-11-11 10:12:24 12.2 ℃ 100 % 1022.75 hPa
2021-11-11 10:02:24 12.1 ℃ 100 % 1022.74 hPa
2021-11-11 09:52:24 11.8 ℃ 100 % 1022.74 hPa
2021-11-11 09:42:24 11.75 ℃ 100 % 1022.73 hPa
2021-11-11 09:32:24 11.65 ℃ 100 % 1022.77 hPa
2021-11-11 09:22:24 11.69 ℃ 100 % 1022.76 hPa
2021-11-11 09:12:24 11.66 ℃ 100 % 1022.78 hPa
2021-11-11 09:02:24 11.8 ℃ 100 % 1022.78 hPa
2021-11-11 08:52:24 11.96 ℃ 100 % 1022.76 hPa
2021-11-11 08:42:24 11.66 ℃ 100 % 1022.71 hPa
2021-11-11 08:32:24 11.9 ℃ 100 % 1022.69 hPa
2021-11-11 08:22:24 11.78 ℃ 100 % 1022.63 hPa
2021-11-11 08:12:24 11.83 ℃ 100 % 1022.59 hPa
2021-11-11 08:02:24 11.82 ℃ 100 % 1022.56 hPa
2021-11-11 07:52:24 11.68 ℃ 100 % 1022.54 hPa
2021-11-11 07:42:24 11.68 ℃ 100 % 1022.48 hPa
2021-11-11 07:32:24 11.71 ℃ 100 % 1022.41 hPa
2021-11-11 07:22:24 11.66 ℃ 100 % 1022.41 hPa
2021-11-11 07:12:24 11.68 ℃ 100 % 1022.46 hPa
2021-11-11 07:02:24 11.58 ℃ 100 % 1022.48 hPa
2021-11-11 06:52:24 11.67 ℃ 100 % 1022.47 hPa
2021-11-11 06:42:24 11.81 ℃ 100 % 1022.47 hPa
2021-11-11 06:32:24 11.64 ℃ 100 % 1022.47 hPa
2021-11-11 06:22:24 11.74 ℃ 100 % 1022.46 hPa
2021-11-11 06:12:24 11.83 ℃ 100 % 1022.47 hPa
2021-11-11 06:02:24 11.7 ℃ 100 % 1022.51 hPa
2021-11-11 05:52:24 11.84 ℃ 100 % 1022.52 hPa
2021-11-11 05:42:24 11.96 ℃ 100 % 1022.53 hPa
2021-11-11 05:32:24 11.84 ℃ 100 % 1022.54 hPa
2021-11-11 05:22:24 11.73 ℃ 100 % 1022.56 hPa
2021-11-11 05:12:24 11.49 ℃ 100 % 1022.53 hPa
2021-11-11 05:02:24 11.44 ℃ 100 % 1022.53 hPa
2021-11-11 04:52:24 11.63 ℃ 100 % 1022.54 hPa
2021-11-11 04:42:24 11.69 ℃ 100 % 1022.61 hPa
2021-11-11 04:32:24 11.7 ℃ 100 % 1022.7 hPa
2021-11-11 04:22:24 11.78 ℃ 100 % 1022.79 hPa
2021-11-11 04:12:24 11.99 ℃ 100 % 1022.83 hPa
2021-11-11 04:02:24 11.97 ℃ 100 % 1022.89 hPa
2021-11-11 03:52:24 11.81 ℃ 100 % 1022.95 hPa
2021-11-11 03:42:24 11.74 ℃ 100 % 1022.99 hPa
2021-11-11 03:32:24 11.88 ℃ 100 % 1023.1 hPa
2021-11-11 03:22:24 11.87 ℃ 100 % 1023.14 hPa
2021-11-11 03:12:24 11.63 ℃ 100 % 1023.17 hPa
2021-11-11 03:02:24 11.88 ℃ 100 % 1023.14 hPa
2021-11-11 02:52:24 12.04 ℃ 100 % 1023.18 hPa
2021-11-11 02:42:24 12.13 ℃ 100 % 1023.17 hPa
2021-11-11 02:32:24 12.26 ℃ 100 % 1023.2 hPa
2021-11-11 02:22:24 12.31 ℃ 100 % 1023.25 hPa
2021-11-11 02:12:24 12.32 ℃ 100 % 1023.25 hPa
2021-11-11 02:02:24 12.12 ℃ 100 % 1023.24 hPa
2021-11-11 01:52:24 12.17 ℃ 100 % 1023.28 hPa
2021-11-11 01:42:24 12.04 ℃ 100 % 1023.29 hPa
2021-11-11 01:32:24 12.1 ℃ 100 % 1023.27 hPa
2021-11-11 01:22:25 12.26 ℃ 100 % 1023.32 hPa
2021-11-11 01:12:25 12.39 ℃ 100 % 1023.32 hPa
2021-11-11 01:02:25 12.01 ℃ 100 % 1023.35 hPa
2021-11-11 00:52:25 12.25 ℃ 100 % 1023.39 hPa
2021-11-11 00:42:25 12.2 ℃ 100 % 1023.45 hPa
2021-11-11 00:32:25 12 ℃ 100 % 1023.57 hPa
2021-11-11 00:22:25 11.98 ℃ 100 % 1023.68 hPa
2021-11-11 00:12:25 11.93 ℃ 100 % 1023.76 hPa
2021-11-11 00:02:25 11.81 ℃ 100 % 1023.83 hPa
2021-11-10 23:52:25 11.83 ℃ 100 % 1023.88 hPa
2021-11-10 23:42:25 11.45 ℃ 100 % 1023.95 hPa
2021-11-10 23:32:25 11.73 ℃ 100 % 1023.96 hPa
2021-11-10 23:22:25 11.77 ℃ 100 % 1024 hPa
2021-11-10 23:12:25 11.78 ℃ 100 % 1024.11 hPa
2021-11-10 23:02:25 11.82 ℃ 100 % 1024.19 hPa
2021-11-10 22:52:25 11.54 ℃ 100 % 1024.29 hPa
2021-11-10 22:42:25 11.49 ℃ 100 % 1024.29 hPa
2021-11-10 22:32:25 11.52 ℃ 100 % 1024.32 hPa
2021-11-10 22:22:25 11.49 ℃ 100 % 1024.32 hPa
2021-11-10 22:12:25 11.68 ℃ 100 % 1024.31 hPa
2021-11-10 22:02:25 11.6 ℃ 100 % 1024.31 hPa
2021-11-10 21:52:25 11.62 ℃ 100 % 1024.31 hPa
2021-11-10 21:42:25 11.76 ℃ 100 % 1024.32 hPa
2021-11-10 21:32:25 11.77 ℃ 100 % 1024.35 hPa
2021-11-10 21:22:25 11.82 ℃ 100 % 1024.33 hPa
2021-11-10 21:12:25 11.51 ℃ 100 % 1024.36 hPa
2021-11-10 21:02:25 11.51 ℃ 100 % 1024.33 hPa
2021-11-10 20:52:25 11.65 ℃ 100 % 1024.26 hPa
2021-11-10 20:42:25 11.97 ℃ 100 % 1024.24 hPa
2021-11-10 20:32:25 11.61 ℃ 100 % 1024.26 hPa
2021-11-10 20:22:25 11.77 ℃ 100 % 1024.28 hPa
2021-11-10 20:12:25 11.76 ℃ 100 % 1024.25 hPa
2021-11-10 20:02:25 11.7 ℃ 100 % 1024.26 hPa
2021-11-10 19:52:25 12.11 ℃ 100 % 1024.17 hPa
2021-11-10 19:42:25 12.15 ℃ 100 % 1024.12 hPa
2021-11-10 19:32:25 12.08 ℃ 100 % 1024.16 hPa
2021-11-10 19:22:25 11.85 ℃ 100 % 1024.11 hPa
2021-11-10 19:12:25 11.84 ℃ 100 % 1024.05 hPa
2021-11-10 19:02:25 11.72 ℃ 100 % 1023.99 hPa
2021-11-10 18:52:25 11.79 ℃ 100 % 1023.98 hPa
2021-11-10 18:42:25 12.05 ℃ 100 % 1023.89 hPa
2021-11-10 18:32:25 12.02 ℃ 100 % 1023.81 hPa
2021-11-10 18:22:25 12.01 ℃ 100 % 1023.87 hPa
2021-11-10 18:12:25 12.18 ℃ 100 % 1023.84 hPa
2021-11-10 18:02:25 12.35 ℃ 100 % 1023.9 hPa
2021-11-10 17:52:25 12.79 ℃ 100 % 1023.96 hPa
2021-11-10 17:42:25 12.99 ℃ 100 % 1023.93 hPa
2021-11-10 17:32:25 13.08 ℃ 100 % 1023.92 hPa
2021-11-10 17:22:25 12.87 ℃ 100 % 1023.85 hPa
2021-11-10 17:12:25 12.55 ℃ 100 % 1023.81 hPa
2021-11-10 17:02:25 12.37 ℃ 100 % 1023.79 hPa
2021-11-10 16:52:25 12.43 ℃ 100 % 1023.82 hPa
2021-11-10 16:42:25 12.23 ℃ 100 % 1023.79 hPa
2021-11-10 16:32:26 12.14 ℃ 100 % 1023.78 hPa
2021-11-10 16:22:25 12.2 ℃ 100 % 1023.74 hPa
2021-11-10 16:12:25 12.16 ℃ 100 % 1023.72 hPa
2021-11-10 16:02:25 12.3 ℃ 100 % 1023.71 hPa
2021-11-10 15:52:25 12.44 ℃ 100 % 1023.68 hPa
2021-11-10 15:42:25 12.56 ℃ 100 % 1023.65 hPa
2021-11-10 15:32:25 12.94 ℃ 100 % 1023.57 hPa
2021-11-10 15:22:25 12.95 ℃ 100 % 1023.47 hPa
2021-11-10 15:12:25 13.16 ℃ 100 % 1023.38 hPa
2021-11-10 15:02:25 13.04 ℃ 100 % 1023.34 hPa
2021-11-10 14:52:25 13.25 ℃ 100 % 1023.31 hPa
2021-11-10 14:42:25 13.51 ℃ 100 % 1023.28 hPa
2021-11-10 14:32:26 13.47 ℃ 100 % 1023.29 hPa
2021-11-10 14:22:26 13.59 ℃ 100 % 1023.31 hPa
2021-11-10 14:12:26 13.36 ℃ 100 % 1023.36 hPa
2021-11-10 14:02:26 13.65 ℃ 100 % 1023.34 hPa
2021-11-10 13:52:26 13.93 ℃ 100 % 1023.4 hPa
2021-11-10 13:42:26 13.58 ℃ 100 % 1023.46 hPa
2021-11-10 13:32:26 13.52 ℃ 100 % 1023.56 hPa
2021-11-10 13:22:26 13.6 ℃ 100 % 1023.68 hPa
2021-11-10 13:12:26 13.42 ℃ 100 % 1023.7 hPa
2021-11-10 13:02:26 13.33 ℃ 100 % 1023.71 hPa
2021-11-10 12:52:26 13.21 ℃ 100 % 1023.78 hPa
2021-11-10 12:42:26 13.13 ℃ 100 % 1023.87 hPa
2021-11-10 12:32:26 13.23 ℃ 100 % 1023.94 hPa
2021-11-10 12:22:26 13.42 ℃ 100 % 1024.02 hPa
2021-11-10 12:12:26 13.15 ℃ 100 % 1024.09 hPa
2021-11-10 12:02:26 13.17 ℃ 100 % 1024.1 hPa
2021-11-10 11:52:26 12.74 ℃ 100 % 1024.13 hPa
2021-11-10 11:42:26 12.61 ℃ 100 % 1024.17 hPa
2021-11-10 11:32:26 12.58 ℃ 100 % 1024.11 hPa
2021-11-10 11:22:26 12.22 ℃ 100 % 1023.89 hPa
2021-11-10 11:12:26 12.18 ℃ 100 % 1023.79 hPa
2021-11-10 11:02:26 12.08 ℃ 100 % 1023.86 hPa
2021-11-10 10:52:26 11.96 ℃ 100 % 1023.9 hPa
2021-11-10 10:42:26 12.08 ℃ 100 % 1023.93 hPa
2021-11-10 10:32:26 11.86 ℃ 100 % 1023.99 hPa
2021-11-10 10:22:26 11.53 ℃ 100 % 1024.01 hPa
2021-11-10 10:12:26 11.21 ℃ 100 % 1024.09 hPa
2021-11-10 10:02:26 11.09 ℃ 100 % 1024.11 hPa
2021-11-10 09:52:26 11.21 ℃ 100 % 1024.17 hPa
2021-11-10 09:42:26 11.02 ℃ 100 % 1024.2 hPa
2021-11-10 09:32:26 11 ℃ 100 % 1024.19 hPa
2021-11-10 09:22:26 10.82 ℃ 100 % 1024.19 hPa
2021-11-10 09:12:26 10.7 ℃ 100 % 1024.12 hPa
2021-11-10 09:02:26 10.77 ℃ 100 % 1024.03 hPa
2021-11-10 08:52:26 10.6 ℃ 100 % 1023.94 hPa
2021-11-10 08:42:26 10.6 ℃ 100 % 1023.95 hPa
2021-11-10 08:32:26 10.53 ℃ 100 % 1023.93 hPa
2021-11-10 08:22:26 10.39 ℃ 100 % 1023.89 hPa
2021-11-10 08:12:26 10.57 ℃ 100 % 1023.94 hPa
2021-11-10 08:02:26 10.54 ℃ 100 % 1023.96 hPa
2021-11-10 07:52:26 10.56 ℃ 100 % 1024 hPa
2021-11-10 07:42:27 10.43 ℃ 100 % 1023.92 hPa
2021-11-10 07:32:26 10.38 ℃ 100 % 1023.87 hPa
2021-11-10 07:22:26 10.46 ℃ 100 % 1023.84 hPa
2021-11-10 07:12:26 10.56 ℃ 100 % 1023.82 hPa
2021-11-10 07:02:26 10.62 ℃ 100 % 1023.83 hPa
2021-11-10 06:52:26 10.61 ℃ 100 % 1023.83 hPa
2021-11-10 06:42:26 10.46 ℃ 100 % 1023.82 hPa
2021-11-10 06:32:26 10.58 ℃ 100 % 1023.86 hPa
2021-11-10 06:22:26 10.61 ℃ 100 % 1023.86 hPa
2021-11-10 06:12:27 10.44 ℃ 100 % 1023.83 hPa
2021-11-10 06:02:26 10.43 ℃ 100 % 1023.85 hPa
2021-11-10 05:52:26 10.53 ℃ 100 % 1023.91 hPa
2021-11-10 05:42:26 10.5 ℃ 100 % 1024.06 hPa
2021-11-10 05:32:26 10.47 ℃ 100 % 1024.11 hPa
2021-11-10 05:22:26 10.58 ℃ 100 % 1024.2 hPa
2021-11-10 05:12:26 10.53 ℃ 100 % 1024.28 hPa
2021-11-10 05:02:26 10.34 ℃ 100 % 1024.36 hPa
2021-11-10 04:52:26 10.4 ℃ 100 % 1024.44 hPa
2021-11-10 04:42:26 10.54 ℃ 100 % 1024.43 hPa
2021-11-10 04:32:26 10.35 ℃ 100 % 1024.39 hPa
2021-11-10 04:22:26 10.22 ℃ 100 % 1024.41 hPa
2021-11-10 04:12:26 10.3 ℃ 100 % 1024.45 hPa
2021-11-10 04:02:26 10.23 ℃ 100 % 1024.48 hPa
2021-11-10 03:52:26 10.35 ℃ 100 % 1024.59 hPa
2021-11-10 03:42:26 10.38 ℃ 100 % 1024.66 hPa
2021-11-10 03:32:26 10.32 ℃ 100 % 1024.74 hPa
2021-11-10 03:22:26 10.39 ℃ 100 % 1024.79 hPa
2021-11-10 03:12:27 10.37 ℃ 100 % 1024.84 hPa
2021-11-10 03:02:27 10.16 ℃ 100 % 1024.92 hPa
2021-11-10 02:52:27 10.31 ℃ 100 % 1025.06 hPa
2021-11-10 02:42:27 10.48 ℃ 100 % 1025.05 hPa
2021-11-10 02:32:27 10.45 ℃ 100 % 1025.03 hPa
2021-11-10 02:22:27 10.31 ℃ 100 % 1025.03 hPa
2021-11-10 02:12:27 10.51 ℃ 100 % 1025.03 hPa
2021-11-10 02:02:27 10.63 ℃ 100 % 1025.05 hPa
2021-11-10 01:52:27 10.37 ℃ 100 % 1025.07 hPa
2021-11-10 01:42:27 10.14 ℃ 100 % 1025.09 hPa
2021-11-10 01:32:27 10.36 ℃ 100 % 1025.11 hPa
2021-11-10 01:22:27 10.52 ℃ 100 % 1025.16 hPa
2021-11-10 01:12:27 10.68 ℃ 100 % 1025.22 hPa
2021-11-10 01:02:27 10.73 ℃ 100 % 1025.28 hPa
2021-11-10 00:52:27 10.63 ℃ 100 % 1025.27 hPa
2021-11-10 00:42:27 10.68 ℃ 100 % 1025.25 hPa
2021-11-10 00:32:27 10.64 ℃ 100 % 1025.2 hPa
2021-11-10 00:22:27 10.81 ℃ 100 % 1025.24 hPa
2021-11-10 00:12:27 10.77 ℃ 100 % 1025.32 hPa
2021-11-10 00:02:27 10.78 ℃ 100 % 1025.39 hPa
2021-11-09 23:52:27 10.78 ℃ 100 % 1025.42 hPa
2021-11-09 23:42:27 10.91 ℃ 100 % 1025.45 hPa
2021-11-09 23:32:27 11.12 ℃ 100 % 1025.49 hPa
2021-11-09 23:22:27 11.1 ℃ 100 % 1025.57 hPa
2021-11-09 23:12:27 11.25 ℃ 100 % 1025.62 hPa
2021-11-09 23:02:27 11.31 ℃ 100 % 1025.74 hPa
2021-11-09 22:52:27 11.25 ℃ 100 % 1025.82 hPa
2021-11-09 22:42:27 11.28 ℃ 100 % 1025.85 hPa
2021-11-09 22:32:27 11.21 ℃ 100 % 1025.83 hPa
2021-11-09 22:22:27 11.29 ℃ 100 % 1025.91 hPa
2021-11-09 22:12:27 11.32 ℃ 100 % 1025.94 hPa
2021-11-09 22:02:27 11.26 ℃ 100 % 1025.91 hPa
2021-11-09 21:52:27 11.24 ℃ 100 % 1025.87 hPa
2021-11-09 21:42:27 11.36 ℃ 100 % 1025.92 hPa
2021-11-09 21:32:27 11.35 ℃ 100 % 1025.89 hPa
2021-11-09 21:22:27 11.28 ℃ 100 % 1025.85 hPa
2021-11-09 21:12:27 11.42 ℃ 100 % 1025.82 hPa
2021-11-09 21:02:27 11.45 ℃ 100 % 1025.77 hPa
2021-11-09 20:52:27 11.44 ℃ 100 % 1025.84 hPa
2021-11-09 20:42:27 11.78 ℃ 100 % 1025.88 hPa
2021-11-09 20:32:27 11.93 ℃ 100 % 1025.93 hPa
2021-11-09 20:22:27 12.12 ℃ 100 % 1026.03 hPa
2021-11-09 20:12:27 12.12 ℃ 100 % 1026.1 hPa
2021-11-09 20:02:27 12.07 ℃ 100 % 1026.09 hPa
2021-11-09 19:52:27 12.29 ℃ 100 % 1026.11 hPa
2021-11-09 19:42:27 12.67 ℃ 100 % 1026.1 hPa
2021-11-09 19:32:27 12.71 ℃ 100 % 1026.13 hPa
2021-11-09 19:22:27 12.75 ℃ 100 % 1026.1 hPa
2021-11-09 19:12:27 12.71 ℃ 100 % 1026.07 hPa
2021-11-09 19:02:27 12.88 ℃ 100 % 1026.01 hPa
2021-11-09 18:52:27 13.01 ℃ 100 % 1025.96 hPa
2021-11-09 18:42:28 12.88 ℃ 100 % 1025.97 hPa
2021-11-09 18:32:28 12.88 ℃ 100 % 1025.94 hPa
2021-11-09 18:22:27 12.89 ℃ 100 % 1026 hPa
2021-11-09 18:12:28 13.11 ℃ 100 % 1025.96 hPa
2021-11-09 18:02:27 12.88 ℃ 100 % 1025.92 hPa
2021-11-09 17:52:27 12.84 ℃ 100 % 1025.89 hPa
2021-11-09 17:42:27 12.59 ℃ 100 % 1025.89 hPa
2021-11-09 17:32:27 12.81 ℃ 100 % 1025.85 hPa
2021-11-09 17:22:27 12.88 ℃ 100 % 1025.81 hPa
2021-11-09 17:12:27 12.87 ℃ 100 % 1025.79 hPa
2021-11-09 17:02:27 12.83 ℃ 100 % 1025.76 hPa
2021-11-09 16:52:27 12.94 ℃ 100 % 1025.7 hPa
2021-11-09 16:42:28 12.97 ℃ 100 % 1025.56 hPa
2021-11-09 16:32:28 13.02 ℃ 100 % 1025.48 hPa
2021-11-09 16:22:28 12.86 ℃ 100 % 1025.51 hPa
2021-11-09 16:12:28 12.95 ℃ 100 % 1025.48 hPa
2021-11-09 16:02:28 13.15 ℃ 100 % 1025.54 hPa
2021-11-09 15:52:28 13.3 ℃ 100 % 1025.53 hPa
2021-11-09 15:42:28 13.35 ℃ 100 % 1025.5 hPa
2021-11-09 15:32:28 13.46 ℃ 100 % 1025.44 hPa
2021-11-09 15:22:28 13.33 ℃ 100 % 1025.4 hPa
2021-11-09 15:12:28 13.24 ℃ 100 % 1025.4 hPa
2021-11-09 15:02:28 13.2 ℃ 100 % 1025.45 hPa
2021-11-09 14:52:28 13.31 ℃ 100 % 1025.46 hPa
2021-11-09 14:42:28 13.21 ℃ 100 % 1025.47 hPa
2021-11-09 14:32:28 13.36 ℃ 100 % 1025.42 hPa
2021-11-09 14:22:28 13.2 ℃ 100 % 1025.41 hPa
2021-11-09 14:12:28 13.47 ℃ 100 % 1025.5 hPa
2021-11-09 14:02:28 13.17 ℃ 100 % 1025.54 hPa
2021-11-09 13:52:28 13.45 ℃ 100 % 1025.61 hPa
2021-11-09 13:42:28 13.43 ℃ 100 % 1025.64 hPa
2021-11-09 13:32:28 13.38 ℃ 100 % 1025.7 hPa
2021-11-09 13:22:28 13.19 ℃ 100 % 1025.76 hPa
2021-11-09 13:12:28 13.15 ℃ 100 % 1025.89 hPa
2021-11-09 13:02:28 13.26 ℃ 100 % 1026.02 hPa
2021-11-09 12:52:28 13.37 ℃ 100 % 1026.12 hPa
2021-11-09 12:42:28 13.27 ℃ 100 % 1026.18 hPa
2021-11-09 12:32:28 12.95 ℃ 100 % 1026.28 hPa
2021-11-09 12:22:28 12.87 ℃ 100 % 1026.32 hPa
2021-11-09 12:12:28 13.07 ℃ 100 % 1026.33 hPa
2021-11-09 12:02:28 12.98 ℃ 100 % 1026.35 hPa
2021-11-09 11:52:28 13.19 ℃ 100 % 1026.3 hPa
2021-11-09 11:42:28 13.33 ℃ 100 % 1026.31 hPa
2021-11-09 11:32:28 12.81 ℃ 100 % 1026.39 hPa
2021-11-09 11:22:28 12.73 ℃ 100 % 1026.44 hPa
2021-11-09 11:12:28 12.53 ℃ 100 % 1026.52 hPa
2021-11-09 11:02:28 12.38 ℃ 100 % 1026.51 hPa
2021-11-09 10:52:28 12.51 ℃ 100 % 1026.48 hPa
2021-11-09 10:42:28 12.44 ℃ 100 % 1026.45 hPa
2021-11-09 10:32:28 12.19 ℃ 100 % 1026.4 hPa
2021-11-09 10:22:28 12 ℃ 100 % 1026.38 hPa
2021-11-09 10:12:28 12.05 ℃ 100 % 1026.39 hPa
2021-11-09 10:02:28 12.25 ℃ 100 % 1026.46 hPa
2021-11-09 09:52:28 12.39 ℃ 100 % 1026.48 hPa
2021-11-09 09:42:28 12.38 ℃ 100 % 1026.46 hPa
2021-11-09 09:32:28 12.22 ℃ 100 % 1026.42 hPa
2021-11-09 09:22:28 11.94 ℃ 100 % 1026.37 hPa
2021-11-09 09:12:28 11.54 ℃ 100 % 1026.3 hPa
2021-11-09 09:02:28 11.41 ℃ 100 % 1026.25 hPa
2021-11-09 08:52:28 11.35 ℃ 100 % 1026.15 hPa
2021-11-09 08:42:28 11.21 ℃ 100 % 1026.1 hPa
2021-11-09 08:32:28 11.2 ℃ 100 % 1026.03 hPa
2021-11-09 08:22:28 11 ℃ 100 % 1026.01 hPa
2021-11-09 08:12:28 11.42 ℃ 100 % 1026 hPa
2021-11-09 08:02:28 11.59 ℃ 100 % 1025.95 hPa
2021-11-09 07:52:28 11.55 ℃ 100 % 1025.84 hPa
2021-11-09 07:42:28 11.56 ℃ 100 % 1025.75 hPa
2021-11-09 07:32:28 11.71 ℃ 100 % 1025.67 hPa
2021-11-09 07:22:28 11.55 ℃ 100 % 1025.63 hPa
2021-11-09 07:12:28 11.56 ℃ 100 % 1025.55 hPa
2021-11-09 07:02:28 11.66 ℃ 100 % 1025.48 hPa
2021-11-09 06:52:28 11.71 ℃ 100 % 1025.46 hPa
2021-11-09 06:42:28 11.6 ℃ 100 % 1025.48 hPa
2021-11-09 06:32:28 11.57 ℃ 100 % 1025.39 hPa
2021-11-09 06:22:28 11.64 ℃ 100 % 1025.31 hPa
2021-11-09 06:12:29 11.87 ℃ 100 % 1025.25 hPa
2021-11-09 06:02:28 11.72 ℃ 100 % 1025.21 hPa
2021-11-09 05:52:29 11.8 ℃ 100 % 1025.14 hPa
2021-11-09 05:42:29 11.91 ℃ 100 % 1025.15 hPa
2021-11-09 05:32:29 12 ℃ 100 % 1025.11 hPa
2021-11-09 05:22:29 12.18 ℃ 100 % 1025.14 hPa
2021-11-09 05:12:29 12.15 ℃ 100 % 1025.13 hPa
2021-11-09 05:02:29 12.16 ℃ 100 % 1025.05 hPa
2021-11-09 04:52:29 12.21 ℃ 100 % 1024.95 hPa
2021-11-09 04:42:29 12.17 ℃ 100 % 1024.91 hPa
2021-11-09 04:32:29 12.29 ℃ 100 % 1024.96 hPa
2021-11-09 04:22:29 12.39 ℃ 100 % 1025 hPa
2021-11-09 04:12:29 12.6 ℃ 100 % 1024.97 hPa
2021-11-09 04:02:29 12.46 ℃ 100 % 1024.98 hPa
2021-11-09 03:52:29 12.59 ℃ 100 % 1024.9 hPa
2021-11-09 03:42:29 12.89 ℃ 100 % 1024.83 hPa
2021-11-09 03:32:29 13.32 ℃ 100 % 1024.71 hPa
2021-11-09 03:22:29 13.62 ℃ 100 % 1024.71 hPa
2021-11-09 03:12:29 13.62 ℃ 100 % 1024.69 hPa
2021-11-09 03:02:29 13.41 ℃ 100 % 1024.7 hPa
2021-11-09 02:52:29 12.75 ℃ 100 % 1024.7 hPa
2021-11-09 02:42:29 12.26 ℃ 100 % 1024.66 hPa
2021-11-09 02:32:29 12.36 ℃ 100 % 1024.63 hPa
2021-11-09 02:22:29 12.69 ℃ 100 % 1024.56 hPa
2021-11-09 02:12:29 12.96 ℃ 100 % 1024.55 hPa
2021-11-09 02:02:29 13.02 ℃ 100 % 1024.51 hPa
2021-11-09 01:52:29 13.07 ℃ 100 % 1024.48 hPa
2021-11-09 01:42:29 13.22 ℃ 100 % 1024.49 hPa
2021-11-09 01:32:29 13.32 ℃ 100 % 1024.53 hPa
2021-11-09 01:22:29 13.47 ℃ 100 % 1024.53 hPa
2021-11-09 01:12:29 13.27 ℃ 100 % 1024.56 hPa
2021-11-09 01:02:29 13.04 ℃ 100 % 1024.6 hPa
2021-11-09 00:52:29 13.31 ℃ 100 % 1024.61 hPa
2021-11-09 00:42:29 13.31 ℃ 100 % 1024.6 hPa
2021-11-09 00:32:29 13.42 ℃ 100 % 1024.61 hPa
2021-11-09 00:22:29 13.42 ℃ 100 % 1024.58 hPa
2021-11-09 00:12:29 13.31 ℃ 100 % 1024.55 hPa
2021-11-09 00:02:29 13.19 ℃ 100 % 1024.51 hPa
2021-11-08 23:52:29 13.22 ℃ 100 % 1024.4 hPa
2021-11-08 23:42:29 13.43 ℃ 100 % 1024.25 hPa
2021-11-08 23:32:29 13.64 ℃ 100 % 1024.2 hPa
2021-11-08 23:22:29 13.45 ℃ 100 % 1024.15 hPa
2021-11-08 23:12:29 13.37 ℃ 100 % 1024.07 hPa
2021-11-08 23:02:29 13.29 ℃ 100 % 1024.01 hPa
2021-11-08 22:52:29 13.48 ℃ 100 % 1023.92 hPa
2021-11-08 22:42:29 13.44 ℃ 100 % 1023.83 hPa
2021-11-08 22:32:29 13.51 ℃ 100 % 1023.75 hPa
2021-11-08 22:22:29 13.41 ℃ 100 % 1023.64 hPa
2021-11-08 22:12:29 12.8 ℃ 100 % 1023.54 hPa
2021-11-08 22:02:29 12.76 ℃ 100 % 1023.56 hPa
2021-11-08 21:52:29 12.91 ℃ 100 % 1023.57 hPa
2021-11-08 21:42:29 13.1 ℃ 100 % 1023.55 hPa
2021-11-08 14:58:41 14 ℃ 100 % 1019.09 hPa
2021-11-08 14:48:41 14.36 ℃ 100 % 1019 hPa
2021-11-08 14:38:41 14.06 ℃ 100 % 1019.02 hPa
2021-11-08 14:28:41 14.28 ℃ 100 % 1019.01 hPa
2021-11-08 14:18:42 14.26 ℃ 100 % 1019.04 hPa
2021-11-08 14:08:41 13.94 ℃ 100 % 1019.06 hPa
2021-11-08 13:58:41 13.71 ℃ 100 % 1019.03 hPa
2021-11-08 13:48:42 13.07 ℃ 100 % 1018.97 hPa
2021-11-08 13:38:41 12.83 ℃ 100 % 1018.88 hPa
2021-11-08 13:28:42 12.68 ℃ 100 % 1018.79 hPa
2021-11-08 13:18:42 12.6 ℃ 100 % 1018.72 hPa
2021-11-08 13:08:42 12.75 ℃ 100 % 1018.66 hPa
2021-11-08 12:58:42 12.99 ℃ 100 % 1018.62 hPa
2021-11-08 12:48:42 13.47 ℃ 100 % 1018.56 hPa
2021-11-08 12:38:42 13.3 ℃ 100 % 1018.5 hPa
2021-11-08 12:28:42 13.1 ℃ 100 % 1018.56 hPa
2021-11-08 12:18:42 13.2 ℃ 100 % 1018.58 hPa
2021-11-08 12:08:42 12.99 ℃ 100 % 1018.58 hPa
2021-11-08 11:58:42 13.19 ℃ 100 % 1018.56 hPa
2021-11-08 11:48:42 13.13 ℃ 100 % 1018.57 hPa
2021-11-08 11:38:42 12.76 ℃ 100 % 1018.51 hPa
2021-11-08 11:28:42 12.44 ℃ 100 % 1018.5 hPa
2021-11-08 11:18:42 12.03 ℃ 100 % 1018.47 hPa
2021-11-08 11:08:42 12 ℃ 100 % 1018.44 hPa
2021-11-08 10:58:42 12.18 ℃ 100 % 1018.38 hPa
2021-11-08 10:48:42 12.71 ℃ 100 % 1018.17 hPa
2021-11-08 10:38:42 12.67 ℃ 100 % 1018.04 hPa
2021-11-08 10:28:42 12.71 ℃ 100 % 1017.92 hPa
2021-11-08 10:18:42 12.7 ℃ 100 % 1017.81 hPa
2021-11-08 10:08:42 12.68 ℃ 100 % 1017.68 hPa
2021-11-08 09:58:42 13.01 ℃ 100 % 1017.62 hPa
2021-11-08 09:48:42 12.98 ℃ 100 % 1017.58 hPa
2021-11-08 09:38:42 13.24 ℃ 100 % 1017.53 hPa
2021-11-08 09:28:42 13.43 ℃ 100 % 1017.5 hPa
2021-11-08 09:18:42 13.7 ℃ 100 % 1017.49 hPa
2021-11-08 09:08:42 13.1 ℃ 100 % 1017.48 hPa
2021-11-08 08:58:42 12.96 ℃ 100 % 1017.42 hPa
2021-11-08 08:48:42 13.08 ℃ 100 % 1017.32 hPa
2021-11-08 08:38:42 12.74 ℃ 100 % 1017.24 hPa
2021-11-08 08:28:42 12.78 ℃ 100 % 1017.11 hPa
2021-11-08 08:18:42 12.33 ℃ 100 % 1017.01 hPa
2021-11-08 08:08:42 12.12 ℃ 100 % 1016.87 hPa
2021-11-08 07:58:42 11.77 ℃ 100 % 1016.72 hPa
2021-11-08 07:48:42 11.63 ℃ 100 % 1016.58 hPa
2021-11-08 07:38:42 11.32 ℃ 100 % 1016.44 hPa
2021-11-08 07:28:42 11.5 ℃ 100 % 1016.28 hPa
2021-11-08 07:18:42 11.66 ℃ 100 % 1016.13 hPa
2021-11-08 07:08:42 11.53 ℃ 100 % 1015.98 hPa
2021-11-08 06:58:42 11.45 ℃ 100 % 1015.87 hPa
2021-11-08 06:48:42 11.21 ℃ 100 % 1015.79 hPa
2021-11-08 06:38:42 11.53 ℃ 100 % 1015.68 hPa
2021-11-08 06:28:42 11.65 ℃ 100 % 1015.6 hPa
2021-11-08 06:18:42 11.3 ℃ 100 % 1015.53 hPa
2021-11-08 06:08:42 11.07 ℃ 100 % 1015.48 hPa
2021-11-08 05:58:42 11.03 ℃ 100 % 1015.43 hPa
2021-11-08 05:48:42 11.09 ℃ 100 % 1015.34 hPa
2021-11-08 05:38:42 11.05 ℃ 100 % 1015.27 hPa
2021-11-08 05:28:42 10.99 ℃ 100 % 1015.2 hPa
2021-11-08 05:18:42 11.08 ℃ 100 % 1015.06 hPa
2021-11-08 05:08:42 11.07 ℃ 100 % 1014.95 hPa
2021-11-08 04:58:42 11 ℃ 100 % 1014.84 hPa
2021-11-08 04:48:42 10.98 ℃ 100 % 1014.75 hPa
2021-11-08 04:38:42 11.01 ℃ 100 % 1014.61 hPa
2021-11-08 04:28:42 10.99 ℃ 100 % 1014.52 hPa
2021-11-08 04:18:42 11.11 ℃ 100 % 1014.41 hPa
2021-11-08 04:08:42 11.1 ℃ 100 % 1014.32 hPa
2021-11-08 03:58:42 11.02 ℃ 100 % 1014.22 hPa
2021-11-08 03:48:42 11.23 ℃ 100 % 1014.07 hPa
2021-11-08 03:38:42 11.22 ℃ 100 % 1013.94 hPa
2021-11-08 03:28:42 11.34 ℃ 100 % 1013.85 hPa
2021-11-08 03:18:42 11.45 ℃ 100 % 1013.69 hPa
2021-11-08 03:08:42 11.81 ℃ 100 % 1013.56 hPa
2021-11-08 02:58:43 11.87 ℃ 100 % 1013.49 hPa
2021-11-08 02:48:43 11.89 ℃ 100 % 1013.36 hPa
2021-11-08 02:38:42 12.05 ℃ 100 % 1013.25 hPa
2021-11-08 02:28:43 12.03 ℃ 100 % 1013.15 hPa
2021-11-08 02:18:43 12.13 ℃ 100 % 1013.03 hPa
2021-11-08 02:08:43 12.08 ℃ 100 % 1012.88 hPa
2021-11-08 01:58:43 12.11 ℃ 100 % 1012.78 hPa
2021-11-08 01:48:43 11.62 ℃ 100 % 1012.68 hPa
2021-11-08 01:38:43 11.51 ℃ 100 % 1012.58 hPa
2021-11-08 01:28:43 11.68 ℃ 100 % 1012.46 hPa
2021-11-08 01:18:43 11.75 ℃ 100 % 1012.33 hPa
2021-11-08 01:08:43 11.95 ℃ 100 % 1012.19 hPa
2021-11-08 00:58:43 12 ℃ 100 % 1012.05 hPa
2021-11-08 00:48:43 12 ℃ 100 % 1011.87 hPa
2021-11-08 00:38:43 12 ℃ 100 % 1011.71 hPa
2021-11-08 00:28:43 11.85 ℃ 100 % 1011.53 hPa
2021-11-08 00:18:43 11.83 ℃ 100 % 1011.36 hPa
2021-11-08 00:08:43 11.77 ℃ 100 % 1011.2 hPa
2021-11-07 23:58:43 11.73 ℃ 100 % 1010.98 hPa
2021-11-07 23:48:43 11.62 ℃ 100 % 1010.82 hPa
2021-11-07 23:38:43 11.76 ℃ 100 % 1010.7 hPa
2021-11-07 23:28:43 11.79 ℃ 100 % 1010.59 hPa
2021-11-07 23:18:43 11.7 ℃ 100 % 1010.42 hPa
2021-11-07 23:08:43 11.74 ℃ 100 % 1010.26 hPa
2021-11-07 22:58:43 11.83 ℃ 100 % 1010.1 hPa
2021-11-07 22:48:43 11.93 ℃ 100 % 1009.97 hPa
2021-11-07 22:38:44 11.98 ℃ 100 % 1009.82 hPa
2021-11-07 22:28:43 11.8 ℃ 100 % 1009.71 hPa
2021-11-07 22:18:43 11.76 ℃ 100 % 1009.57 hPa
2021-11-07 22:08:43 11.61 ℃ 100 % 1009.4 hPa
2021-11-07 21:58:43 11.77 ℃ 100 % 1009.2 hPa
2021-11-07 21:48:43 11.87 ℃ 100 % 1009.04 hPa
2021-11-07 21:38:43 11.76 ℃ 100 % 1008.97 hPa
2021-11-07 21:28:43 11.89 ℃ 100 % 1008.91 hPa
2021-11-07 21:18:43 11.77 ℃ 100 % 1008.85 hPa
2021-11-07 21:08:43 11.64 ℃ 100 % 1008.76 hPa
2021-11-07 20:58:43 11.56 ℃ 100 % 1008.65 hPa
2021-11-07 20:48:43 11.6 ℃ 100 % 1008.51 hPa
2021-11-07 20:38:43 11.45 ℃ 100 % 1008.4 hPa
2021-11-07 20:28:43 11.37 ℃ 100 % 1008.32 hPa
2021-11-07 20:18:43 11.33 ℃ 100 % 1008.26 hPa
2021-11-07 20:08:43 11.34 ℃ 100 % 1008.2 hPa
2021-11-07 19:58:43 11.28 ℃ 100 % 1008.09 hPa
2021-11-07 19:48:43 11.11 ℃ 100 % 1008.01 hPa
2021-11-07 19:38:43 11.01 ℃ 100 % 1007.92 hPa
2021-11-07 19:28:43 10.97 ℃ 100 % 1007.82 hPa
2021-11-07 19:18:43 10.98 ℃ 100 % 1007.71 hPa
2021-11-07 19:08:43 11.05 ℃ 100 % 1007.56 hPa
2021-11-07 18:58:43 11.15 ℃ 100 % 1007.47 hPa
2021-11-07 18:48:43 11.2 ℃ 100 % 1007.42 hPa
2021-11-07 18:38:43 10.98 ℃ 100 % 1007.41 hPa
2021-11-07 18:28:43 10.76 ℃ 100 % 1007.35 hPa
2021-11-07 18:18:44 10.92 ℃ 100 % 1007.34 hPa
2021-11-07 18:08:43 11.22 ℃ 100 % 1007.31 hPa
2021-11-07 17:58:43 11.24 ℃ 100 % 1007.29 hPa
2021-11-07 17:48:46 11.31 ℃ 100 % 1007.33 hPa
2021-11-07 17:38:43 11.17 ℃ 100 % 1007.3 hPa
2021-11-07 17:28:43 11.11 ℃ 100 % 1007.26 hPa
2021-11-07 17:18:43 11.13 ℃ 100 % 1007.26 hPa
2021-11-07 17:08:43 10.82 ℃ 100 % 1007.27 hPa
2021-11-07 16:58:43 10.84 ℃ 100 % 1007.25 hPa
2021-11-07 16:48:43 11 ℃ 100 % 1007.28 hPa
2021-11-07 16:38:44 11.07 ℃ 100 % 1007.25 hPa
2021-11-07 16:28:44 10.84 ℃ 100 % 1007.31 hPa
2021-11-07 16:18:43 10.97 ℃ 100 % 1007.33 hPa
2021-11-07 16:08:43 11.02 ℃ 100 % 1007.32 hPa
2021-11-07 15:58:43 10.97 ℃ 100 % 1007.21 hPa
2021-11-07 15:48:43 11.09 ℃ 100 % 1007.23 hPa
2021-11-07 15:38:43 10.8 ℃ 100 % 1007.29 hPa
2021-11-07 15:28:44 11.01 ℃ 100 % 1007.21 hPa
2021-11-07 15:18:44 11.05 ℃ 100 % 1007.18 hPa
2021-11-07 15:08:44 11.37 ℃ 100 % 1007.14 hPa
2021-11-07 14:58:44 11.32 ℃ 100 % 1007.21 hPa
2021-11-07 14:48:44 11.13 ℃ 100 % 1007.29 hPa
2021-11-07 14:38:44 10.86 ℃ 100 % 1007.34 hPa
2021-11-07 14:28:44 10.42 ℃ 100 % 1007.31 hPa
2021-11-07 14:18:44 10.75 ℃ 100 % 1007.17 hPa
2021-11-07 14:08:44 10.54 ℃ 100 % 1007.07 hPa
2021-11-07 13:58:44 10.75 ℃ 100 % 1007.14 hPa
2021-11-07 13:48:44 10.84 ℃ 100 % 1007.16 hPa
2021-11-07 13:38:44 10.69 ℃ 100 % 1007.21 hPa
2021-11-07 13:28:44 10.85 ℃ 100 % 1007.27 hPa
2021-11-07 13:18:44 10.56 ℃ 100 % 1007.37 hPa
2021-11-07 13:08:44 10.72 ℃ 100 % 1007.49 hPa
2021-11-07 12:58:44 10.76 ℃ 100 % 1007.57 hPa
2021-11-07 12:48:44 10.69 ℃ 100 % 1007.59 hPa
2021-11-07 12:38:44 10.93 ℃ 100 % 1007.72 hPa
2021-11-07 12:28:44 11.28 ℃ 100 % 1007.74 hPa
2021-11-07 12:18:44 11.67 ℃ 100 % 1007.66 hPa
2021-11-07 12:08:44 11.85 ℃ 100 % 1007.54 hPa
2021-11-07 11:58:44 11.67 ℃ 100 % 1007.59 hPa
2021-11-07 11:48:44 11.52 ℃ 100 % 1007.68 hPa
2021-11-07 11:38:44 11.2 ℃ 100 % 1007.83 hPa
2021-11-07 11:28:44 11.47 ℃ 100 % 1007.79 hPa
2021-11-07 11:18:44 11.57 ℃ 100 % 1007.73 hPa
2021-11-07 11:08:44 11.39 ℃ 100 % 1007.76 hPa
2021-11-07 10:58:44 11.17 ℃ 100 % 1007.73 hPa
2021-11-07 10:48:44 11.06 ℃ 100 % 1007.63 hPa
2021-11-07 10:38:44 11.01 ℃ 100 % 1007.8 hPa
2021-11-07 10:28:44 10.89 ℃ 100 % 1007.72 hPa
2021-11-07 10:18:44 11.26 ℃ 100 % 1007.59 hPa
2021-11-07 10:08:44 10.79 ℃ 100 % 1007.57 hPa
2021-11-07 09:58:44 10.97 ℃ 100 % 1007.52 hPa
2021-11-07 09:48:44 10.85 ℃ 100 % 1007.47 hPa
2021-11-07 09:38:44 10.76 ℃ 100 % 1007.43 hPa
2021-11-07 09:28:44 10.17 ℃ 100 % 1007.46 hPa
2021-11-07 09:18:44 10.32 ℃ 100 % 1007.3 hPa
2021-11-07 09:08:44 9.86 ℃ 100 % 1007.21 hPa
2021-11-07 08:58:44 9.86 ℃ 100 % 1007.12 hPa
2021-11-07 08:48:44 9.98 ℃ 100 % 1007.04 hPa
2021-11-07 08:38:44 10.18 ℃ 100 % 1006.97 hPa
2021-11-07 08:28:44 10.75 ℃ 100 % 1006.96 hPa
2021-11-07 08:18:44 10.45 ℃ 100 % 1006.84 hPa
2021-11-07 08:08:44 10.48 ℃ 100 % 1006.86 hPa
2021-11-07 07:58:44 10.33 ℃ 100 % 1006.79 hPa
2021-11-07 07:48:44 10.37 ℃ 100 % 1006.6 hPa
2021-11-07 07:38:44 10.27 ℃ 100 % 1006.55 hPa
2021-11-07 07:28:44 10.4 ℃ 100 % 1006.57 hPa
2021-11-07 07:18:44 10.46 ℃ 100 % 1006.4 hPa
2021-11-07 07:08:44 10.54 ℃ 100 % 1006.25 hPa
2021-11-07 06:58:44 10.63 ℃ 100 % 1006.19 hPa
2021-11-07 06:48:44 10.6 ℃ 100 % 1006.21 hPa
2021-11-07 06:38:44 10.8 ℃ 100 % 1006.13 hPa
2021-11-07 06:28:44 10.98 ℃ 100 % 1006.08 hPa
2021-11-07 06:18:44 11 ℃ 100 % 1006.08 hPa
2021-11-07 06:08:44 11.01 ℃ 100 % 1006.12 hPa
2021-11-07 05:58:44 11.13 ℃ 100 % 1006.2 hPa
2021-11-07 05:48:44 11.2 ℃ 100 % 1006.14 hPa
2021-11-07 05:38:44 11.31 ℃ 100 % 1006.11 hPa
2021-11-07 05:28:44 11.42 ℃ 100 % 1006.14 hPa
2021-11-07 05:18:45 11.51 ℃ 100 % 1006.27 hPa
2021-11-07 05:08:45 11.6 ℃ 100 % 1006.29 hPa
2021-11-07 04:58:45 11.71 ℃ 100 % 1006.42 hPa
2021-11-07 04:48:45 11.74 ℃ 100 % 1006.46 hPa
2021-11-07 04:38:45 11.75 ℃ 100 % 1006.51 hPa
2021-11-07 04:28:45 11.61 ℃ 100 % 1006.57 hPa
2021-11-07 04:18:45 11.6 ℃ 100 % 1006.63 hPa
2021-11-07 04:08:45 11.61 ℃ 100 % 1006.68 hPa
2021-11-07 03:58:45 11.45 ℃ 100 % 1006.8 hPa
2021-11-07 03:48:45 11.4 ℃ 100 % 1007.06 hPa
2021-11-07 03:38:45 11.37 ℃ 100 % 1007.23 hPa
2021-11-07 03:28:45 11.37 ℃ 100 % 1007.38 hPa
2021-11-07 03:18:45 11.36 ℃ 100 % 1007.5 hPa
2021-11-07 03:08:45 11.33 ℃ 100 % 1007.56 hPa
2021-11-07 02:58:45 11.27 ℃ 100 % 1007.69 hPa
2021-11-07 02:48:45 11.14 ℃ 100 % 1007.92 hPa
2021-11-07 02:38:45 11.06 ℃ 100 % 1008.09 hPa
2021-11-07 02:28:45 11.16 ℃ 100 % 1008.28 hPa
2021-11-07 02:18:45 11.03 ℃ 100 % 1008.46 hPa
2021-11-07 02:08:45 10.92 ℃ 100 % 1008.61 hPa
2021-11-07 01:58:45 10.9 ℃ 100 % 1008.79 hPa
2021-11-07 01:48:45 11.11 ℃ 100 % 1008.98 hPa
2021-11-07 01:38:45 11.05 ℃ 100 % 1009.23 hPa
2021-11-07 01:28:45 11.06 ℃ 100 % 1009.47 hPa
2021-11-07 01:18:45 11.13 ℃ 100 % 1009.72 hPa
2021-11-07 01:08:45 11.19 ℃ 100 % 1010 hPa
2021-11-07 00:58:45 11.05 ℃ 100 % 1010.27 hPa
2021-11-07 00:48:45 11.14 ℃ 100 % 1010.49 hPa
2021-11-07 00:38:45 11.29 ℃ 100 % 1010.71 hPa
2021-11-07 00:28:45 11.34 ℃ 100 % 1010.92 hPa
2021-11-07 00:18:45 11.33 ℃ 100 % 1011.14 hPa
2021-11-07 00:08:45 11.33 ℃ 100 % 1011.32 hPa
2021-11-06 23:58:45 11.43 ℃ 100 % 1011.47 hPa
2021-11-06 23:48:46 11.55 ℃ 100 % 1011.77 hPa
2021-11-06 23:38:45 11.4 ℃ 100 % 1011.95 hPa
2021-11-06 23:28:45 11.3 ℃ 100 % 1012.16 hPa
2021-11-06 23:18:45 11.28 ℃ 100 % 1012.46 hPa
2021-11-06 23:08:45 11.35 ℃ 100 % 1012.71 hPa
2021-11-06 22:58:45 11.4 ℃ 100 % 1012.84 hPa
2021-11-06 22:48:45 11.56 ℃ 100 % 1012.92 hPa
2021-11-06 22:38:45 11.62 ℃ 100 % 1012.98 hPa
2021-11-06 22:28:45 11.63 ℃ 100 % 1013.08 hPa
2021-11-06 22:18:45 11.56 ℃ 100 % 1013.22 hPa
2021-11-06 22:08:46 11.61 ℃ 100 % 1013.46 hPa
2021-11-06 21:58:45 11.6 ℃ 100 % 1013.81 hPa
2021-11-06 21:48:45 11.64 ℃ 100 % 1014.04 hPa
2021-11-06 21:38:45 11.6 ℃ 100 % 1014.25 hPa
2021-11-06 21:28:45 11.64 ℃ 100 % 1014.42 hPa
2021-11-06 21:18:45 11.48 ℃ 100 % 1014.59 hPa
2021-11-06 21:08:45 11.55 ℃ 100 % 1014.76 hPa
2021-11-06 20:58:46 11.55 ℃ 100 % 1014.89 hPa
2021-11-06 20:48:45 11.65 ℃ 100 % 1015.01 hPa
2021-11-06 20:38:46 11.71 ℃ 100 % 1015.12 hPa
2021-11-06 20:28:45 11.71 ℃ 100 % 1015.26 hPa
2021-11-06 20:18:45 11.64 ℃ 100 % 1015.35 hPa
2021-11-06 20:08:46 11.57 ℃ 100 % 1015.6 hPa
2021-11-06 19:58:45 11.61 ℃ 100 % 1015.82 hPa
2021-11-06 19:48:45 11.57 ℃ 100 % 1015.98 hPa
2021-11-06 19:38:45 11.57 ℃ 100 % 1016.11 hPa
2021-11-06 19:28:45 11.6 ℃ 100 % 1016.36 hPa
2021-11-06 19:18:45 11.55 ℃ 100 % 1016.54 hPa
2021-11-06 19:08:45 11.46 ℃ 100 % 1016.8 hPa
2021-11-06 18:58:45 11.67 ℃ 100 % 1016.92 hPa
2021-11-06 18:48:45 11.72 ℃ 100 % 1016.99 hPa
2021-11-06 18:38:45 11.65 ℃ 100 % 1017.12 hPa
2021-11-06 18:28:46 11.72 ℃ 100 % 1017.19 hPa
2021-11-06 18:18:46 11.63 ℃ 100 % 1017.32 hPa
2021-11-06 18:08:46 11.65 ℃ 100 % 1017.42 hPa
2021-11-06 17:58:46 11.74 ℃ 100 % 1017.49 hPa
2021-11-06 17:48:46 11.78 ℃ 100 % 1017.58 hPa
2021-11-06 17:38:46 11.64 ℃ 100 % 1017.73 hPa
2021-11-06 17:28:46 11.58 ℃ 100 % 1017.85 hPa
2021-11-06 17:18:46 11.53 ℃ 100 % 1018.02 hPa
2021-11-06 17:08:46 11.65 ℃ 100 % 1018.19 hPa
2021-11-06 16:58:46 11.6 ℃ 100 % 1018.3 hPa
2021-11-06 16:48:46 11.59 ℃ 100 % 1018.41 hPa
2021-11-06 16:38:46 11.54 ℃ 100 % 1018.54 hPa
2021-11-06 16:28:46 11.53 ℃ 100 % 1018.63 hPa
2021-11-06 16:18:46 11.49 ℃ 100 % 1018.74 hPa
2021-11-06 16:08:46 11.61 ℃ 100 % 1018.84 hPa
2021-11-06 15:58:46 11.69 ℃ 100 % 1018.93 hPa
2021-11-06 15:48:46 11.88 ℃ 100 % 1019.03 hPa
2021-11-06 15:38:46 11.83 ℃ 100 % 1019.2 hPa
2021-11-06 15:28:46 11.84 ℃ 100 % 1019.34 hPa
2021-11-06 15:18:46 11.86 ℃ 100 % 1019.5 hPa
2021-11-06 15:08:46 11.86 ℃ 100 % 1019.63 hPa
2021-11-06 14:58:46 11.9 ℃ 100 % 1019.77 hPa
2021-11-06 14:48:46 11.85 ℃ 100 % 1019.89 hPa
2021-11-06 14:38:46 11.84 ℃ 100 % 1020.05 hPa
2021-11-06 14:28:46 11.92 ℃ 100 % 1020.25 hPa
2021-11-06 14:18:46 11.92 ℃ 100 % 1020.42 hPa
2021-11-06 14:08:46 12.03 ℃ 100 % 1020.54 hPa
2021-11-06 13:58:46 12.04 ℃ 100 % 1020.59 hPa
2021-11-06 13:48:46 11.98 ℃ 100 % 1020.68 hPa
2021-11-06 13:38:46 11.99 ℃ 100 % 1020.83 hPa
2021-11-06 13:28:46 12.07 ℃ 100 % 1020.92 hPa
2021-11-06 13:18:46 12.03 ℃ 100 % 1020.99 hPa
2021-11-06 13:08:47 11.87 ℃ 100 % 1021.04 hPa
2021-11-06 12:58:46 11.97 ℃ 100 % 1021.1 hPa
2021-11-06 12:48:46 11.93 ℃ 100 % 1021.18 hPa
2021-11-06 12:38:46 11.83 ℃ 100 % 1021.28 hPa
2021-11-06 12:28:46 11.77 ℃ 100 % 1021.39 hPa
2021-11-06 12:18:46 11.77 ℃ 100 % 1021.48 hPa
2021-11-06 12:08:46 11.84 ℃ 100 % 1021.57 hPa
2021-11-06 11:58:46 11.83 ℃ 100 % 1021.65 hPa
2021-11-06 11:48:46 11.86 ℃ 100 % 1021.78 hPa
2021-11-06 11:38:46 11.76 ℃ 100 % 1021.94 hPa
2021-11-06 11:28:46 11.74 ℃ 100 % 1022.02 hPa
2021-11-06 11:18:46 11.78 ℃ 100 % 1022.08 hPa
2021-11-06 11:08:46 11.94 ℃ 100 % 1022.12 hPa
2021-11-06 10:58:46 11.78 ℃ 100 % 1022.12 hPa
2021-11-06 10:48:46 11.67 ℃ 100 % 1022.12 hPa
2021-11-06 10:38:46 11.62 ℃ 100 % 1022.16 hPa
2021-11-06 10:28:46 11.53 ℃ 100 % 1022.16 hPa
2021-11-06 10:18:46 11.6 ℃ 100 % 1022.2 hPa
2021-11-06 10:08:46 11.49 ℃ 100 % 1022.26 hPa
2021-11-06 09:58:46 11.53 ℃ 100 % 1022.34 hPa
2021-11-06 09:48:46 11.61 ℃ 100 % 1022.38 hPa
2021-11-06 09:38:47 11.78 ℃ 100 % 1022.42 hPa
2021-11-06 09:28:46 11.68 ℃ 100 % 1022.37 hPa
2021-11-06 09:18:46 11.8 ℃ 100 % 1022.37 hPa
2021-11-06 09:08:46 11.81 ℃ 100 % 1022.36 hPa
2021-11-06 08:58:46 11.76 ℃ 100 % 1022.34 hPa
2021-11-06 08:48:46 11.72 ℃ 100 % 1022.31 hPa
2021-11-06 08:38:46 11.76 ℃ 100 % 1022.3 hPa
2021-11-06 08:28:46 11.78 ℃ 100 % 1022.26 hPa
2021-11-06 08:18:46 11.79 ℃ 100 % 1022.26 hPa
2021-11-06 08:08:46 11.73 ℃ 100 % 1022.2 hPa
2021-11-06 07:58:46 11.74 ℃ 100 % 1022.12 hPa
2021-11-06 07:48:46 11.76 ℃ 100 % 1022.03 hPa
2021-11-06 07:38:46 11.55 ℃ 100 % 1021.99 hPa
2021-11-06 07:28:47 11.54 ℃ 100 % 1021.92 hPa
2021-11-06 07:18:47 11.55 ℃ 100 % 1021.92 hPa
2021-11-06 07:08:47 11.55 ℃ 100 % 1021.91 hPa
2021-11-06 06:58:47 11.62 ℃ 100 % 1021.89 hPa
2021-11-06 06:48:47 11.66 ℃ 100 % 1021.9 hPa
2021-11-06 06:38:47 11.6 ℃ 100 % 1021.84 hPa
2021-11-06 06:28:47 11.68 ℃ 100 % 1021.82 hPa
2021-11-06 06:18:47 11.68 ℃ 100 % 1021.76 hPa
2021-11-06 06:08:47 11.78 ℃ 100 % 1021.69 hPa
2021-11-06 05:58:47 11.72 ℃ 100 % 1021.67 hPa
2021-11-06 05:48:47 11.67 ℃ 100 % 1021.7 hPa
2021-11-06 05:38:47 11.7 ℃ 100 % 1021.72 hPa
2021-11-06 05:28:47 11.73 ℃ 100 % 1021.68 hPa
2021-11-06 05:18:47 11.78 ℃ 100 % 1021.65 hPa
2021-11-06 05:08:47 11.82 ℃ 100 % 1021.64 hPa
2021-11-06 04:58:47 11.86 ℃ 100 % 1021.68 hPa
2021-11-06 04:48:47 11.76 ℃ 100 % 1021.73 hPa
2021-11-06 04:38:47 11.92 ℃ 100 % 1021.69 hPa
2021-11-06 04:28:47 11.9 ℃ 100 % 1021.68 hPa
2021-11-06 04:18:47 11.75 ℃ 100 % 1021.67 hPa
2021-11-06 04:08:47 11.68 ℃ 100 % 1021.57 hPa
2021-11-06 03:58:47 11.65 ℃ 100 % 1021.54 hPa
2021-11-06 03:48:47 11.69 ℃ 100 % 1021.55 hPa
2021-11-06 03:38:47 11.66 ℃ 100 % 1021.56 hPa
2021-11-06 03:28:47 11.72 ℃ 100 % 1021.53 hPa
2021-11-06 03:18:47 11.82 ℃ 100 % 1021.56 hPa
2021-11-06 03:08:47 11.78 ℃ 100 % 1021.63 hPa
2021-11-06 02:58:47 11.89 ℃ 100 % 1021.66 hPa
2021-11-06 02:48:48 11.66 ℃ 100 % 1021.66 hPa
2021-11-06 02:38:47 11.61 ℃ 100 % 1021.74 hPa
2021-11-06 02:28:47 11.71 ℃ 100 % 1021.77 hPa
2021-11-06 02:18:47 11.66 ℃ 100 % 1021.74 hPa
2021-11-06 02:08:47 11.82 ℃ 100 % 1021.69 hPa
2021-11-06 01:58:47 11.96 ℃ 100 % 1021.69 hPa
2021-11-06 01:48:47 11.94 ℃ 100 % 1021.69 hPa
2021-11-06 01:38:47 11.63 ℃ 100 % 1021.68 hPa
2021-11-06 01:28:47 11.42 ℃ 100 % 1021.67 hPa
2021-11-06 01:18:47 11.48 ℃ 100 % 1021.67 hPa
2021-11-06 01:08:47 11.55 ℃ 100 % 1021.65 hPa
2021-11-06 00:58:47 11.77 ℃ 100 % 1021.6 hPa
2021-11-06 00:48:47 11.83 ℃ 100 % 1021.54 hPa
2021-11-06 00:38:47 11.75 ℃ 100 % 1021.54 hPa
2021-11-06 00:28:47 11.81 ℃ 100 % 1021.53 hPa
2021-11-06 00:18:47 11.78 ℃ 100 % 1021.5 hPa
2021-11-06 00:08:47 11.77 ℃ 100 % 1021.47 hPa
2021-11-05 23:58:47 11.61 ℃ 100 % 1021.38 hPa
2021-11-05 23:48:47 11.51 ℃ 100 % 1021.37 hPa
2021-11-05 23:38:47 11.45 ℃ 100 % 1021.35 hPa
2021-11-05 23:28:47 11.49 ℃ 100 % 1021.35 hPa
2021-11-05 23:18:47 11.39 ℃ 100 % 1021.38 hPa
2021-11-05 23:08:47 11.42 ℃ 100 % 1021.36 hPa
2021-11-05 22:58:47 11.43 ℃ 100 % 1021.34 hPa
2021-11-05 22:48:47 11.36 ℃ 100 % 1021.27 hPa
2021-11-05 22:38:47 11.42 ℃ 100 % 1021.22 hPa
2021-11-05 22:28:47 11.51 ℃ 100 % 1021.15 hPa
2021-11-05 22:18:47 11.5 ℃ 100 % 1021.04 hPa
2021-11-05 22:08:47 11.57 ℃ 100 % 1020.88 hPa
2021-11-05 21:58:47 11.64 ℃ 100 % 1020.8 hPa
2021-11-05 21:48:47 11.58 ℃ 100 % 1020.73 hPa
2021-11-05 21:38:47 11.51 ℃ 100 % 1020.59 hPa
2021-11-05 21:28:47 11.4 ℃ 100 % 1020.52 hPa
2021-11-05 21:18:47 11.51 ℃ 100 % 1020.48 hPa
2021-11-05 21:08:47 11.56 ℃ 100 % 1020.44 hPa
2021-11-05 20:58:48 11.5 ℃ 100 % 1020.41 hPa
2021-11-05 20:48:48 11.42 ℃ 100 % 1020.44 hPa
2021-11-05 20:38:48 11.25 ℃ 100 % 1020.41 hPa
2021-11-05 20:28:48 11.24 ℃ 100 % 1020.34 hPa
2021-11-05 20:18:48 11.12 ℃ 100 % 1020.35 hPa
2021-11-05 20:08:48 11.17 ℃ 100 % 1020.31 hPa
2021-11-05 19:58:48 11.24 ℃ 100 % 1020.28 hPa
2021-11-05 19:48:48 11.24 ℃ 100 % 1020.28 hPa
2021-11-05 19:38:48 11.14 ℃ 100 % 1020.28 hPa
2021-11-05 19:28:48 11.09 ℃ 100 % 1020.3 hPa
2021-11-05 19:18:48 11.08 ℃ 100 % 1020.29 hPa
2021-11-05 19:08:48 11.08 ℃ 100 % 1020.26 hPa
2021-11-05 18:58:48 11.24 ℃ 100 % 1020.18 hPa
2021-11-05 18:48:48 11.16 ℃ 100 % 1020.16 hPa
2021-11-05 18:38:48 11.21 ℃ 100 % 1020.12 hPa
2021-11-05 18:28:48 11.28 ℃ 100 % 1020.06 hPa
2021-11-05 18:18:48 11.34 ℃ 100 % 1020 hPa
2021-11-05 18:08:48 11.44 ℃ 100 % 1019.96 hPa
2021-11-05 17:58:48 11.5 ℃ 100 % 1019.89 hPa
2021-11-05 17:48:48 11.54 ℃ 100 % 1019.83 hPa
2021-11-05 17:38:48 11.58 ℃ 100 % 1019.78 hPa
2021-11-05 17:28:48 11.64 ℃ 100 % 1019.78 hPa
2021-11-05 17:18:48 11.76 ℃ 100 % 1019.72 hPa
2021-11-05 17:08:48 11.8 ℃ 100 % 1019.65 hPa
2021-11-05 16:58:48 11.85 ℃ 100 % 1019.57 hPa
2021-11-05 16:48:48 12.2 ℃ 100 % 1019.45 hPa
2021-11-05 16:38:48 12.47 ℃ 100 % 1019.33 hPa
2021-11-05 16:28:48 12.56 ℃ 100 % 1019.21 hPa
2021-11-05 16:18:48 12.47 ℃ 100 % 1019.18 hPa
2021-11-05 16:08:48 12.57 ℃ 100 % 1019.05 hPa
2021-11-05 15:58:48 12.53 ℃ 100 % 1018.98 hPa
2021-11-05 15:48:48 12.73 ℃ 100 % 1018.91 hPa
2021-11-05 15:38:48 12.56 ℃ 100 % 1018.82 hPa
2021-11-05 15:28:48 12.64 ℃ 100 % 1018.77 hPa
2021-11-05 15:18:48 12.69 ℃ 100 % 1018.79 hPa
2021-11-05 15:08:48 12.54 ℃ 100 % 1018.69 hPa
2021-11-05 14:58:48 12.42 ℃ 100 % 1018.58 hPa
2021-11-05 14:48:48 12.74 ℃ 100 % 1018.52 hPa
2021-11-05 14:38:48 12.67 ℃ 100 % 1018.41 hPa
2021-11-05 14:28:48 12.81 ℃ 100 % 1018.25 hPa
2021-11-05 14:18:48 13.16 ℃ 100 % 1018.19 hPa
2021-11-05 14:08:48 13.46 ℃ 100 % 1018.1 hPa
2021-11-05 13:58:48 13.49 ℃ 100 % 1018.05 hPa
2021-11-05 13:48:48 13.45 ℃ 100 % 1017.93 hPa
2021-11-05 13:38:48 13.53 ℃ 100 % 1017.81 hPa
2021-11-05 13:28:48 13.75 ℃ 100 % 1017.74 hPa
2021-11-05 13:18:48 13.79 ℃ 100 % 1017.7 hPa
2021-11-05 13:08:48 13.6 ℃ 100 % 1017.67 hPa
2021-11-05 12:58:48 13.59 ℃ 100 % 1017.62 hPa
2021-11-05 12:48:48 13.69 ℃ 100 % 1017.62 hPa
2021-11-05 12:38:48 13.62 ℃ 100 % 1017.61 hPa
2021-11-05 12:28:48 13.54 ℃ 100 % 1017.57 hPa
2021-11-05 12:18:48 13.6 ℃ 100 % 1017.56 hPa
2021-11-05 12:08:48 13.59 ℃ 100 % 1017.56 hPa
2021-11-05 11:58:48 13.21 ℃ 100 % 1017.57 hPa
2021-11-05 11:48:48 12.86 ℃ 100 % 1017.51 hPa
2021-11-05 11:38:48 12.68 ℃ 100 % 1017.44 hPa
2021-11-05 11:28:48 12.59 ℃ 100 % 1017.39 hPa
2021-11-05 11:18:49 12.25 ℃ 100 % 1017.33 hPa
2021-11-05 11:08:48 12.28 ℃ 100 % 1017.26 hPa
2021-11-05 10:58:48 12.18 ℃ 100 % 1017.15 hPa
2021-11-05 10:48:48 12.22 ℃ 100 % 1017.06 hPa
2021-11-05 10:38:48 11.98 ℃ 100 % 1016.92 hPa
2021-11-05 10:28:49 11.87 ℃ 100 % 1016.81 hPa
2021-11-05 10:18:48 11.85 ℃ 100 % 1016.73 hPa
2021-11-05 10:08:49 11.82 ℃ 100 % 1016.61 hPa
2021-11-05 09:58:49 11.81 ℃ 100 % 1016.54 hPa
2021-11-05 09:48:49 11.66 ℃ 100 % 1016.46 hPa
2021-11-05 09:38:49 11.02 ℃ 100 % 1016.34 hPa
2021-11-05 09:28:49 10.87 ℃ 100 % 1016.19 hPa
2021-11-05 09:18:49 10.86 ℃ 100 % 1016.03 hPa
2021-11-05 09:08:49 10.59 ℃ 100 % 1015.95 hPa
2021-11-05 08:58:49 10.32 ℃ 100 % 1015.82 hPa
2021-11-05 08:48:49 10 ℃ 100 % 1015.69 hPa
2021-11-05 08:38:49 9.7 ℃ 100 % 1015.52 hPa
2021-11-05 08:28:49 9.44 ℃ 100 % 1015.35 hPa
2021-11-05 08:18:49 8.89 ℃ 100 % 1015.16 hPa
2021-11-05 08:08:49 8.53 ℃ 100 % 1014.98 hPa
2021-11-05 07:58:49 8.44 ℃ 100 % 1014.8 hPa
2021-11-05 07:48:49 8.27 ℃ 100 % 1014.69 hPa
2021-11-05 07:38:49 8.2 ℃ 100 % 1014.56 hPa
2021-11-05 07:28:49 8.02 ℃ 100 % 1014.44 hPa
2021-11-05 07:18:49 8.02 ℃ 100 % 1014.3 hPa
2021-11-05 07:08:49 7.92 ℃ 100 % 1014.16 hPa
2021-11-05 06:58:49 7.98 ℃ 100 % 1013.99 hPa
2021-11-05 06:48:49 7.92 ℃ 100 % 1013.88 hPa
2021-11-05 06:38:49 7.79 ℃ 100 % 1013.74 hPa
2021-11-05 06:28:49 7.68 ℃ 100 % 1013.6 hPa
2021-11-05 06:18:49 7.72 ℃ 100 % 1013.48 hPa
2021-11-05 06:08:49 7.81 ℃ 100 % 1013.38 hPa
2021-11-05 05:58:49 7.93 ℃ 100 % 1013.29 hPa
2021-11-05 05:48:49 7.94 ℃ 100 % 1013.15 hPa
2021-11-05 05:38:49 7.94 ℃ 100 % 1013.06 hPa
2021-11-05 05:28:49 7.91 ℃ 100 % 1012.93 hPa
2021-11-05 05:18:49 8.05 ℃ 100 % 1012.81 hPa
2021-11-05 05:08:49 8.15 ℃ 100 % 1012.69 hPa
2021-11-05 04:58:49 8.17 ℃ 100 % 1012.54 hPa
2021-11-05 04:48:49 8.31 ℃ 100 % 1012.41 hPa
2021-11-05 04:38:49 7.99 ℃ 100 % 1012.28 hPa
2021-11-05 04:28:49 7.99 ℃ 100 % 1012.15 hPa
2021-11-05 04:18:49 8.07 ℃ 100 % 1012 hPa
2021-11-05 04:08:49 8.04 ℃ 100 % 1011.87 hPa
2021-11-05 03:58:49 8.27 ℃ 100 % 1011.73 hPa
2021-11-05 03:48:49 8.25 ℃ 100 % 1011.59 hPa
2021-11-05 03:38:49 8.26 ℃ 100 % 1011.47 hPa
2021-11-05 03:28:49 8.31 ℃ 100 % 1011.37 hPa
2021-11-05 03:18:49 8.54 ℃ 100 % 1011.23 hPa
2021-11-05 03:08:49 8.68 ℃ 100 % 1011.13 hPa
2021-11-05 02:58:49 8.68 ℃ 100 % 1011.01 hPa
2021-11-05 02:48:49 8.59 ℃ 100 % 1010.89 hPa
2021-11-05 02:38:49 8.52 ℃ 100 % 1010.78 hPa
2021-11-05 02:28:49 8.51 ℃ 100 % 1010.71 hPa
2021-11-05 02:18:49 8.55 ℃ 100 % 1010.62 hPa
2021-11-05 02:08:49 8.51 ℃ 100 % 1010.52 hPa
2021-11-05 01:58:49 8.53 ℃ 100 % 1010.41 hPa
2021-11-05 01:48:50 8.49 ℃ 100 % 1010.28 hPa
2021-11-05 01:38:49 8.54 ℃ 100 % 1010.15 hPa
2021-11-05 01:28:49 8.6 ℃ 100 % 1010.07 hPa
2021-11-05 01:18:49 8.62 ℃ 100 % 1009.95 hPa
2021-11-05 01:08:49 8.62 ℃ 100 % 1009.85 hPa
2021-11-05 00:58:49 8.58 ℃ 100 % 1009.72 hPa
2021-11-05 00:48:49 8.6 ℃ 100 % 1009.64 hPa
2021-11-05 00:38:49 8.7 ℃ 100 % 1009.48 hPa
2021-11-05 00:28:49 8.72 ℃ 100 % 1009.38 hPa
2021-11-05 00:18:50 8.83 ℃ 100 % 1009.21 hPa
2021-11-05 00:08:49 8.93 ℃ 100 % 1009.07 hPa
2021-11-04 23:58:50 9.09 ℃ 100 % 1008.95 hPa
2021-11-04 23:48:50 9.13 ℃ 100 % 1008.83 hPa
2021-11-04 23:38:50 9.2 ℃ 100 % 1008.69 hPa
2021-11-04 23:28:49 9.23 ℃ 100 % 1008.51 hPa
2021-11-04 23:18:50 9.22 ℃ 100 % 1008.38 hPa
2021-11-04 23:08:50 9.26 ℃ 100 % 1008.26 hPa
2021-11-04 22:58:50 9.2 ℃ 100 % 1008.19 hPa
2021-11-04 22:48:50 9.25 ℃ 100 % 1008.12 hPa
2021-11-04 22:38:50 9.33 ℃ 100 % 1008.04 hPa
2021-11-04 22:28:50 9.44 ℃ 100 % 1007.97 hPa
2021-11-04 22:18:50 9.5 ℃ 100 % 1007.89 hPa
2021-11-04 22:08:50 9.43 ℃ 100 % 1007.77 hPa
2021-11-04 21:58:50 9.51 ℃ 100 % 1007.69 hPa
2021-11-04 21:48:50 9.5 ℃ 100 % 1007.56 hPa
2021-11-04 21:38:50 9.47 ℃ 100 % 1007.47 hPa
2021-11-04 21:28:50 9.51 ℃ 100 % 1007.37 hPa
2021-11-04 21:18:50 9.54 ℃ 100 % 1007.23 hPa
2021-11-04 21:08:50 9.51 ℃ 100 % 1007.11 hPa
2021-11-04 20:58:50 9.6 ℃ 100 % 1007.04 hPa
2021-11-04 20:48:50 9.56 ℃ 100 % 1006.95 hPa
2021-11-04 20:38:50 9.62 ℃ 100 % 1006.83 hPa
2021-11-04 20:28:50 9.56 ℃ 100 % 1006.71 hPa
2021-11-04 20:18:50 9.5 ℃ 100 % 1006.62 hPa
2021-11-04 20:08:50 9.54 ℃ 100 % 1006.51 hPa
2021-11-04 19:58:50 9.59 ℃ 100 % 1006.44 hPa
2021-11-04 19:48:50 9.68 ℃ 100 % 1006.34 hPa
2021-11-04 19:38:50 9.74 ℃ 100 % 1006.23 hPa
2021-11-04 19:28:50 9.72 ℃ 100 % 1006.15 hPa
2021-11-04 19:18:50 9.55 ℃ 100 % 1006.06 hPa
2021-11-04 19:08:53 9.56 ℃ 100 % 1005.94 hPa
2021-11-04 18:58:50 9.58 ℃ 100 % 1005.88 hPa
2021-11-04 18:48:50 9.61 ℃ 100 % 1005.82 hPa
2021-11-04 18:38:50 9.55 ℃ 100 % 1005.78 hPa
2021-11-04 18:28:50 9.61 ℃ 100 % 1005.71 hPa
2021-11-04 18:18:50 9.75 ℃ 100 % 1005.6 hPa
2021-11-04 18:08:50 9.68 ℃ 100 % 1005.52 hPa
2021-11-04 17:58:50 9.76 ℃ 100 % 1005.44 hPa
2021-11-04 17:48:50 9.71 ℃ 100 % 1005.34 hPa
2021-11-04 17:38:50 9.67 ℃ 100 % 1005.25 hPa
2021-11-04 17:28:50 9.74 ℃ 100 % 1005.16 hPa
2021-11-04 17:18:50 9.65 ℃ 100 % 1005.1 hPa
2021-11-04 17:08:51 9.63 ℃ 100 % 1004.99 hPa
2021-11-04 16:58:50 9.6 ℃ 100 % 1004.93 hPa
2021-11-04 16:48:50 9.61 ℃ 100 % 1004.87 hPa
2021-11-04 16:38:50 9.6 ℃ 100 % 1004.84 hPa
2021-11-04 16:28:50 9.59 ℃ 100 % 1004.83 hPa
2021-11-04 16:18:50 9.54 ℃ 100 % 1004.79 hPa
2021-11-04 16:08:50 9.59 ℃ 100 % 1004.8 hPa
2021-11-04 15:58:50 9.62 ℃ 100 % 1004.77 hPa
2021-11-04 15:48:50 9.62 ℃ 100 % 1004.75 hPa
2021-11-04 15:38:50 9.64 ℃ 100 % 1004.79 hPa
2021-11-04 15:28:50 9.59 ℃ 100 % 1004.76 hPa
2021-11-04 15:18:50 9.67 ℃ 100 % 1004.67 hPa
2021-11-04 15:08:50 9.64 ℃ 100 % 1004.68 hPa
2021-11-04 14:58:50 9.65 ℃ 100 % 1004.7 hPa
2021-11-04 14:48:50 9.72 ℃ 100 % 1004.67 hPa
2021-11-04 14:38:50 9.73 ℃ 100 % 1004.7 hPa
2021-11-04 14:28:50 9.81 ℃ 100 % 1004.66 hPa
2021-11-04 14:18:50 9.82 ℃ 100 % 1004.66 hPa
2021-11-04 14:08:50 9.88 ℃ 100 % 1004.69 hPa
2021-11-04 13:58:50 9.92 ℃ 100 % 1004.68 hPa
2021-11-04 13:48:50 9.98 ℃ 100 % 1004.65 hPa
2021-11-04 13:38:51 10.03 ℃ 100 % 1004.67 hPa
2021-11-04 13:28:50 10.12 ℃ 100 % 1004.67 hPa
2021-11-04 13:18:50 10.18 ℃ 100 % 1004.68 hPa
2021-11-04 13:08:51 10.11 ℃ 100 % 1004.71 hPa
2021-11-04 12:58:51 10.12 ℃ 100 % 1004.74 hPa
2021-11-04 12:48:51 10.17 ℃ 100 % 1004.78 hPa
2021-11-04 12:38:51 10.21 ℃ 100 % 1004.83 hPa
2021-11-04 12:28:51 10.18 ℃ 100 % 1004.91 hPa
2021-11-04 12:18:51 10.22 ℃ 100 % 1004.98 hPa
2021-11-04 12:08:51 10.32 ℃ 100 % 1004.98 hPa
2021-11-04 11:58:51 10.3 ℃ 100 % 1005.03 hPa
2021-11-04 11:48:51 10.29 ℃ 100 % 1005.09 hPa
2021-11-04 11:38:51 10.26 ℃ 100 % 1005.15 hPa
2021-11-04 11:28:51 10.14 ℃ 100 % 1005.24 hPa
2021-11-04 11:18:51 10.23 ℃ 100 % 1005.33 hPa
2021-11-04 11:08:51 10.23 ℃ 100 % 1005.45 hPa
2021-11-04 10:58:51 10.05 ℃ 100 % 1005.51 hPa
2021-11-04 10:48:51 10.13 ℃ 100 % 1005.57 hPa
2021-11-04 10:38:51 10.02 ℃ 100 % 1005.58 hPa
2021-11-04 10:28:51 10.22 ℃ 100 % 1005.61 hPa
2021-11-04 10:18:51 10.07 ℃ 100 % 1005.63 hPa
2021-11-04 10:08:52 10.03 ℃ 100 % 1005.67 hPa
2021-11-04 09:58:51 10.04 ℃ 100 % 1005.64 hPa
2021-11-04 09:48:51 10.05 ℃ 100 % 1005.63 hPa
2021-11-04 09:38:51 9.84 ℃ 100 % 1005.65 hPa
2021-11-04 09:28:51 9.63 ℃ 100 % 1005.71 hPa
2021-11-04 09:18:51 9.65 ℃ 100 % 1005.74 hPa
2021-11-04 09:08:51 9.67 ℃ 100 % 1005.75 hPa
2021-11-04 08:58:51 9.69 ℃ 100 % 1005.74 hPa
2021-11-04 08:48:51 9.72 ℃ 100 % 1005.71 hPa
2021-11-04 08:38:51 9.8 ℃ 100 % 1005.72 hPa
2021-11-04 08:28:51 9.82 ℃ 100 % 1005.75 hPa
2021-11-04 08:18:51 10.05 ℃ 100 % 1005.69 hPa
2021-11-04 08:08:51 10.25 ℃ 100 % 1005.63 hPa
2021-11-04 07:58:51 10.47 ℃ 100 % 1005.56 hPa
2021-11-04 07:48:51 10.35 ℃ 100 % 1005.46 hPa
2021-11-04 07:38:51 10.15 ℃ 100 % 1005.41 hPa
2021-11-04 07:28:51 9.99 ℃ 100 % 1005.32 hPa
2021-11-04 07:18:51 9.98 ℃ 100 % 1005.25 hPa
2021-11-04 07:08:51 9.85 ℃ 100 % 1005.18 hPa
2021-11-04 06:58:51 9.73 ℃ 100 % 1005.18 hPa
2021-11-04 06:48:51 9.52 ℃ 100 % 1005.16 hPa
2021-11-04 06:38:51 9.45 ℃ 100 % 1005.12 hPa
2021-11-04 06:28:51 9.45 ℃ 100 % 1005.08 hPa
2021-11-04 06:18:51 9.62 ℃ 100 % 1005.06 hPa
2021-11-04 06:08:51 9.49 ℃ 100 % 1004.98 hPa
2021-11-04 05:58:51 9.59 ℃ 100 % 1005.02 hPa
2021-11-04 05:48:51 9.56 ℃ 100 % 1005.05 hPa
2021-11-04 05:38:51 9.64 ℃ 100 % 1005.13 hPa
2021-11-04 05:28:51 9.85 ℃ 100 % 1005.12 hPa
2021-11-04 05:18:51 9.82 ℃ 100 % 1005.11 hPa
2021-11-04 05:08:51 9.64 ℃ 100 % 1005.07 hPa
2021-11-04 04:58:51 9.36 ℃ 100 % 1005.13 hPa
2021-11-04 04:48:52 9.39 ℃ 100 % 1005.1 hPa
2021-11-04 04:38:51 9.44 ℃ 100 % 1005.14 hPa
2021-11-04 04:28:51 9.35 ℃ 100 % 1005.15 hPa
2021-11-04 04:18:51 9.24 ℃ 100 % 1005.19 hPa
2021-11-04 04:08:51 9.22 ℃ 100 % 1005.22 hPa
2021-11-04 03:58:51 9.25 ℃ 100 % 1005.22 hPa
2021-11-04 03:48:51 9.31 ℃ 100 % 1005.21 hPa
2021-11-04 03:38:51 9.32 ℃ 100 % 1005.28 hPa
2021-11-04 03:28:51 9.4 ℃ 100 % 1005.32 hPa
2021-11-04 03:18:51 9.41 ℃ 100 % 1005.3 hPa
2021-11-04 03:08:52 9.32 ℃ 100 % 1005.33 hPa
2021-11-04 02:58:52 9.45 ℃ 100 % 1005.36 hPa
2021-11-04 02:48:52 9.46 ℃ 100 % 1005.42 hPa
2021-11-04 02:38:51 9.61 ℃ 100 % 1005.44 hPa
2021-11-04 02:28:52 9.77 ℃ 100 % 1005.39 hPa
2021-11-04 02:18:52 9.71 ℃ 100 % 1005.44 hPa
2021-11-04 02:08:52 9.62 ℃ 100 % 1005.5 hPa
2021-11-04 01:58:52 9.79 ℃ 100 % 1005.53 hPa
2021-11-04 01:48:52 10.33 ℃ 100 % 1005.57 hPa
2021-11-04 01:38:52 10.69 ℃ 100 % 1005.57 hPa
2021-11-04 01:28:52 10.95 ℃ 100 % 1005.54 hPa
2021-11-04 01:18:52 10.34 ℃ 100 % 1005.52 hPa
2021-11-04 01:08:52 10 ℃ 100 % 1005.55 hPa
2021-11-04 00:58:52 10.26 ℃ 100 % 1005.56 hPa
2021-11-04 00:48:52 10.1 ℃ 100 % 1005.58 hPa
2021-11-04 00:38:52 9.81 ℃ 100 % 1005.63 hPa
2021-11-04 00:28:52 9.67 ℃ 100 % 1005.63 hPa
2021-11-04 00:18:52 10.15 ℃ 100 % 1005.69 hPa
2021-11-04 00:08:52 10.2 ℃ 100 % 1005.69 hPa
2021-11-03 23:58:52 10.32 ℃ 100 % 1005.66 hPa
2021-11-03 23:48:52 10.22 ℃ 100 % 1005.71 hPa
2021-11-03 23:38:52 10.46 ℃ 100 % 1005.66 hPa
2021-11-03 23:28:52 10.52 ℃ 100 % 1005.7 hPa
2021-11-03 23:18:52 10.32 ℃ 100 % 1005.74 hPa
2021-11-03 23:08:52 10.57 ℃ 100 % 1005.73 hPa
2021-11-03 22:58:52 10.7 ℃ 100 % 1005.69 hPa
2021-11-03 22:48:52 10.71 ℃ 100 % 1005.65 hPa
2021-11-03 22:38:52 10.63 ℃ 100 % 1005.59 hPa
2021-11-03 22:28:52 10.99 ℃ 100 % 1005.53 hPa
2021-11-03 22:18:52 10.38 ℃ 100 % 1005.48 hPa
2021-11-03 22:08:52 10.21 ℃ 100 % 1005.53 hPa
2021-11-03 21:58:52 10.51 ℃ 100 % 1005.5 hPa
2021-11-03 21:48:52 10.28 ℃ 100 % 1005.48 hPa
2021-11-03 21:38:52 10.51 ℃ 100 % 1005.44 hPa
2021-11-03 21:28:52 10.48 ℃ 100 % 1005.38 hPa
2021-11-03 21:18:52 10.16 ℃ 100 % 1005.35 hPa
2021-11-03 21:08:52 10.47 ℃ 100 % 1005.3 hPa
2021-11-03 20:58:52 10.76 ℃ 100 % 1005.21 hPa
2021-11-03 20:48:52 10.56 ℃ 100 % 1005.13 hPa
2021-11-03 20:38:52 10.14 ℃ 100 % 1005.09 hPa
2021-11-03 20:28:52 10.53 ℃ 100 % 1005.04 hPa
2021-11-03 20:18:52 10.69 ℃ 100 % 1004.99 hPa
2021-11-03 20:08:52 11.1 ℃ 100 % 1004.92 hPa
2021-11-03 19:58:52 11.41 ℃ 100 % 1004.87 hPa
2021-11-03 19:48:52 11.47 ℃ 100 % 1004.78 hPa
2021-11-03 19:38:52 11.58 ℃ 100 % 1004.7 hPa
2021-11-03 19:28:52 11.4 ℃ 100 % 1004.65 hPa
2021-11-03 19:18:52 11.27 ℃ 100 % 1004.58 hPa
2021-11-03 19:08:52 11.29 ℃ 100 % 1004.52 hPa
2021-11-03 18:58:52 11.2 ℃ 100 % 1004.45 hPa
2021-11-03 18:48:52 11.05 ℃ 100 % 1004.43 hPa
2021-11-03 18:38:52 11.09 ℃ 100 % 1004.37 hPa
2021-11-03 18:28:52 11.29 ℃ 100 % 1004.39 hPa
2021-11-03 18:18:52 11.15 ℃ 100 % 1004.34 hPa
2021-11-03 18:08:52 10.35 ℃ 100 % 1004.33 hPa
2021-11-03 17:58:52 10.34 ℃ 100 % 1004.29 hPa
2021-11-03 17:48:52 10.52 ℃ 100 % 1004.23 hPa
2021-11-03 17:38:52 10.84 ℃ 100 % 1004.18 hPa
2021-11-03 17:28:53 10.9 ℃ 100 % 1004.13 hPa
2021-11-03 17:18:52 11.68 ℃ 100 % 1004.09 hPa
2021-11-03 17:08:53 11.94 ℃ 100 % 1004.04 hPa
2021-11-03 16:58:52 11.54 ℃ 100 % 1003.97 hPa
2021-11-03 16:48:52 11.77 ℃ 100 % 1003.87 hPa
2021-11-03 16:38:52 11.78 ℃ 100 % 1003.81 hPa
2021-11-03 16:28:52 11.82 ℃ 100 % 1003.82 hPa
2021-11-03 16:18:52 12.08 ℃ 100 % 1003.77 hPa
2021-11-03 16:08:52 12.1 ℃ 100 % 1003.71 hPa
2021-11-03 15:58:52 12.34 ℃ 100 % 1003.64 hPa
2021-11-03 15:48:52 12.43 ℃ 100 % 1003.67 hPa
2021-11-03 15:38:53 12.68 ℃ 100 % 1003.68 hPa
2021-11-03 15:28:53 12.19 ℃ 100 % 1003.66 hPa
2021-11-03 15:18:53 12.08 ℃ 100 % 1003.61 hPa
2021-11-03 15:08:53 12.02 ℃ 100 % 1003.51 hPa
2021-11-03 14:58:53 12.09 ℃ 100 % 1003.4 hPa
2021-11-03 14:48:53 11.98 ℃ 100 % 1003.33 hPa
2021-11-03 14:38:53 11.86 ℃ 100 % 1003.35 hPa
2021-11-03 14:28:53 11.89 ℃ 100 % 1003.36 hPa
2021-11-03 14:18:53 11.81 ℃ 100 % 1003.35 hPa
2021-11-03 14:08:53 11.82 ℃ 100 % 1003.32 hPa
2021-11-03 13:58:53 11.63 ℃ 100 % 1003.31 hPa
2021-11-03 13:48:53 11.67 ℃ 100 % 1003.29 hPa
2021-11-03 13:38:53 11.85 ℃ 100 % 1003.24 hPa
2021-11-03 13:28:55 11.87 ℃ 100 % 1003.3 hPa
2021-11-03 13:18:53 12.11 ℃ 100 % 1003.42 hPa
2021-11-03 13:08:53 12.08 ℃ 100 % 1003.49 hPa
2021-11-03 12:58:53 12.07 ℃ 100 % 1003.55 hPa
2021-11-03 12:48:53 12.32 ℃ 100 % 1003.49 hPa
2021-11-03 12:38:53 12.28 ℃ 100 % 1003.46 hPa
2021-11-03 12:28:53 12.13 ℃ 100 % 1003.45 hPa
2021-11-03 12:18:53 12.39 ℃ 100 % 1003.46 hPa
2021-11-03 12:08:53 12.11 ℃ 100 % 1003.47 hPa
2021-11-03 11:58:53 11.99 ℃ 100 % 1003.52 hPa
2021-11-03 11:48:53 11.73 ℃ 100 % 1003.57 hPa
2021-11-03 11:38:54 11.87 ℃ 100 % 1003.56 hPa
2021-11-03 11:28:53 11.87 ℃ 100 % 1003.55 hPa
2021-11-03 11:18:53 11.69 ℃ 100 % 1003.5 hPa
2021-11-03 11:08:53 11.48 ℃ 100 % 1003.48 hPa
2021-11-03 10:58:53 11.51 ℃ 100 % 1003.49 hPa
2021-11-03 10:48:54 11.21 ℃ 100 % 1003.5 hPa
2021-11-03 10:38:53 11.09 ℃ 100 % 1003.51 hPa
2021-11-03 10:28:53 10.95 ℃ 100 % 1003.48 hPa
2021-11-03 10:18:53 10.65 ℃ 100 % 1003.44 hPa
2021-11-03 10:08:53 10.4 ℃ 100 % 1003.4 hPa
2021-11-03 09:58:53 10.28 ℃ 100 % 1003.36 hPa
2021-11-03 09:48:53 10.11 ℃ 100 % 1003.32 hPa
2021-11-03 09:38:53 9.5 ℃ 100 % 1003.26 hPa
2021-11-03 09:28:53 9.59 ℃ 100 % 1003.21 hPa
2021-11-03 09:18:53 9.61 ℃ 100 % 1003.2 hPa
2021-11-03 09:08:53 9.62 ℃ 100 % 1003.23 hPa
2021-11-03 08:58:53 9.72 ℃ 100 % 1003.24 hPa
2021-11-03 08:48:53 9.91 ℃ 100 % 1003.14 hPa
2021-11-03 08:38:53 9.78 ℃ 100 % 1003.05 hPa
2021-11-03 08:28:53 9.48 ℃ 100 % 1002.96 hPa
2021-11-03 08:18:53 9.14 ℃ 100 % 1002.87 hPa
2021-11-03 08:08:53 8.92 ℃ 100 % 1002.75 hPa
2021-11-03 07:58:56 8.74 ℃ 100 % 1002.7 hPa
2021-11-03 07:48:53 8.42 ℃ 100 % 1002.65 hPa
2021-11-03 07:38:53 8.1 ℃ 100 % 1002.65 hPa
2021-11-03 07:28:53 8.11 ℃ 100 % 1002.59 hPa
2021-11-03 07:18:53 8.34 ℃ 100 % 1002.51 hPa
2021-11-03 07:08:53 8.45 ℃ 100 % 1002.44 hPa
2021-11-03 06:58:53 8.31 ℃ 100 % 1002.4 hPa
2021-11-03 06:48:53 8.07 ℃ 100 % 1002.36 hPa
2021-11-03 06:38:53 8.13 ℃ 100 % 1002.33 hPa
2021-11-03 06:28:53 8.06 ℃ 100 % 1002.31 hPa
2021-11-03 06:18:53 8.23 ℃ 100 % 1002.3 hPa
2021-11-03 06:08:53 8.07 ℃ 100 % 1002.26 hPa
2021-11-03 05:58:53 7.99 ℃ 100 % 1002.24 hPa
2021-11-03 05:48:54 8.26 ℃ 100 % 1002.19 hPa
2021-11-03 05:38:53 8.42 ℃ 100 % 1002.13 hPa
2021-11-03 05:28:53 8.26 ℃ 100 % 1002.1 hPa
2021-11-03 05:18:53 8.01 ℃ 100 % 1002.07 hPa
2021-11-03 05:08:53 8.07 ℃ 100 % 1002.05 hPa
2021-11-03 04:58:53 8.05 ℃ 100 % 1002.04 hPa
2021-11-03 04:48:54 8.14 ℃ 100 % 1002.06 hPa
2021-11-03 04:38:54 8.13 ℃ 100 % 1002.02 hPa
2021-11-03 04:28:54 8.22 ℃ 100 % 1001.97 hPa
2021-11-03 04:18:54 8.59 ℃ 100 % 1001.93 hPa
2021-11-03 04:08:54 9.05 ℃ 100 % 1001.9 hPa
2021-11-03 03:58:54 8.71 ℃ 100 % 1001.89 hPa
2021-11-03 03:48:54 8.59 ℃ 100 % 1001.91 hPa
2021-11-03 03:38:54 8.69 ℃ 100 % 1001.92 hPa
2021-11-03 03:28:54 9.11 ℃ 100 % 1001.9 hPa
2021-11-03 03:18:54 9 ℃ 100 % 1001.92 hPa
2021-11-03 03:08:54 8.65 ℃ 100 % 1001.92 hPa
2021-11-03 02:48:54 9.48 ℃ 100 % 1001.99 hPa
2021-11-03 02:38:54 9.63 ℃ 100 % 1002.01 hPa
2021-11-03 02:28:54 9.73 ℃ 100 % 1002.04 hPa
2021-11-03 02:18:54 9.83 ℃ 100 % 1002.03 hPa
2021-11-03 02:08:54 9.74 ℃ 100 % 1002.03 hPa
2021-11-03 01:58:54 9.92 ℃ 100 % 1002.06 hPa
2021-11-03 01:48:54 9.87 ℃ 100 % 1002.07 hPa
2021-11-03 01:38:54 9.77 ℃ 100 % 1002.06 hPa
2021-11-03 01:28:54 9.83 ℃ 100 % 1002.05 hPa
2021-11-03 01:18:54 10.17 ℃ 100 % 1002.03 hPa
2021-11-03 01:08:54 10.2 ℃ 100 % 1002 hPa
2021-11-03 00:58:55 9.98 ℃ 100 % 1002.01 hPa
2021-11-03 00:48:54 9.91 ℃ 100 % 1002.02 hPa
2021-11-03 00:38:54 9.69 ℃ 100 % 1002.04 hPa
2021-11-03 00:28:54 9.5 ℃ 100 % 1002.03 hPa
2021-11-03 00:18:54 9.67 ℃ 100 % 1002.06 hPa
2021-11-03 00:08:54 10.43 ℃ 100 % 1002.05 hPa
2021-11-02 23:58:54 10.74 ℃ 100 % 1002.07 hPa
2021-11-02 23:48:54 10.61 ℃ 100 % 1002.09 hPa
2021-11-02 23:38:54 10.55 ℃ 100 % 1002.08 hPa
2021-11-02 23:28:54 10.53 ℃ 100 % 1002.13 hPa
2021-11-02 23:18:54 10.37 ℃ 100 % 1002.12 hPa
2021-11-02 23:08:54 10.44 ℃ 100 % 1002.09 hPa
2021-11-02 22:58:54 10.33 ℃ 100 % 1002.06 hPa
2021-11-02 22:48:54 10.87 ℃ 100 % 1002.03 hPa
2021-11-02 22:38:54 11.18 ℃ 100 % 1002.01 hPa
2021-11-02 22:28:54 11.24 ℃ 100 % 1002.04 hPa
2021-11-02 22:18:54 11.41 ℃ 100 % 1002.05 hPa
2021-11-02 22:08:54 11.38 ℃ 100 % 1002.05 hPa
2021-11-02 21:58:54 11.65 ℃ 100 % 1002.03 hPa
2021-11-02 21:48:54 11.48 ℃ 100 % 1002 hPa
2021-11-02 21:38:54 11.15 ℃ 100 % 1001.98 hPa
2021-11-02 21:28:54 11.4 ℃ 100 % 1001.92 hPa
2021-11-02 21:18:54 11.37 ℃ 100 % 1001.88 hPa
2021-11-02 21:08:54 11.08 ℃ 100 % 1001.84 hPa
2021-11-02 20:58:54 11.3 ℃ 100 % 1001.76 hPa
2021-11-02 20:48:54 12.23 ℃ 100 % 1001.64 hPa
2021-11-02 20:38:54 12.15 ℃ 100 % 1001.58 hPa
2021-11-02 20:28:55 12.02 ℃ 100 % 1001.53 hPa
2021-11-02 20:18:54 12.06 ℃ 100 % 1001.46 hPa
2021-11-02 20:08:54 12.34 ℃ 100 % 1001.38 hPa
2021-11-02 19:58:54 12.58 ℃ 100 % 1001.37 hPa
2021-11-02 19:48:54 12.61 ℃ 100 % 1001.32 hPa
2021-11-02 19:38:55 12.38 ℃ 100 % 1001.31 hPa
2021-11-02 19:28:55 12.23 ℃ 100 % 1001.27 hPa
2021-11-02 19:18:54 12.12 ℃ 100 % 1001.21 hPa
2021-11-02 19:08:54 12.18 ℃ 100 % 1001.21 hPa
2021-11-02 18:58:55 12.36 ℃ 100 % 1001.16 hPa
2021-11-02 18:48:54 12.33 ℃ 100 % 1001.12 hPa
2021-11-02 18:38:54 12.4 ℃ 100 % 1001.05 hPa
2021-11-02 18:28:55 12.35 ℃ 100 % 1000.98 hPa
2021-11-02 18:18:55 12.54 ℃ 100 % 1000.9 hPa
2021-11-02 18:08:54 12.62 ℃ 100 % 1000.85 hPa
2021-11-02 17:58:55 12.85 ℃ 100 % 1000.79 hPa
2021-11-02 17:48:55 12.9 ℃ 100 % 1000.75 hPa
2021-11-02 17:38:55 12.95 ℃ 100 % 1000.72 hPa
2021-11-02 17:28:55 13.2 ℃ 100 % 1000.7 hPa
2021-11-02 17:18:55 13.57 ℃ 100 % 1000.67 hPa
2021-11-02 17:08:55 13.87 ℃ 100 % 1000.62 hPa
2021-11-02 16:58:55 14.14 ℃ 100 % 1000.56 hPa
2021-11-02 16:48:55 14.34 ℃ 100 % 1000.51 hPa
2021-11-02 16:38:55 14.54 ℃ 100 % 1000.46 hPa
2021-11-02 16:28:55 14.59 ℃ 100 % 1000.44 hPa
2021-11-02 16:18:55 14.63 ℃ 100 % 1000.43 hPa
2021-11-02 16:08:55 14.62 ℃ 100 % 1000.41 hPa
2021-11-02 15:58:55 14.43 ℃ 100 % 1000.38 hPa
2021-11-02 15:48:55 13.94 ℃ 100 % 1000.36 hPa
2021-11-02 15:38:55 13.76 ℃ 100 % 1000.33 hPa
2021-11-02 15:28:55 13.77 ℃ 100 % 1000.3 hPa
2021-11-02 15:18:55 13.82 ℃ 100 % 1000.3 hPa
2021-11-02 15:08:55 13.91 ℃ 100 % 1000.3 hPa
2021-11-02 14:58:55 13.87 ℃ 100 % 1000.28 hPa
2021-11-02 14:48:55 13.86 ℃ 100 % 1000.24 hPa
2021-11-02 14:38:55 13.7 ℃ 100 % 1000.25 hPa
2021-11-02 14:28:55 13.78 ℃ 100 % 1000.21 hPa
2021-11-02 14:18:55 13.79 ℃ 100 % 1000.18 hPa
2021-11-02 14:08:55 14.01 ℃ 100 % 1000.14 hPa
2021-11-02 13:58:55 13.86 ℃ 100 % 1000.15 hPa
2021-11-02 13:48:55 13.75 ℃ 100 % 1000.22 hPa
2021-11-02 13:38:55 13.61 ℃ 100 % 1000.27 hPa
2021-11-02 13:28:55 13.33 ℃ 100 % 1000.32 hPa
2021-11-02 13:18:55 13.24 ℃ 100 % 1000.36 hPa
2021-11-02 13:08:55 13.48 ℃ 100 % 1000.39 hPa
2021-11-02 12:58:55 13.47 ℃ 100 % 1000.42 hPa
2021-11-02 12:48:55 13.51 ℃ 100 % 1000.42 hPa
2021-11-02 12:38:55 13.2 ℃ 100 % 1000.47 hPa
2021-11-02 12:28:55 13.42 ℃ 100 % 1000.54 hPa
2021-11-02 12:18:55 13.41 ℃ 100 % 1000.58 hPa
2021-11-02 12:08:55 13.39 ℃ 100 % 1000.61 hPa
2021-11-02 11:58:55 13.54 ℃ 100 % 1000.61 hPa
2021-11-02 11:48:55 13.55 ℃ 100 % 1000.59 hPa
2021-11-02 11:38:55 13.63 ℃ 100 % 1000.59 hPa
2021-11-02 11:28:55 13.56 ℃ 100 % 1000.64 hPa
2021-11-02 11:18:55 13.61 ℃ 100 % 1000.66 hPa
2021-11-02 11:08:55 13.06 ℃ 100 % 1000.74 hPa
2021-11-02 10:58:55 12.94 ℃ 100 % 1000.72 hPa
2021-11-02 10:48:55 13.02 ℃ 100 % 1000.75 hPa
2021-11-02 10:38:55 12.92 ℃ 100 % 1000.74 hPa
2021-11-02 10:28:55 13.04 ℃ 100 % 1000.75 hPa
2021-11-02 10:18:55 12.51 ℃ 100 % 1000.74 hPa
2021-11-02 10:08:55 12.21 ℃ 100 % 1000.77 hPa
2021-11-02 09:58:55 11.66 ℃ 100 % 1000.84 hPa
2021-11-02 09:48:55 11.92 ℃ 100 % 1000.86 hPa
2021-11-02 09:38:55 11.78 ℃ 100 % 1000.88 hPa
2021-11-02 09:28:55 11.28 ℃ 100 % 1000.96 hPa
2021-11-02 09:18:55 11.03 ℃ 100 % 1001.05 hPa
2021-11-02 09:08:55 10.75 ℃ 100 % 1001.11 hPa
2021-11-02 08:58:55 10.42 ℃ 100 % 1001.17 hPa
2021-11-02 08:48:56 10.09 ℃ 100 % 1001.18 hPa
2021-11-02 08:38:55 10.17 ℃ 100 % 1001.12 hPa
2021-11-02 08:28:55 10.27 ℃ 100 % 1001.08 hPa
2021-11-02 08:18:55 10.32 ℃ 100 % 1000.99 hPa
2021-11-02 08:08:55 10.37 ℃ 100 % 1000.9 hPa
2021-11-02 07:58:56 10.03 ℃ 100 % 1000.82 hPa
2021-11-02 07:48:55 9.86 ℃ 100 % 1000.76 hPa
2021-11-02 07:38:56 9.77 ℃ 100 % 1000.7 hPa
2021-11-02 07:28:56 9.67 ℃ 100 % 1000.65 hPa
2021-11-02 07:18:56 9.53 ℃ 100 % 1000.58 hPa
2021-11-02 07:08:56 9.64 ℃ 100 % 1000.55 hPa
2021-11-02 06:58:56 9.82 ℃ 100 % 1000.55 hPa
2021-11-02 06:48:56 9.76 ℃ 100 % 1000.54 hPa
2021-11-02 06:38:56 9.73 ℃ 100 % 1000.53 hPa
2021-11-02 06:28:56 9.84 ℃ 100 % 1000.55 hPa
2021-11-02 06:18:56 9.86 ℃ 100 % 1000.57 hPa
2021-11-02 06:08:56 9.85 ℃ 100 % 1000.57 hPa
2021-11-02 05:58:56 9.89 ℃ 100 % 1000.62 hPa
2021-11-02 05:48:56 9.87 ℃ 100 % 1000.61 hPa
2021-11-02 05:38:56 9.81 ℃ 100 % 1000.59 hPa
2021-11-02 05:28:56 9.98 ℃ 100 % 1000.6 hPa
2021-11-02 05:18:56 10.15 ℃ 100 % 1000.56 hPa
2021-11-02 05:08:56 10.37 ℃ 100 % 1000.53 hPa
2021-11-02 04:58:56 10.23 ℃ 100 % 1000.49 hPa
2021-11-02 04:48:56 10.28 ℃ 100 % 1000.4 hPa
2021-11-02 04:38:56 10.14 ℃ 100 % 1000.35 hPa
2021-11-02 04:28:56 10.42 ℃ 100 % 1000.29 hPa
2021-11-02 04:18:56 10.32 ℃ 100 % 1000.29 hPa
2021-11-02 04:08:56 10.38 ℃ 100 % 1000.34 hPa
2021-11-02 03:58:56 10.41 ℃ 100 % 1000.4 hPa
2021-11-02 03:48:56 10.2 ℃ 100 % 1000.41 hPa
2021-11-02 03:38:56 10.41 ℃ 100 % 1000.38 hPa
2021-11-02 03:28:56 10.5 ℃ 100 % 1000.35 hPa
2021-11-02 03:18:56 10.64 ℃ 100 % 1000.38 hPa
2021-11-02 03:08:56 10.7 ℃ 100 % 1000.38 hPa
2021-11-02 02:58:56 10.51 ℃ 100 % 1000.43 hPa
2021-11-02 02:48:56 10.29 ℃ 100 % 1000.48 hPa
2021-11-02 02:38:56 10.07 ℃ 100 % 1000.52 hPa
2021-11-02 02:28:56 10.23 ℃ 100 % 1000.6 hPa
2021-11-02 02:18:56 10.46 ℃ 100 % 1000.61 hPa
2021-11-02 02:08:56 10.6 ℃ 100 % 1000.68 hPa
2021-11-02 01:58:56 10.6 ℃ 100 % 1000.71 hPa
2021-11-02 01:48:56 10.64 ℃ 100 % 1000.72 hPa
2021-11-02 01:38:56 10.62 ℃ 100 % 1000.67 hPa
2021-11-02 01:28:56 10.56 ℃ 100 % 1000.7 hPa
2021-11-02 01:18:56 10.45 ℃ 100 % 1000.73 hPa
2021-11-02 01:08:56 10.32 ℃ 100 % 1000.78 hPa
2021-11-02 00:58:56 10.34 ℃ 100 % 1000.8 hPa
2021-11-02 00:48:56 10.36 ℃ 100 % 1000.81 hPa
2021-11-02 00:38:56 10.54 ℃ 100 % 1000.82 hPa
2021-11-02 00:28:56 10.65 ℃ 100 % 1000.83 hPa
2021-11-02 00:18:56 10.82 ℃ 100 % 1000.84 hPa
2021-11-02 00:08:56 11.02 ℃ 100 % 1000.88 hPa
2021-11-01 23:58:56 10.98 ℃ 100 % 1000.94 hPa
2021-11-01 23:48:56 11.03 ℃ 100 % 1001.05 hPa
2021-11-01 23:38:56 11.12 ℃ 100 % 1001.13 hPa
2021-11-01 23:28:56 11.31 ℃ 100 % 1001.15 hPa
2021-11-01 23:18:56 11.34 ℃ 100 % 1001.23 hPa
2021-11-01 23:08:56 11.55 ℃ 100 % 1001.28 hPa
2021-11-01 22:58:56 11.54 ℃ 100 % 1001.28 hPa
2021-11-01 22:48:56 11.31 ℃ 100 % 1001.31 hPa
2021-11-01 22:38:56 11.18 ℃ 100 % 1001.37 hPa
2021-11-01 22:28:56 11.44 ℃ 100 % 1001.38 hPa
2021-11-01 22:18:56 11.61 ℃ 100 % 1001.4 hPa
2021-11-01 22:08:57 11.54 ℃ 100 % 1001.36 hPa
2021-11-01 21:58:57 11.61 ℃ 100 % 1001.3 hPa
2021-11-01 21:48:57 11.92 ℃ 100 % 1001.26 hPa
2021-11-01 21:38:57 11.92 ℃ 100 % 1001.36 hPa
2021-11-01 21:28:56 12.01 ℃ 100 % 1001.33 hPa
2021-11-01 21:18:56 12.08 ℃ 100 % 1001.27 hPa
2021-11-01 21:08:56 12.09 ℃ 100 % 1001.23 hPa
2021-11-01 20:58:56 12.13 ℃ 100 % 1001.22 hPa
2021-11-01 20:48:57 12.24 ℃ 100 % 1001.23 hPa
2021-11-01 20:38:57 12.01 ℃ 100 % 1001.25 hPa
2021-11-01 20:28:57 11.92 ℃ 100 % 1001.26 hPa
2021-11-01 20:18:57 11.76 ℃ 100 % 1001.26 hPa
2021-11-01 20:08:57 11.83 ℃ 100 % 1001.22 hPa
2021-11-01 19:58:57 11.8 ℃ 100 % 1001.14 hPa
2021-11-01 19:48:57 11.85 ℃ 100 % 1001.11 hPa
2021-11-01 19:38:57 12.01 ℃ 100 % 1001.05 hPa
2021-11-01 19:28:57 11.9 ℃ 100 % 1001.01 hPa
2021-11-01 19:18:57 12 ℃ 100 % 1000.97 hPa
2021-11-01 19:08:57 12.1 ℃ 100 % 1000.94 hPa
2021-11-01 18:58:57 12.25 ℃ 100 % 1000.95 hPa
2021-11-01 18:48:57 12.39 ℃ 100 % 1000.9 hPa
2021-11-01 18:38:57 12.6 ℃ 100 % 1000.82 hPa
2021-11-01 18:28:58 13.13 ℃ 100 % 1000.74 hPa
2021-11-01 18:18:57 12.94 ℃ 100 % 1000.7 hPa
2021-11-01 18:08:57 12.95 ℃ 100 % 1000.65 hPa
2021-11-01 17:58:57 12.91 ℃ 100 % 1000.6 hPa
2021-11-01 17:48:57 13.06 ℃ 100 % 1000.49 hPa
2021-11-01 17:38:57 13.32 ℃ 100 % 1000.46 hPa
2021-11-01 17:28:57 13.5 ℃ 100 % 1000.42 hPa
2021-11-01 17:18:57 13.58 ℃ 100 % 1000.38 hPa
2021-11-01 17:08:57 13.71 ℃ 100 % 1000.31 hPa
2021-11-01 16:58:57 14.06 ℃ 100 % 1000.23 hPa
2021-11-01 16:48:57 14.4 ℃ 100 % 1000.08 hPa
2021-11-01 16:38:57 14.62 ℃ 100 % 999.96 hPa
2021-11-01 16:28:57 14.84 ℃ 100 % 999.92 hPa
2021-11-01 16:18:57 14.83 ℃ 100 % 999.85 hPa
2021-11-01 16:08:57 14.92 ℃ 100 % 999.83 hPa
2021-11-01 15:58:57 15.1 ℃ 100 % 999.89 hPa
2021-11-01 15:48:57 15.06 ℃ 100 % 999.91 hPa
2021-11-01 15:38:57 14.96 ℃ 100 % 999.84 hPa
2021-11-01 15:28:57 15.02 ℃ 100 % 999.74 hPa
2021-11-01 15:18:57 14.93 ℃ 100 % 999.7 hPa
2021-11-01 15:08:57 14.93 ℃ 100 % 999.61 hPa
2021-11-01 14:58:57 15.06 ℃ 100 % 999.49 hPa
2021-11-01 14:48:57 15.31 ℃ 100 % 999.38 hPa
2021-11-01 14:38:57 15.35 ℃ 100 % 999.34 hPa
2021-11-01 14:28:57 15.19 ℃ 100 % 999.26 hPa
2021-11-01 14:18:57 15.13 ℃ 100 % 999.17 hPa
2021-11-01 14:08:57 15.14 ℃ 100 % 999.15 hPa
2021-11-01 13:58:57 15.31 ℃ 100 % 999.08 hPa
2021-11-01 13:48:57 15.26 ℃ 100 % 999.01 hPa
2021-11-01 13:38:57 15.06 ℃ 100 % 999.08 hPa
2021-11-01 13:28:57 15.07 ℃ 100 % 999.12 hPa
2021-11-01 13:18:57 14.91 ℃ 100 % 999.14 hPa
2021-11-01 13:08:57 15.05 ℃ 100 % 999.02 hPa
2021-11-01 12:58:57 15.12 ℃ 100 % 999.02 hPa
2021-11-01 12:48:57 14.93 ℃ 100 % 999.02 hPa
2021-11-01 12:38:57 14.95 ℃ 100 % 999.04 hPa
2021-11-01 12:28:57 15.04 ℃ 100 % 999.05 hPa
2021-11-01 12:18:57 14.92 ℃ 100 % 999.14 hPa
2021-11-01 12:08:58 15.02 ℃ 100 % 999.19 hPa
2021-11-01 11:58:57 14.86 ℃ 100 % 999.2 hPa
2021-11-01 11:48:57 14.62 ℃ 100 % 999.19 hPa
2021-11-01 11:38:57 14.67 ℃ 100 % 999.15 hPa
2021-11-01 11:28:57 14.54 ℃ 100 % 999.06 hPa
2021-11-01 11:18:57 14.48 ℃ 100 % 999.07 hPa
2021-11-01 11:08:57 14.4 ℃ 100 % 999.08 hPa
2021-11-01 10:58:57 14.18 ℃ 100 % 999.07 hPa
2021-11-01 10:48:57 14.06 ℃ 100 % 998.96 hPa
2021-11-01 10:38:58 14.06 ℃ 100 % 998.93 hPa
2021-11-01 10:28:57 14.02 ℃ 100 % 998.9 hPa
2021-11-01 10:18:57 14.18 ℃ 100 % 998.82 hPa
2021-11-01 10:08:58 14.04 ℃ 100 % 998.79 hPa
2021-11-01 09:58:58 14.22 ℃ 100 % 998.79 hPa
2021-11-01 09:48:58 14.22 ℃ 100 % 998.82 hPa
2021-11-01 09:38:58 13.8 ℃ 100 % 998.83 hPa
2021-11-01 09:28:58 13.72 ℃ 100 % 998.88 hPa
2021-11-01 09:18:58 13.68 ℃ 100 % 998.83 hPa
2021-11-01 09:08:58 13.65 ℃ 100 % 998.81 hPa
2021-11-01 08:58:58 13.84 ℃ 100 % 998.73 hPa
2021-11-01 08:48:59 14.05 ℃ 100 % 998.61 hPa
2021-11-01 08:38:59 13.94 ℃ 100 % 998.54 hPa
2021-11-01 08:28:59 13.83 ℃ 100 % 998.5 hPa
2021-11-01 08:18:58 13.79 ℃ 100 % 998.48 hPa
2021-11-01 08:08:58 13.83 ℃ 100 % 998.51 hPa
2021-11-01 07:58:58 13.88 ℃ 100 % 998.5 hPa
2021-11-01 07:48:58 14.1 ℃ 100 % 998.5 hPa
2021-11-01 07:38:58 13.98 ℃ 100 % 998.43 hPa
2021-11-01 07:28:58 14.06 ℃ 100 % 998.34 hPa
2021-11-01 07:18:58 13.98 ℃ 100 % 998.27 hPa
2021-11-01 07:08:58 13.91 ℃ 100 % 998.16 hPa
2021-11-01 06:58:58 14.13 ℃ 100 % 998.09 hPa
2021-11-01 06:48:58 13.99 ℃ 100 % 998.05 hPa
2021-11-01 06:38:58 13.89 ℃ 100 % 997.98 hPa
2021-11-01 06:28:58 13.86 ℃ 100 % 997.84 hPa
2021-11-01 06:18:58 13.9 ℃ 100 % 997.74 hPa
2021-11-01 06:08:58 13.97 ℃ 100 % 997.69 hPa
2021-11-01 05:58:58 14 ℃ 100 % 997.6 hPa
2021-11-01 05:48:58 13.81 ℃ 100 % 997.61 hPa
2021-11-01 05:38:58 13.88 ℃ 100 % 997.7 hPa
2021-11-01 05:28:58 13.99 ℃ 100 % 997.72 hPa
2021-11-01 05:18:58 14.11 ℃ 100 % 997.62 hPa
2021-11-01 05:08:58 14.47 ℃ 100 % 997.43 hPa
2021-11-01 04:58:58 14.53 ℃ 100 % 997.35 hPa
2021-11-01 04:48:58 14.7 ℃ 100 % 997.26 hPa
2021-11-01 04:38:58 14.81 ℃ 100 % 997.18 hPa
2021-11-01 04:28:58 14.7 ℃ 100 % 997.18 hPa
2021-11-01 04:18:58 14.73 ℃ 100 % 997.22 hPa
2021-11-01 04:08:58 14.77 ℃ 100 % 997.28 hPa
2021-11-01 03:58:58 15.03 ℃ 100 % 997.33 hPa
2021-11-01 03:48:58 15.04 ℃ 100 % 997.45 hPa
2021-11-01 03:38:58 15.12 ℃ 100 % 997.49 hPa
2021-11-01 03:28:58 15.2 ℃ 100 % 997.49 hPa
2021-11-01 03:18:58 15.4 ℃ 100 % 997.5 hPa
2021-11-01 03:08:58 15.47 ℃ 100 % 997.42 hPa
2021-11-01 02:58:58 15.65 ℃ 100 % 997.3 hPa
2021-11-01 02:48:58 15.51 ℃ 100 % 997.28 hPa
2021-11-01 02:38:58 16.06 ℃ 100 % 997.29 hPa
2021-11-01 02:28:58 16.01 ℃ 100 % 997.13 hPa
2021-11-01 02:18:58 15.62 ℃ 100 % 997.23 hPa
2021-11-01 02:08:58 15.61 ℃ 100 % 997.11 hPa
2021-11-01 01:58:58 15.41 ℃ 100 % 997.1 hPa
2021-11-01 01:48:58 15.43 ℃ 100 % 997.07 hPa
2021-11-01 01:38:58 15.35 ℃ 100 % 997.01 hPa
2021-11-01 01:28:58 15.23 ℃ 100 % 996.96 hPa
2021-11-01 01:18:58 15.35 ℃ 100 % 996.94 hPa
2021-11-01 01:08:58 15.31 ℃ 100 % 996.88 hPa
2021-11-01 00:58:58 15.46 ℃ 100 % 996.8 hPa
2021-11-01 00:48:58 15.49 ℃ 100 % 996.71 hPa
2021-11-01 00:38:58 15.6 ℃ 100 % 996.67 hPa
2021-11-01 00:28:58 15.79 ℃ 100 % 996.63 hPa
2021-11-01 00:18:58 16.04 ℃ 100 % 996.65 hPa
2021-11-01 00:08:58 16.42 ℃ 100 % 996.55 hPa
2021-10-31 23:58:58 16.39 ℃ 100 % 996.25 hPa
2021-10-31 23:48:58 16.43 ℃ 100 % 996.14 hPa
2021-10-31 23:38:58 16.52 ℃ 100 % 996.18 hPa
2021-10-31 23:28:58 16.52 ℃ 100 % 996.25 hPa
2021-10-31 23:18:58 16.53 ℃ 100 % 996.3 hPa
2021-10-31 23:08:58 16.5 ℃ 100 % 996.34 hPa
2021-10-31 22:58:58 16.53 ℃ 100 % 996.36 hPa
2021-10-31 22:48:59 16.57 ℃ 100 % 996.42 hPa
2021-10-31 22:38:58 16.55 ℃ 100 % 996.58 hPa
2021-10-31 22:28:59 16.63 ℃ 100 % 996.77 hPa
2021-10-31 22:18:59 16.55 ℃ 100 % 996.87 hPa
2021-10-31 22:08:59 16.42 ℃ 100 % 997.12 hPa
2021-10-31 21:58:59 16.42 ℃ 100 % 997.3 hPa
2021-10-31 21:48:59 16.38 ℃ 100 % 997.46 hPa
2021-10-31 21:38:59 16.4 ℃ 100 % 997.64 hPa
2021-10-31 21:28:59 16.3 ℃ 100 % 997.87 hPa
2021-10-31 21:18:59 16.24 ℃ 100 % 998.11 hPa
2021-10-31 21:08:59 16.19 ℃ 100 % 998.35 hPa
2021-10-31 20:58:59 16.09 ℃ 100 % 998.66 hPa
2021-10-31 20:48:59 16.1 ℃ 100 % 998.93 hPa
2021-10-31 20:38:59 16.18 ℃ 100 % 999.12 hPa
2021-10-31 20:28:59 16.09 ℃ 100 % 999.3 hPa
2021-10-31 20:18:59 15.98 ℃ 100 % 999.47 hPa
2021-10-31 20:08:59 15.91 ℃ 100 % 999.64 hPa
2021-10-31 19:58:59 15.76 ℃ 100 % 999.84 hPa
2021-10-31 19:48:59 15.76 ℃ 100 % 1000.06 hPa
2021-10-31 19:38:59 15.51 ℃ 100 % 1000.3 hPa
2021-10-31 19:28:59 15.58 ℃ 100 % 1000.47 hPa
2021-10-31 19:18:59 15.55 ℃ 100 % 1000.68 hPa
2021-10-31 19:08:59 15.58 ℃ 100 % 1000.95 hPa
2021-10-31 18:58:59 15.47 ℃ 100 % 1001.22 hPa
2021-10-31 18:48:59 15.42 ℃ 100 % 1001.44 hPa
2021-10-31 18:38:59 15.35 ℃ 100 % 1001.61 hPa
2021-10-31 18:28:59 15.43 ℃ 100 % 1001.8 hPa
2021-10-31 18:18:59 15.25 ℃ 100 % 1001.99 hPa
2021-10-31 18:08:59 15.13 ℃ 100 % 1002.15 hPa
2021-10-31 17:58:59 14.87 ℃ 100 % 1002.35 hPa
2021-10-31 17:48:59 14.72 ℃ 100 % 1002.52 hPa
2021-10-31 17:38:59 14.75 ℃ 100 % 1002.71 hPa
2021-10-31 17:28:59 14.62 ℃ 100 % 1002.88 hPa
2021-10-31 17:18:59 14.71 ℃ 100 % 1003.09 hPa
2021-10-31 17:08:59 14.99 ℃ 100 % 1003.25 hPa
2021-10-31 16:58:59 15.11 ℃ 100 % 1003.38 hPa
2021-10-31 16:48:59 15.24 ℃ 100 % 1003.54 hPa
2021-10-31 16:38:59 15.33 ℃ 100 % 1003.65 hPa
2021-10-31 16:28:59 15.55 ℃ 100 % 1003.85 hPa
2021-10-31 16:18:59 15.6 ℃ 100 % 1003.96 hPa
2021-10-31 16:08:59 15.56 ℃ 100 % 1004.1 hPa
2021-10-31 15:58:59 15.75 ℃ 100 % 1004.28 hPa
2021-10-31 15:48:59 16.06 ℃ 100 % 1004.4 hPa
2021-10-31 15:38:59 16.17 ℃ 100 % 1004.56 hPa
2021-10-31 15:28:59 16.03 ℃ 100 % 1004.67 hPa
2021-10-31 15:18:59 16.28 ℃ 100 % 1004.8 hPa
2021-10-31 15:08:59 16.1 ℃ 100 % 1004.91 hPa
2021-10-31 14:58:59 16.29 ℃ 100 % 1004.97 hPa
2021-10-31 14:48:59 16.31 ℃ 100 % 1005.11 hPa
2021-10-31 14:38:59 16.41 ℃ 100 % 1005.17 hPa
2021-10-31 14:28:59 16.6 ℃ 100 % 1005.31 hPa
2021-10-31 14:18:59 16.44 ℃ 100 % 1005.55 hPa
2021-10-31 14:08:59 16.46 ℃ 100 % 1005.66 hPa
2021-10-31 13:58:59 16.62 ℃ 100 % 1005.88 hPa
2021-10-31 13:48:59 16.31 ℃ 100 % 1006.14 hPa
2021-10-31 13:38:59 16.15 ℃ 100 % 1006.32 hPa
2021-10-31 13:28:59 15.99 ℃ 100 % 1006.58 hPa
2021-10-31 13:18:59 15.89 ℃ 100 % 1006.72 hPa
2021-10-31 13:09:00 15.92 ℃ 100 % 1006.86 hPa
2021-10-31 12:58:59 15.76 ℃ 100 % 1007.01 hPa
2021-10-31 12:48:59 15.67 ℃ 100 % 1007.11 hPa
2021-10-31 12:39:00 15.8 ℃ 100 % 1007.21 hPa
2021-10-31 12:29:00 15.87 ℃ 100 % 1007.29 hPa
2021-10-31 12:18:59 16.15 ℃ 100 % 1007.46 hPa
2021-10-31 12:08:59 15.83 ℃ 100 % 1007.58 hPa
2021-10-31 11:58:59 15.7 ℃ 100 % 1007.75 hPa
2021-10-31 11:49:00 15.96 ℃ 100 % 1007.84 hPa
2021-10-31 11:39:00 16.11 ℃ 100 % 1007.78 hPa
2021-10-31 11:29:00 15.9 ℃ 100 % 1007.77 hPa
2021-10-31 11:19:00 15.78 ℃ 100 % 1007.82 hPa
2021-10-31 11:09:00 15.68 ℃ 100 % 1007.88 hPa
2021-10-31 10:59:00 15.71 ℃ 100 % 1007.95 hPa
2021-10-31 10:49:00 15.78 ℃ 100 % 1007.92 hPa
2021-10-31 10:39:00 16.15 ℃ 100 % 1007.95 hPa
2021-10-31 10:29:00 16.17 ℃ 100 % 1008.07 hPa
2021-10-31 10:19:00 15.8 ℃ 100 % 1008.15 hPa
2021-10-31 10:09:00 15.45 ℃ 100 % 1008.23 hPa
2021-10-31 09:59:00 15.48 ℃ 100 % 1008.34 hPa
2021-10-31 09:49:00 15.49 ℃ 100 % 1008.4 hPa
2021-10-31 09:39:00 15.29 ℃ 100 % 1008.32 hPa
2021-10-31 09:29:00 15.5 ℃ 100 % 1008.36 hPa
2021-10-31 09:19:00 15.2 ℃ 100 % 1008.34 hPa
2021-10-31 09:09:00 14.79 ℃ 100 % 1008.39 hPa
2021-10-31 08:59:00 14.75 ℃ 100 % 1008.45 hPa
2021-10-31 08:49:00 14.78 ℃ 100 % 1008.37 hPa
2021-10-31 08:39:00 15.04 ℃ 100 % 1008.21 hPa
2021-10-31 08:29:00 15.06 ℃ 100 % 1008.12 hPa
2021-10-31 08:19:00 15.1 ℃ 100 % 1008.07 hPa
2021-10-31 08:09:00 14.97 ℃ 100 % 1008.08 hPa
2021-10-31 07:59:00 14.91 ℃ 100 % 1008.05 hPa
2021-10-31 07:49:00 14.81 ℃ 100 % 1007.98 hPa
2021-10-31 07:39:00 14.74 ℃ 100 % 1007.9 hPa
2021-10-31 07:29:00 14.64 ℃ 100 % 1007.8 hPa
2021-10-31 07:19:00 14.6 ℃ 100 % 1007.73 hPa
2021-10-31 07:09:00 14.59 ℃ 100 % 1007.66 hPa
2021-10-31 06:59:00 14.78 ℃ 100 % 1007.63 hPa
2021-10-31 06:49:00 15 ℃ 100 % 1007.55 hPa
2021-10-31 06:39:00 14.93 ℃ 100 % 1007.48 hPa
2021-10-31 06:29:00 15.14 ℃ 100 % 1007.4 hPa
2021-10-31 06:19:00 15.43 ℃ 100 % 1007.39 hPa
2021-10-31 06:09:00 15.42 ℃ 100 % 1007.37 hPa
2021-10-31 05:59:00 15.61 ℃ 100 % 1007.3 hPa
2021-10-31 05:49:00 15.47 ℃ 100 % 1007.21 hPa
2021-10-31 05:39:00 15.29 ℃ 100 % 1007.15 hPa
2021-10-31 05:29:00 15.37 ℃ 100 % 1006.99 hPa
2021-10-31 05:19:00 15.34 ℃ 100 % 1006.93 hPa
2021-10-31 05:09:00 15.11 ℃ 100 % 1006.89 hPa
2021-10-31 04:59:00 14.9 ℃ 100 % 1006.76 hPa
2021-10-31 04:49:00 15.11 ℃ 100 % 1006.65 hPa
2021-10-31 04:39:00 14.94 ℃ 100 % 1006.58 hPa
2021-10-31 04:29:00 14.83 ℃ 100 % 1006.49 hPa
2021-10-31 04:19:00 14.92 ℃ 100 % 1006.41 hPa
2021-10-31 04:09:00 14.94 ℃ 100 % 1006.36 hPa
2021-10-31 03:59:00 14.63 ℃ 100 % 1006.29 hPa
2021-10-31 03:49:00 14.52 ℃ 100 % 1006.23 hPa
2021-10-31 03:39:00 14.59 ℃ 100 % 1006.19 hPa
2021-10-31 03:29:00 14.7 ℃ 100 % 1006.12 hPa
2021-10-31 03:19:00 14.58 ℃ 100 % 1006.03 hPa
2021-10-31 03:09:00 14.53 ℃ 100 % 1005.95 hPa
2021-10-31 02:59:00 14.59 ℃ 100 % 1005.87 hPa
2021-10-31 02:49:00 14.7 ℃ 100 % 1005.79 hPa
2021-10-31 02:39:00 14.71 ℃ 100 % 1005.69 hPa
2021-10-31 02:29:00 14.29 ℃ 100 % 1005.61 hPa
2021-10-31 02:19:00 14.36 ℃ 100 % 1005.55 hPa
2021-10-31 02:09:00 14.3 ℃ 100 % 1005.45 hPa
2021-10-31 02:59:00 14.19 ℃ 100 % 1005.41 hPa
2021-10-31 02:49:00 14.17 ℃ 100 % 1005.39 hPa
2021-10-31 02:39:00 14.18 ℃ 100 % 1005.3 hPa
2021-10-31 02:29:00 14.22 ℃ 100 % 1005.25 hPa
2021-10-31 02:19:01 14.06 ℃ 100 % 1005.23 hPa
2021-10-31 02:09:00 13.93 ℃ 100 % 1005.15 hPa
2021-10-31 01:59:00 13.88 ℃ 100 % 1005.03 hPa
2021-10-31 01:49:01 13.81 ℃ 100 % 1004.95 hPa
2021-10-31 01:39:01 13.74 ℃ 100 % 1004.89 hPa
2021-10-31 01:29:01 14.09 ℃ 100 % 1004.76 hPa
2021-10-31 01:19:01 13.99 ℃ 100 % 1004.61 hPa
2021-10-31 01:09:01 14.31 ℃ 100 % 1004.56 hPa
2021-10-31 00:59:01 14.29 ℃ 100 % 1004.48 hPa
2021-10-31 00:49:01 14.4 ℃ 100 % 1004.41 hPa
2021-10-31 00:39:01 14.52 ℃ 100 % 1004.32 hPa
2021-10-31 00:29:01 14.42 ℃ 100 % 1004.2 hPa
2021-10-31 00:19:01 14.34 ℃ 100 % 1004.06 hPa
2021-10-31 00:09:01 14.59 ℃ 100 % 1003.95 hPa
2021-10-30 23:59:01 14.7 ℃ 100 % 1003.91 hPa
2021-10-30 23:49:01 14.68 ℃ 100 % 1003.88 hPa
2021-10-30 23:39:01 14.53 ℃ 100 % 1003.82 hPa
2021-10-30 23:29:01 14.53 ℃ 100 % 1003.74 hPa
2021-10-30 23:19:01 14.47 ℃ 100 % 1003.73 hPa
2021-10-30 23:09:01 14.34 ℃ 100 % 1003.72 hPa
2021-10-30 22:59:01 14.17 ℃ 100 % 1003.72 hPa
2021-10-30 22:49:01 14.1 ℃ 100 % 1003.66 hPa
2021-10-30 22:39:01 13.98 ℃ 100 % 1003.63 hPa
2021-10-30 22:29:01 14.04 ℃ 100 % 1003.59 hPa
2021-10-30 22:19:01 14.07 ℃ 100 % 1003.56 hPa
2021-10-30 22:09:01 14.16 ℃ 100 % 1003.64 hPa
2021-10-30 21:59:01 14.07 ℃ 100 % 1003.67 hPa
2021-10-30 21:49:01 14.01 ℃ 100 % 1003.64 hPa
2021-10-30 21:39:01 14.05 ℃ 100 % 1003.66 hPa
2021-10-30 21:29:01 14 ℃ 100 % 1003.67 hPa
2021-10-30 21:19:01 14.09 ℃ 100 % 1003.66 hPa
2021-10-30 21:09:01 13.94 ℃ 100 % 1003.7 hPa
2021-10-30 20:59:01 13.95 ℃ 100 % 1003.74 hPa
2021-10-30 20:49:01 13.97 ℃ 100 % 1003.76 hPa
2021-10-30 20:39:01 14 ℃ 100 % 1003.77 hPa
2021-10-30 20:29:01 14 ℃ 100 % 1003.68 hPa
2021-10-30 20:19:01 14.05 ℃ 100 % 1003.64 hPa
2021-10-30 20:09:01 14.02 ℃ 100 % 1003.65 hPa
2021-10-30 19:59:01 14.48 ℃ 100 % 1003.72 hPa
2021-10-30 19:49:01 14.68 ℃ 100 % 1003.76 hPa
2021-10-30 19:39:01 14.91 ℃ 100 % 1003.82 hPa
2021-10-30 19:29:01 15.26 ℃ 100 % 1003.9 hPa
2021-10-30 19:19:01 15.43 ℃ 100 % 1003.95 hPa
2021-10-30 19:09:01 15.99 ℃ 100 % 1003.98 hPa
2021-10-30 18:59:01 16 ℃ 100 % 1004.07 hPa
2021-10-30 18:49:01 16.1 ℃ 100 % 1004.14 hPa
2021-10-30 18:39:01 15.55 ℃ 100 % 1004.12 hPa
2021-10-30 18:29:01 15.06 ℃ 100 % 1004.12 hPa
2021-10-30 18:19:01 15.11 ℃ 100 % 1004.15 hPa
2021-10-30 18:09:01 15.26 ℃ 100 % 1004.23 hPa
2021-10-30 17:59:01 15.37 ℃ 100 % 1004.27 hPa
2021-10-30 17:49:01 15.4 ℃ 100 % 1004.3 hPa
2021-10-30 17:39:01 15.59 ℃ 100 % 1004.26 hPa
2021-10-30 17:29:01 15.63 ℃ 100 % 1004.21 hPa
2021-10-30 17:19:01 15.88 ℃ 100 % 1004.26 hPa
2021-10-30 17:09:01 16.11 ℃ 100 % 1004.33 hPa
2021-10-30 16:59:01 16.21 ℃ 100 % 1004.43 hPa
2021-10-30 16:49:01 16.38 ℃ 100 % 1004.49 hPa
2021-10-30 16:39:01 16.26 ℃ 100 % 1004.49 hPa
2021-10-30 16:29:01 16.23 ℃ 100 % 1004.55 hPa
2021-10-30 16:19:01 16.48 ℃ 100 % 1004.57 hPa
2021-10-30 16:09:01 16.67 ℃ 100 % 1004.59 hPa
2021-10-30 15:59:01 16.58 ℃ 100 % 1004.59 hPa
2021-10-30 15:49:01 16.59 ℃ 100 % 1004.61 hPa
2021-10-30 15:39:01 16.77 ℃ 100 % 1004.72 hPa
2021-10-30 15:29:01 16.67 ℃ 100 % 1004.86 hPa
2021-10-30 15:19:01 16.74 ℃ 100 % 1005.02 hPa
2021-10-30 15:09:01 17.03 ℃ 100 % 1005.12 hPa
2021-10-30 14:59:01 16.98 ℃ 100 % 1005.28 hPa
2021-10-30 14:49:02 17.05 ℃ 100 % 1005.41 hPa
2021-10-30 14:39:02 17.15 ℃ 100 % 1005.56 hPa
2021-10-30 14:29:02 17.26 ℃ 100 % 1005.75 hPa
2021-10-30 14:19:02 17.45 ℃ 100 % 1005.85 hPa
2021-10-30 14:09:02 17.18 ℃ 100 % 1005.99 hPa
2021-10-30 13:59:02 17.32 ℃ 100 % 1006.19 hPa
2021-10-30 13:49:02 17.2 ℃ 100 % 1006.35 hPa
2021-10-30 13:39:02 17.07 ℃ 100 % 1006.5 hPa
2021-10-30 13:29:02 16.91 ℃ 100 % 1006.6 hPa
2021-10-30 13:19:02 16.62 ℃ 100 % 1006.72 hPa
2021-10-30 13:09:02 16.26 ℃ 100 % 1006.83 hPa
2021-10-30 12:59:02 16.03 ℃ 100 % 1006.9 hPa
2021-10-30 12:49:02 15.9 ℃ 100 % 1007.01 hPa
2021-10-30 12:39:02 15.89 ℃ 100 % 1007.13 hPa
2021-10-30 12:29:02 15.82 ℃ 100 % 1007.27 hPa
2021-10-30 12:19:02 15.59 ℃ 100 % 1007.29 hPa
2021-10-30 12:09:02 15.48 ℃ 100 % 1007.35 hPa
2021-10-30 11:59:02 15.48 ℃ 100 % 1007.37 hPa
2021-10-30 11:49:02 15.17 ℃ 100 % 1007.44 hPa
2021-10-30 11:39:02 15.08 ℃ 100 % 1007.59 hPa
2021-10-30 11:29:02 14.91 ℃ 100 % 1007.62 hPa
2021-10-30 11:19:02 14.82 ℃ 100 % 1007.65 hPa
2021-10-30 11:09:02 14.57 ℃ 100 % 1007.72 hPa
2021-10-30 10:59:02 14.57 ℃ 100 % 1007.81 hPa
2021-10-30 10:49:02 14.15 ℃ 100 % 1007.9 hPa
2021-10-30 10:39:02 13.78 ℃ 100 % 1007.94 hPa
2021-10-30 10:29:02 13.53 ℃ 100 % 1008.11 hPa
2021-10-30 10:19:02 13.46 ℃ 100 % 1008.09 hPa
2021-10-30 10:09:02 13.35 ℃ 100 % 1008.14 hPa
2021-10-30 09:59:02 12.99 ℃ 100 % 1008.12 hPa
2021-10-30 09:49:02 13.07 ℃ 100 % 1008.16 hPa
2021-10-30 09:39:02 13.15 ℃ 100 % 1008.25 hPa
2021-10-30 09:29:02 12.97 ℃ 100 % 1008.34 hPa
2021-10-30 09:19:02 13 ℃ 100 % 1008.44 hPa
2021-10-30 09:09:02 13.17 ℃ 100 % 1008.49 hPa
2021-10-30 08:59:02 13.15 ℃ 100 % 1008.55 hPa
2021-10-30 08:49:02 12.96 ℃ 100 % 1008.5 hPa
2021-10-30 08:39:02 12.74 ℃ 100 % 1008.49 hPa
2021-10-30 08:29:02 12.57 ℃ 100 % 1008.55 hPa
2021-10-30 08:19:02 12.74 ℃ 100 % 1008.5 hPa
2021-10-30 08:09:02 12.8 ℃ 100 % 1008.48 hPa
2021-10-30 07:59:02 12.67 ℃ 100 % 1008.49 hPa
2021-10-30 07:49:02 12.75 ℃ 100 % 1008.37 hPa
2021-10-30 07:39:02 12.9 ℃ 100 % 1008.3 hPa
2021-10-30 07:29:02 13.01 ℃ 100 % 1008.2 hPa
2021-10-30 07:19:02 13.31 ℃ 100 % 1008.21 hPa
2021-10-30 07:09:02 13.24 ℃ 100 % 1008.29 hPa
2021-10-30 06:59:02 13.14 ℃ 100 % 1008.33 hPa
2021-10-30 06:49:02 13.27 ℃ 100 % 1008.36 hPa
2021-10-30 06:39:02 13.27 ℃ 100 % 1008.4 hPa
2021-10-30 06:29:02 13.46 ℃ 100 % 1008.45 hPa
2021-10-30 06:19:02 13.57 ℃ 100 % 1008.55 hPa
2021-10-30 06:09:02 13.79 ℃ 100 % 1008.53 hPa
2021-10-30 05:59:02 13.73 ℃ 100 % 1008.52 hPa
2021-10-30 05:49:02 14 ℃ 100 % 1008.47 hPa
2021-10-30 05:39:02 14.12 ℃ 100 % 1008.45 hPa
2021-10-30 05:29:02 14 ℃ 100 % 1008.41 hPa
2021-10-30 05:19:02 13.74 ℃ 100 % 1008.44 hPa
2021-10-30 05:09:02 13.63 ℃ 100 % 1008.43 hPa
2021-10-30 04:59:02 13.62 ℃ 100 % 1008.42 hPa
2021-10-30 04:49:02 13.62 ℃ 100 % 1008.43 hPa
2021-10-30 04:39:02 13.85 ℃ 100 % 1008.49 hPa
2021-10-30 04:29:02 13.98 ℃ 100 % 1008.46 hPa
2021-10-30 04:19:02 14.05 ℃ 100 % 1008.38 hPa
2021-10-30 04:09:02 14.12 ℃ 100 % 1008.43 hPa
2021-10-30 03:59:02 14.06 ℃ 100 % 1008.48 hPa
2021-10-30 03:49:02 14.02 ℃ 100 % 1008.44 hPa
2021-10-30 03:39:03 14.03 ℃ 100 % 1008.47 hPa
2021-10-30 03:29:03 14.25 ℃ 100 % 1008.41 hPa
2021-10-30 03:19:02 14.2 ℃ 100 % 1008.37 hPa
2021-10-30 03:09:03 14.29 ℃ 100 % 1008.4 hPa
2021-10-30 02:59:03 14.25 ℃ 100 % 1008.47 hPa
2021-10-30 02:49:03 14.37 ℃ 100 % 1008.48 hPa
2021-10-30 02:39:03 14.45 ℃ 100 % 1008.5 hPa
2021-10-30 02:29:03 14.26 ℃ 100 % 1008.5 hPa
2021-10-30 02:19:03 13.87 ℃ 100 % 1008.53 hPa
2021-10-30 02:09:03 13.88 ℃ 100 % 1008.55 hPa
2021-10-30 01:59:03 13.94 ℃ 100 % 1008.54 hPa
2021-10-30 01:49:03 14.01 ℃ 100 % 1008.54 hPa
2021-10-30 01:39:03 13.65 ℃ 100 % 1008.55 hPa
2021-10-30 01:29:03 13.32 ℃ 100 % 1008.54 hPa
2021-10-30 01:19:03 13.23 ℃ 100 % 1008.5 hPa
2021-10-30 01:09:03 13.14 ℃ 100 % 1008.44 hPa
2021-10-30 00:59:03 13.28 ℃ 100 % 1008.35 hPa
2021-10-30 00:49:03 13.47 ℃ 100 % 1008.37 hPa
2021-10-30 00:39:03 13.37 ℃ 100 % 1008.43 hPa
2021-10-30 00:29:03 13.38 ℃ 100 % 1008.43 hPa
2021-10-30 00:19:03 13.27 ℃ 100 % 1008.46 hPa
2021-10-30 00:09:03 13.24 ℃ 100 % 1008.51 hPa
2021-10-29 23:59:03 13.37 ℃ 100 % 1008.55 hPa
2021-10-29 23:49:03 13.3 ℃ 100 % 1008.56 hPa
2021-10-29 23:39:03 13.45 ℃ 100 % 1008.55 hPa
2021-10-29 23:29:03 13.49 ℃ 100 % 1008.55 hPa
2021-10-29 23:19:03 13.6 ℃ 100 % 1008.54 hPa
2021-10-29 23:09:03 13.64 ℃ 100 % 1008.55 hPa
2021-10-29 22:59:03 13.72 ℃ 100 % 1008.56 hPa
2021-10-29 22:49:03 13.76 ℃ 100 % 1008.56 hPa
2021-10-29 22:39:03 13.98 ℃ 100 % 1008.58 hPa
2021-10-29 22:29:03 13.92 ℃ 100 % 1008.6 hPa
2021-10-29 22:19:03 14.04 ℃ 100 % 1008.59 hPa
2021-10-29 22:09:03 14.18 ℃ 100 % 1008.53 hPa
2021-10-29 21:59:03 14.14 ℃ 100 % 1008.47 hPa
2021-10-29 21:49:03 14.23 ℃ 100 % 1008.34 hPa
2021-10-29 21:39:03 14.41 ℃ 100 % 1008.34 hPa
2021-10-29 21:29:03 14.55 ℃ 100 % 1008.25 hPa
2021-10-29 21:19:03 14.63 ℃ 100 % 1008.17 hPa
2021-10-29 21:09:03 14.64 ℃ 100 % 1008.18 hPa
2021-10-29 20:59:03 14.7 ℃ 100 % 1008.06 hPa
2021-10-29 20:49:03 14.71 ℃ 100 % 1008.12 hPa
2021-10-29 20:39:03 14.68 ℃ 100 % 1008.16 hPa
2021-10-29 20:29:03 14.58 ℃ 100 % 1008.14 hPa
2021-10-29 20:19:03 14.64 ℃ 100 % 1008.18 hPa
2021-10-29 20:09:03 14.79 ℃ 100 % 1008.22 hPa
2021-10-29 19:59:03 14.86 ℃ 100 % 1008.28 hPa
2021-10-29 19:49:03 14.91 ℃ 100 % 1008.37 hPa
2021-10-29 19:39:03 15.13 ℃ 100 % 1008.43 hPa
2021-10-29 19:29:03 15 ℃ 100 % 1008.42 hPa
2021-10-29 19:19:03 15.14 ℃ 100 % 1008.41 hPa
2021-10-29 19:09:04 15.35 ℃ 100 % 1008.33 hPa
2021-10-29 18:59:03 15.59 ℃ 100 % 1008.29 hPa
2021-10-29 18:49:03 15.73 ℃ 100 % 1008.32 hPa
2021-10-29 18:39:06 16.05 ℃ 100 % 1008.36 hPa
2021-10-29 18:29:03 16.15 ℃ 100 % 1008.38 hPa
2021-10-29 18:19:04 15.77 ℃ 100 % 1008.4 hPa
2021-10-29 18:09:03 15.8 ℃ 100 % 1008.26 hPa
2021-10-29 17:59:04 16.15 ℃ 100 % 1008.19 hPa
2021-10-29 17:49:03 16.11 ℃ 100 % 1008.22 hPa
2021-10-29 17:39:04 16.29 ℃ 100 % 1008.29 hPa
2021-10-29 17:29:04 16.4 ℃ 100 % 1008.39 hPa
2021-10-29 17:19:03 16.35 ℃ 100 % 1008.46 hPa
2021-10-29 17:09:04 16.43 ℃ 100 % 1008.46 hPa
2021-10-29 16:59:03 16.34 ℃ 100 % 1008.47 hPa
2021-10-29 16:49:04 16.39 ℃ 100 % 1008.6 hPa
2021-10-29 16:39:04 16.45 ℃ 100 % 1008.67 hPa
2021-10-29 16:29:04 16.45 ℃ 100 % 1008.75 hPa
2021-10-29 16:19:04 16.57 ℃ 100 % 1008.73 hPa
2021-10-29 16:09:04 16.55 ℃ 100 % 1008.78 hPa
2021-10-29 15:59:04 16.6 ℃ 100 % 1008.85 hPa
2021-10-29 15:49:04 16.68 ℃ 100 % 1008.95 hPa
2021-10-29 15:39:04 16.7 ℃ 100 % 1009.05 hPa
2021-10-29 15:29:04 16.55 ℃ 100 % 1009.2 hPa
2021-10-29 15:19:04 16.57 ℃ 100 % 1009.31 hPa
2021-10-29 15:09:04 16.61 ℃ 100 % 1009.43 hPa
2021-10-29 14:59:04 16.82 ℃ 100 % 1009.48 hPa
2021-10-29 14:49:04 16.93 ℃ 100 % 1009.53 hPa
2021-10-29 14:39:04 16.94 ℃ 100 % 1009.63 hPa
2021-10-29 14:29:04 16.86 ℃ 100 % 1009.76 hPa
2021-10-29 14:19:04 16.68 ℃ 100 % 1009.9 hPa
2021-10-29 14:09:04 16.61 ℃ 100 % 1010.04 hPa
2021-10-29 13:59:04 16.57 ℃ 100 % 1010.22 hPa
2021-10-29 13:49:04 16.24 ℃ 100 % 1010.36 hPa
2021-10-29 13:39:04 16.11 ℃ 100 % 1010.47 hPa
2021-10-29 13:29:04 15.95 ℃ 100 % 1010.57 hPa
2021-10-29 13:19:04 15.83 ℃ 100 % 1010.65 hPa
2021-10-29 13:09:04 15.85 ℃ 100 % 1010.73 hPa
2021-10-29 12:59:04 15.81 ℃ 100 % 1010.77 hPa
2021-10-29 12:49:04 15.68 ℃ 100 % 1010.8 hPa
2021-10-29 12:39:04 15.57 ℃ 100 % 1010.86 hPa
2021-10-29 12:29:04 15.31 ℃ 100 % 1010.95 hPa
2021-10-29 12:19:04 15.17 ℃ 100 % 1011.05 hPa
2021-10-29 12:09:04 15.09 ℃ 100 % 1011.11 hPa
2021-10-29 11:59:04 14.57 ℃ 100 % 1011.14 hPa
2021-10-29 11:49:04 14.38 ℃ 100 % 1011.13 hPa
2021-10-29 11:39:04 14.06 ℃ 100 % 1011.21 hPa
2021-10-29 11:29:04 13.8 ℃ 100 % 1011.27 hPa
2021-10-29 11:19:04 13.49 ℃ 100 % 1011.32 hPa
2021-10-29 11:09:04 13.2 ℃ 100 % 1011.42 hPa
2021-10-29 10:59:04 12.73 ℃ 100 % 1011.52 hPa
2021-10-29 10:49:04 12.33 ℃ 100 % 1011.55 hPa
2021-10-29 10:39:04 12.07 ℃ 100 % 1011.59 hPa
2021-10-29 10:29:04 11.64 ℃ 100 % 1011.6 hPa
2021-10-29 10:19:04 11.41 ℃ 100 % 1011.59 hPa
2021-10-29 10:09:04 11.23 ℃ 100 % 1011.63 hPa
2021-10-29 09:59:04 11.28 ℃ 100 % 1011.61 hPa
2021-10-29 09:49:04 11.27 ℃ 100 % 1011.58 hPa
2021-10-29 09:39:04 10.97 ℃ 100 % 1011.55 hPa
2021-10-29 09:29:04 10.74 ℃ 100 % 1011.48 hPa
2021-10-29 09:19:04 10.56 ℃ 100 % 1011.49 hPa
2021-10-29 09:09:04 10.34 ℃ 100 % 1011.43 hPa
2021-10-29 08:59:04 10.25 ℃ 100 % 1011.42 hPa
2021-10-29 08:49:04 10.26 ℃ 100 % 1011.42 hPa
2021-10-29 08:39:04 10.2 ℃ 100 % 1011.44 hPa
2021-10-29 08:29:04 10.17 ℃ 100 % 1011.44 hPa
2021-10-29 08:19:05 10.11 ℃ 100 % 1011.42 hPa
2021-10-29 08:09:04 10.22 ℃ 100 % 1011.39 hPa
2021-10-29 07:59:04 10.3 ℃ 100 % 1011.37 hPa
2021-10-29 07:49:06 10.23 ℃ 100 % 1011.38 hPa
2021-10-29 07:39:04 10.32 ℃ 100 % 1011.43 hPa
2021-10-29 07:29:04 10.26 ℃ 100 % 1011.48 hPa
2021-10-29 07:19:04 10.46 ℃ 100 % 1011.53 hPa
2021-10-29 07:09:04 10.64 ℃ 100 % 1011.62 hPa
2021-10-29 06:59:04 10.83 ℃ 100 % 1011.71 hPa
2021-10-29 06:49:04 10.72 ℃ 100 % 1011.76 hPa
2021-10-29 06:39:04 10.57 ℃ 100 % 1011.81 hPa
2021-10-29 06:29:04 10.64 ℃ 100 % 1011.84 hPa
2021-10-29 06:19:04 10.81 ℃ 100 % 1011.87 hPa
2021-10-29 06:09:04 10.9 ℃ 100 % 1011.88 hPa
2021-10-29 05:59:04 10.86 ℃ 100 % 1011.91 hPa
2021-10-29 05:49:04 10.84 ℃ 100 % 1011.92 hPa
2021-10-29 05:39:05 10.82 ℃ 100 % 1012 hPa
2021-10-29 05:29:04 10.96 ℃ 100 % 1012.16 hPa
2021-10-29 05:19:05 10.97 ℃ 100 % 1012.19 hPa
2021-10-29 05:09:05 10.95 ℃ 100 % 1012.21 hPa
2021-10-29 04:59:05 11.12 ℃ 100 % 1012.24 hPa
2021-10-29 04:49:05 11.35 ℃ 100 % 1012.25 hPa
2021-10-29 04:39:05 11.4 ℃ 100 % 1012.26 hPa
2021-10-29 04:29:05 11.47 ℃ 100 % 1012.28 hPa
2021-10-29 04:19:05 11.52 ℃ 100 % 1012.37 hPa
2021-10-29 04:09:05 11.48 ℃ 100 % 1012.43 hPa
2021-10-29 03:59:05 11.51 ℃ 100 % 1012.47 hPa
2021-10-29 03:49:05 11.75 ℃ 100 % 1012.53 hPa
2021-10-29 03:39:05 12.01 ℃ 100 % 1012.56 hPa
2021-10-29 03:29:05 12.06 ℃ 100 % 1012.58 hPa
2021-10-29 03:19:05 12.12 ℃ 100 % 1012.63 hPa
2021-10-29 03:09:05 12.21 ℃ 100 % 1012.69 hPa
2021-10-29 02:59:05 12.32 ℃ 100 % 1012.7 hPa
2021-10-29 02:49:05 12.2 ℃ 100 % 1012.74 hPa
2021-10-29 02:39:05 11.98 ℃ 100 % 1012.71 hPa
2021-10-29 02:29:05 12.08 ℃ 100 % 1012.73 hPa
2021-10-29 02:19:05 12.09 ℃ 100 % 1012.79 hPa
2021-10-29 02:09:05 12.3 ℃ 100 % 1012.82 hPa
2021-10-29 01:59:05 12.75 ℃ 100 % 1012.89 hPa
2021-10-29 01:19:05 12.49 ℃ 100 % 1013.22 hPa
2021-10-29 01:09:05 12.45 ℃ 100 % 1013.33 hPa
2021-10-29 00:59:05 12.52 ℃ 100 % 1013.45 hPa
2021-10-29 00:49:05 12.56 ℃ 100 % 1013.52 hPa
2021-10-29 00:39:05 12.73 ℃ 100 % 1013.56 hPa
2021-10-29 00:29:05 12.7 ℃ 100 % 1013.59 hPa
2021-10-29 00:19:05 12.8 ℃ 100 % 1013.6 hPa
2021-10-29 00:09:05 12.79 ℃ 100 % 1013.63 hPa
2021-10-28 23:59:05 12.71 ℃ 100 % 1013.7 hPa
2021-10-28 23:49:05 12.79 ℃ 100 % 1013.76 hPa
2021-10-28 23:39:05 12.89 ℃ 100 % 1013.88 hPa
2021-10-28 23:29:05 13.01 ℃ 100 % 1014 hPa
2021-10-28 23:19:05 13.11 ℃ 100 % 1014.09 hPa
2021-10-28 23:09:05 13.31 ℃ 100 % 1014.16 hPa
2021-10-28 22:59:05 13.41 ℃ 100 % 1014.21 hPa
2021-10-28 22:49:05 13.58 ℃ 100 % 1014.25 hPa
2021-10-28 22:39:05 13.58 ℃ 100 % 1014.26 hPa
2021-10-28 22:29:05 13.58 ℃ 100 % 1014.33 hPa
2021-10-28 22:19:05 13.78 ℃ 100 % 1014.4 hPa
2021-10-28 22:09:05 13.89 ℃ 100 % 1014.46 hPa
2021-10-28 21:59:05 13.94 ℃ 100 % 1014.51 hPa
2021-10-28 21:49:05 13.91 ℃ 100 % 1014.49 hPa
2021-10-28 21:39:06 14.02 ℃ 100 % 1014.53 hPa
2021-10-28 21:29:05 14.15 ℃ 100 % 1014.61 hPa
2021-10-28 21:19:05 14.12 ℃ 100 % 1014.73 hPa
2021-10-28 21:09:05 14.15 ℃ 100 % 1014.83 hPa
2021-10-28 20:59:05 14.4 ℃ 100 % 1014.9 hPa
2021-10-28 20:49:05 14.48 ℃ 100 % 1014.99 hPa
2021-10-28 20:39:05 14.59 ℃ 100 % 1015.08 hPa
2021-10-28 20:29:05 14.6 ℃ 100 % 1015.14 hPa
2021-10-28 20:19:05 14.63 ℃ 100 % 1015.14 hPa
2021-10-28 20:09:06 14.75 ℃ 100 % 1015.11 hPa
2021-10-28 19:59:06 14.78 ℃ 100 % 1015.14 hPa
2021-10-28 19:49:05 14.84 ℃ 100 % 1015.17 hPa
2021-10-28 19:39:06 14.87 ℃ 100 % 1015.24 hPa
2021-10-28 19:29:06 15 ℃ 100 % 1015.3 hPa
2021-10-28 19:19:05 15.16 ℃ 100 % 1015.31 hPa
2021-10-28 19:09:06 15.48 ℃ 100 % 1015.31 hPa
2021-10-28 18:59:06 15.59 ℃ 100 % 1015.34 hPa
2021-10-28 18:49:06 15.9 ℃ 100 % 1015.43 hPa
2021-10-28 18:39:06 16.19 ℃ 100 % 1015.53 hPa
2021-10-28 18:29:06 16.67 ℃ 100 % 1015.65 hPa
2021-10-28 18:19:06 17.01 ℃ 100 % 1015.68 hPa
2021-10-28 18:09:06 17.09 ℃ 100 % 1015.71 hPa
2021-10-28 17:59:06 17.06 ℃ 100 % 1015.72 hPa
2021-10-28 17:49:06 17.15 ℃ 100 % 1015.79 hPa
2021-10-28 17:39:06 17.16 ℃ 100 % 1015.94 hPa
2021-10-28 17:29:06 17.21 ℃ 100 % 1016.07 hPa
2021-10-28 17:19:06 17.32 ℃ 100 % 1016.18 hPa
2021-10-28 17:09:06 17.43 ℃ 100 % 1016.23 hPa
2021-10-28 16:59:06 17.7 ℃ 100 % 1016.27 hPa
2021-10-28 16:49:06 17.68 ℃ 100 % 1016.27 hPa
2021-10-28 16:39:06 17.65 ℃ 100 % 1016.35 hPa
2021-10-28 16:29:06 17.77 ℃ 100 % 1016.42 hPa
2021-10-28 16:19:06 17.78 ℃ 100 % 1016.5 hPa
2021-10-28 16:09:06 17.79 ℃ 100 % 1016.59 hPa
2021-10-28 15:59:06 17.74 ℃ 100 % 1016.66 hPa
2021-10-28 15:49:06 17.94 ℃ 100 % 1016.72 hPa
2021-10-28 15:39:06 17.95 ℃ 100 % 1016.83 hPa
2021-10-28 15:29:06 17.88 ℃ 100 % 1016.91 hPa
2021-10-28 15:19:06 17.94 ℃ 100 % 1017.01 hPa
2021-10-28 15:09:06 17.91 ℃ 100 % 1017.13 hPa
2021-10-28 14:59:06 17.8 ℃ 100 % 1017.25 hPa
2021-10-28 14:49:06 17.8 ℃ 100 % 1017.36 hPa
2021-10-28 14:39:06 17.67 ℃ 100 % 1017.46 hPa
2021-10-28 14:29:06 17.74 ℃ 100 % 1017.58 hPa
2021-10-28 14:19:06 17.71 ℃ 100 % 1017.7 hPa
2021-10-28 14:09:06 17.53 ℃ 100 % 1017.81 hPa
2021-10-28 13:59:06 17.48 ℃ 100 % 1017.92 hPa
2021-10-28 13:49:06 17.29 ℃ 100 % 1018.09 hPa
2021-10-28 13:39:06 17.03 ℃ 100 % 1018.28 hPa
2021-10-28 13:29:06 16.85 ℃ 100 % 1018.5 hPa
2021-10-28 13:19:06 16.66 ℃ 100 % 1018.67 hPa
2021-10-28 13:09:06 16.59 ℃ 100 % 1018.77 hPa
2021-10-28 12:59:06 16.36 ℃ 100 % 1018.87 hPa
2021-10-28 12:49:06 16.28 ℃ 100 % 1018.96 hPa
2021-10-28 12:39:06 16.16 ℃ 100 % 1019.03 hPa
2021-10-28 12:29:06 15.98 ℃ 100 % 1019.08 hPa
2021-10-28 12:19:06 15.89 ℃ 100 % 1019.11 hPa
2021-10-28 12:09:06 15.97 ℃ 100 % 1019.17 hPa
2021-10-28 11:59:06 15.87 ℃ 100 % 1019.2 hPa
2021-10-28 11:49:06 15.56 ℃ 100 % 1019.23 hPa
2021-10-28 11:39:07 15.34 ℃ 100 % 1019.27 hPa
2021-10-28 11:29:07 15.09 ℃ 100 % 1019.32 hPa
2021-10-28 11:19:06 15.19 ℃ 100 % 1019.4 hPa
2021-10-28 11:09:06 15.01 ℃ 100 % 1019.47 hPa
2021-10-28 10:59:06 14.79 ℃ 100 % 1019.53 hPa
2021-10-28 10:49:06 15.04 ℃ 100 % 1019.61 hPa
2021-10-28 10:39:06 15.02 ℃ 100 % 1019.61 hPa
2021-10-28 10:29:06 15 ℃ 100 % 1019.63 hPa
2021-10-28 10:19:07 14.71 ℃ 100 % 1019.65 hPa
2021-10-28 10:09:06 14.5 ℃ 100 % 1019.68 hPa
2021-10-28 09:59:06 14.44 ℃ 100 % 1019.71 hPa
2021-10-28 09:49:06 14.27 ℃ 100 % 1019.66 hPa
2021-10-28 09:39:06 14.21 ℃ 100 % 1019.66 hPa
2021-10-28 09:29:07 14.29 ℃ 100 % 1019.61 hPa
2021-10-28 09:19:06 14.34 ℃ 100 % 1019.61 hPa
2021-10-28 09:09:07 14.2 ℃ 100 % 1019.55 hPa
2021-10-28 08:59:08 13.88 ℃ 100 % 1019.53 hPa
2021-10-28 08:49:07 13.96 ℃ 100 % 1019.47 hPa
2021-10-28 08:39:06 14.35 ℃ 100 % 1019.44 hPa
2021-10-28 08:29:06 14.33 ℃ 100 % 1019.43 hPa
2021-10-28 08:19:06 14.45 ℃ 100 % 1019.4 hPa
2021-10-28 08:09:06 14.22 ℃ 100 % 1019.39 hPa
2021-10-28 07:59:07 14.3 ℃ 100 % 1019.36 hPa
2021-10-28 07:49:06 14.41 ℃ 100 % 1019.31 hPa
2021-10-28 07:39:06 14.48 ℃ 100 % 1019.34 hPa
2021-10-28 07:29:07 14.74 ℃ 100 % 1019.37 hPa
2021-10-28 07:19:07 14.73 ℃ 100 % 1019.42 hPa
2021-10-28 07:09:07 14.66 ℃ 100 % 1019.44 hPa
2021-10-28 06:59:07 14.71 ℃ 100 % 1019.42 hPa
2021-10-28 06:49:07 14.91 ℃ 100 % 1019.41 hPa
2021-10-28 06:39:07 15 ℃ 100 % 1019.37 hPa
2021-10-28 06:29:07 15.07 ℃ 100 % 1019.35 hPa
2021-10-28 06:19:07 14.99 ℃ 100 % 1019.38 hPa
2021-10-28 06:09:07 15.11 ℃ 100 % 1019.41 hPa
2021-10-28 05:59:07 15.01 ℃ 100 % 1019.43 hPa
2021-10-28 05:49:07 14.92 ℃ 100 % 1019.44 hPa
2021-10-28 05:39:07 15.2 ℃ 100 % 1019.48 hPa
2021-10-28 05:29:07 15.32 ℃ 100 % 1019.5 hPa
2021-10-28 05:19:07 15.26 ℃ 100 % 1019.55 hPa
2021-10-28 05:09:07 15.64 ℃ 100 % 1019.54 hPa
2021-10-28 04:59:07 15.51 ℃ 100 % 1019.53 hPa
2021-10-28 04:49:07 15.42 ℃ 100 % 1019.54 hPa
2021-10-28 04:39:07 15.38 ℃ 100 % 1019.54 hPa
2021-10-28 04:29:07 15.47 ℃ 100 % 1019.57 hPa
2021-10-28 04:19:07 15.4 ℃ 100 % 1019.65 hPa
2021-10-28 04:09:07 15.53 ℃ 100 % 1019.66 hPa
2021-10-28 03:59:07 15.53 ℃ 100 % 1019.7 hPa
2021-10-28 03:49:07 15.69 ℃ 100 % 1019.75 hPa
2021-10-28 03:39:07 15.9 ℃ 100 % 1019.77 hPa
2021-10-28 03:29:07 15.94 ℃ 100 % 1019.81 hPa
2021-10-28 03:19:07 16.08 ℃ 100 % 1019.86 hPa
2021-10-28 03:09:07 16.11 ℃ 100 % 1019.86 hPa
2021-10-28 02:59:07 16.24 ℃ 100 % 1019.91 hPa
2021-10-28 02:49:07 16.43 ℃ 100 % 1019.99 hPa
2021-10-28 02:39:07 16.45 ℃ 100 % 1020.06 hPa
2021-10-28 02:29:07 16.42 ℃ 100 % 1020.08 hPa
2021-10-28 02:19:07 16.2 ℃ 100 % 1020.08 hPa
2021-10-28 02:09:07 16 ℃ 100 % 1020.08 hPa
2021-10-28 01:59:07 15.79 ℃ 100 % 1020.02 hPa
2021-10-28 01:49:07 15.87 ℃ 100 % 1020.01 hPa
2021-10-28 01:39:07 15.99 ℃ 100 % 1020 hPa
2021-10-28 01:29:07 16.16 ℃ 100 % 1019.95 hPa
2021-10-28 01:19:07 16.29 ℃ 100 % 1019.95 hPa
2021-10-28 01:09:07 16.33 ℃ 100 % 1019.97 hPa
2021-10-28 00:59:07 16.65 ℃ 100 % 1019.99 hPa
2021-10-28 00:49:07 16.54 ℃ 100 % 1020 hPa
2021-10-28 00:39:07 16.35 ℃ 100 % 1020.02 hPa
2021-10-28 00:29:07 16.22 ℃ 100 % 1020.08 hPa
2021-10-28 00:19:07 16.02 ℃ 100 % 1020.11 hPa
2021-10-28 00:09:07 15.92 ℃ 100 % 1020.07 hPa
2021-10-27 23:59:07 15.94 ℃ 100 % 1020.13 hPa
2021-10-27 23:49:07 16.04 ℃ 100 % 1020.14 hPa
2021-10-27 23:39:07 15.98 ℃ 100 % 1020.18 hPa
2021-10-27 23:29:07 15.88 ℃ 100 % 1020.22 hPa
2021-10-27 23:19:07 15.98 ℃ 100 % 1020.23 hPa
2021-10-27 23:09:07 15.96 ℃ 100 % 1020.19 hPa
2021-10-27 22:59:07 15.99 ℃ 100 % 1020.15 hPa
2021-10-27 22:49:07 15.98 ℃ 100 % 1020.12 hPa
2021-10-27 22:39:07 16.17 ℃ 100 % 1020.05 hPa
2021-10-27 22:29:08 16.32 ℃ 100 % 1019.99 hPa
2021-10-27 22:19:07 16.36 ℃ 100 % 1019.97 hPa
2021-10-27 22:09:07 16.34 ℃ 100 % 1019.98 hPa
2021-10-27 21:59:07 16.34 ℃ 100 % 1020.02 hPa
2021-10-27 21:49:08 16.43 ℃ 100 % 1019.98 hPa
2021-10-27 21:39:07 16.25 ℃ 100 % 1019.97 hPa
2021-10-27 21:29:07 16.37 ℃ 100 % 1019.99 hPa
2021-10-27 21:19:08 16.22 ℃ 100 % 1020 hPa
2021-10-27 21:09:08 16.14 ℃ 100 % 1020.02 hPa
2021-10-27 20:59:07 16.15 ℃ 100 % 1020.02 hPa
2021-10-27 20:49:08 16.26 ℃ 100 % 1020.03 hPa
2021-10-27 20:39:08 16.14 ℃ 100 % 1020.03 hPa
2021-10-27 20:29:07 16.29 ℃ 100 % 1019.99 hPa
2021-10-27 20:19:08 16.44 ℃ 100 % 1019.92 hPa
2021-10-27 20:09:08 16.72 ℃ 100 % 1019.88 hPa
2021-10-27 19:59:08 16.95 ℃ 100 % 1019.82 hPa
2021-10-27 19:49:08 16.82 ℃ 100 % 1019.78 hPa
2021-10-27 19:39:08 16.79 ℃ 100 % 1019.72 hPa
2021-10-27 19:29:08 16.54 ℃ 100 % 1019.63 hPa
2021-10-27 19:19:08 16.3 ℃ 100 % 1019.54 hPa
2021-10-27 19:09:08 16.04 ℃ 100 % 1019.41 hPa
2021-10-27 18:59:08 16.1 ℃ 100 % 1019.38 hPa
2021-10-27 18:49:08 16.21 ℃ 100 % 1019.35 hPa
2021-10-27 18:39:08 16.23 ℃ 100 % 1019.31 hPa
2021-10-27 18:29:08 16.3 ℃ 100 % 1019.29 hPa
2021-10-27 18:19:08 16.27 ℃ 100 % 1019.22 hPa
2021-10-27 18:09:08 16.2 ℃ 100 % 1019.22 hPa
2021-10-27 17:59:08 16.13 ℃ 100 % 1019.16 hPa
2021-10-27 17:49:08 16.15 ℃ 100 % 1019.06 hPa
2021-10-27 17:39:08 16.14 ℃ 100 % 1018.98 hPa
2021-10-27 17:29:08 16.2 ℃ 100 % 1018.97 hPa
2021-10-27 17:19:08 16.42 ℃ 100 % 1018.95 hPa
2021-10-27 17:09:08 16.51 ℃ 100 % 1018.93 hPa
2021-10-27 16:59:08 16.45 ℃ 100 % 1018.88 hPa
2021-10-27 16:49:08 16.59 ℃ 100 % 1018.87 hPa
2021-10-27 16:39:08 16.61 ℃ 100 % 1018.85 hPa
2021-10-27 16:29:08 16.72 ℃ 100 % 1018.83 hPa
2021-10-27 16:19:08 16.75 ℃ 100 % 1018.84 hPa
2021-10-27 16:09:08 16.72 ℃ 100 % 1018.82 hPa
2021-10-27 15:59:08 16.7 ℃ 100 % 1018.85 hPa
2021-10-27 15:49:08 16.51 ℃ 100 % 1018.85 hPa
2021-10-27 15:39:08 16.57 ℃ 100 % 1018.86 hPa
2021-10-27 15:29:08 16.63 ℃ 100 % 1018.85 hPa
2021-10-27 15:19:08 16.79 ℃ 100 % 1018.83 hPa
2021-10-27 15:09:08 16.69 ℃ 100 % 1018.87 hPa
2021-10-27 14:59:08 16.84 ℃ 100 % 1018.92 hPa
2021-10-27 14:49:08 16.9 ℃ 100 % 1018.97 hPa
2021-10-27 14:39:08 16.77 ℃ 100 % 1019.04 hPa
2021-10-27 14:29:08 16.69 ℃ 100 % 1019.08 hPa
2021-10-27 14:19:08 16.75 ℃ 100 % 1019.12 hPa
2021-10-27 14:09:08 16.68 ℃ 100 % 1019.13 hPa
2021-10-27 13:59:08 16.68 ℃ 100 % 1019.19 hPa
2021-10-27 13:49:08 16.64 ℃ 100 % 1019.22 hPa
2021-10-27 13:39:08 16.55 ℃ 100 % 1019.19 hPa
2021-10-27 13:29:08 16.58 ℃ 100 % 1019.22 hPa
2021-10-27 13:19:08 16.32 ℃ 100 % 1019.23 hPa
2021-10-27 13:09:08 16.34 ℃ 100 % 1019.2 hPa
2021-10-27 12:59:08 16.39 ℃ 100 % 1019.15 hPa
2021-10-27 12:49:08 16.3 ℃ 100 % 1019.08 hPa
2021-10-27 12:39:08 16.28 ℃ 100 % 1019.04 hPa
2021-10-27 12:29:08 16.24 ℃ 100 % 1019.01 hPa
2021-10-27 12:19:08 16.13 ℃ 100 % 1018.9 hPa
2021-10-27 12:09:08 16.04 ℃ 100 % 1018.82 hPa
2021-10-27 11:59:08 16.06 ℃ 100 % 1018.79 hPa
2021-10-27 11:49:08 16.17 ℃ 100 % 1018.69 hPa
2021-10-27 11:39:08 16.14 ℃ 100 % 1018.6 hPa
2021-10-27 11:29:08 16.06 ℃ 100 % 1018.58 hPa
2021-10-27 11:19:08 16.05 ℃ 100 % 1018.54 hPa
2021-10-27 11:09:08 15.85 ℃ 100 % 1018.53 hPa
2021-10-27 10:59:08 15.82 ℃ 100 % 1018.54 hPa
2021-10-27 10:49:08 15.71 ℃ 100 % 1018.54 hPa
2021-10-27 10:39:08 15.76 ℃ 100 % 1018.58 hPa
2021-10-27 10:29:08 16.01 ℃ 100 % 1018.56 hPa
2021-10-27 10:19:08 15.9 ℃ 100 % 1018.48 hPa
2021-10-27 10:09:08 15.63 ℃ 100 % 1018.36 hPa
2021-10-27 09:59:08 15.71 ℃ 100 % 1018.3 hPa
2021-10-27 09:49:08 15.72 ℃ 100 % 1018.16 hPa
2021-10-27 09:39:08 15.64 ℃ 100 % 1018.05 hPa
2021-10-27 09:29:09 15.64 ℃ 100 % 1017.94 hPa
2021-10-27 09:19:09 15.67 ℃ 100 % 1017.84 hPa
2021-10-27 09:09:09 15.42 ℃ 100 % 1017.75 hPa
2021-10-27 08:59:09 15.32 ℃ 100 % 1017.64 hPa
2021-10-27 08:49:09 15.47 ℃ 100 % 1017.62 hPa
2021-10-27 08:39:09 15.41 ℃ 100 % 1017.52 hPa
2021-10-27 08:29:09 15.36 ℃ 100 % 1017.51 hPa
2021-10-27 08:19:09 15.58 ℃ 100 % 1017.5 hPa
2021-10-27 08:09:09 15.44 ℃ 100 % 1017.47 hPa
2021-10-27 07:59:09 15.37 ℃ 100 % 1017.45 hPa
2021-10-27 07:49:09 15.35 ℃ 100 % 1017.49 hPa
2021-10-27 07:39:09 15.38 ℃ 100 % 1017.49 hPa
2021-10-27 07:29:09 15.44 ℃ 100 % 1017.45 hPa
2021-10-27 07:19:09 15.26 ℃ 100 % 1017.44 hPa
2021-10-27 07:09:09 15.15 ℃ 100 % 1017.45 hPa
2021-10-27 06:59:09 15.19 ℃ 100 % 1017.4 hPa
2021-10-27 06:49:09 15.1 ℃ 100 % 1017.39 hPa
2021-10-27 06:39:09 15.18 ℃ 100 % 1017.41 hPa
2021-10-27 06:29:09 15.27 ℃ 100 % 1017.35 hPa
2021-10-27 06:19:09 15.1 ℃ 100 % 1017.32 hPa
2021-10-27 06:09:09 15.04 ℃ 100 % 1017.3 hPa
2021-10-27 05:59:09 15.26 ℃ 100 % 1017.3 hPa
2021-10-27 05:49:09 15.19 ℃ 100 % 1017.28 hPa
2021-10-27 05:39:09 15.38 ℃ 100 % 1017.24 hPa
2021-10-27 05:29:09 15.32 ℃ 100 % 1017.19 hPa
2021-10-27 05:19:09 15.21 ℃ 100 % 1017.12 hPa
2021-10-27 05:09:09 15.01 ℃ 100 % 1017.14 hPa
2021-10-27 04:59:09 14.96 ℃ 100 % 1017.21 hPa
2021-10-27 04:49:09 14.86 ℃ 100 % 1017.28 hPa
2021-10-27 04:39:09 14.9 ℃ 100 % 1017.36 hPa
2021-10-27 04:29:09 14.74 ℃ 100 % 1017.4 hPa
2021-10-27 04:19:09 14.64 ℃ 100 % 1017.43 hPa
2021-10-27 04:09:09 14.63 ℃ 100 % 1017.45 hPa
2021-10-27 03:59:09 14.41 ℃ 100 % 1017.43 hPa
2021-10-27 03:49:09 14.33 ℃ 100 % 1017.47 hPa
2021-10-27 03:39:09 14.34 ℃ 100 % 1017.42 hPa
2021-10-27 03:29:09 14.36 ℃ 100 % 1017.45 hPa
2021-10-27 03:19:09 14.39 ℃ 100 % 1017.48 hPa
2021-10-27 03:09:09 14.37 ℃ 100 % 1017.44 hPa
2021-10-27 02:59:09 14.35 ℃ 100 % 1017.39 hPa
2021-10-27 02:49:09 14.5 ℃ 100 % 1017.35 hPa
2021-10-27 02:39:09 14.4 ℃ 100 % 1017.33 hPa
2021-10-27 02:29:09 14.21 ℃ 100 % 1017.39 hPa
2021-10-27 02:19:09 14.11 ℃ 100 % 1017.42 hPa
2021-10-27 02:09:10 14.26 ℃ 100 % 1017.45 hPa
2021-10-27 01:59:09 14.27 ℃ 100 % 1017.46 hPa
2021-10-27 01:49:09 14.21 ℃ 100 % 1017.47 hPa
2021-10-27 01:39:09 14.24 ℃ 100 % 1017.49 hPa
2021-10-27 01:29:09 13.94 ℃ 100 % 1017.52 hPa
2021-10-27 01:19:09 13.99 ℃ 100 % 1017.52 hPa
2021-10-27 01:09:09 14.02 ℃ 100 % 1017.51 hPa
2021-10-27 00:59:09 13.78 ℃ 100 % 1017.53 hPa
2021-10-27 00:49:09 13.5 ℃ 100 % 1017.56 hPa
2021-10-27 00:39:09 13.62 ℃ 100 % 1017.59 hPa
2021-10-27 00:29:09 13.72 ℃ 100 % 1017.67 hPa
2021-10-27 00:19:09 13.85 ℃ 100 % 1017.72 hPa
2021-10-27 00:09:09 13.79 ℃ 100 % 1017.78 hPa
2021-10-26 23:59:09 13.95 ℃ 100 % 1017.84 hPa
2021-10-26 23:49:09 14.09 ℃ 100 % 1017.88 hPa
2021-10-26 23:39:09 14.13 ℃ 100 % 1017.91 hPa
2021-10-26 23:29:09 14.32 ℃ 100 % 1017.94 hPa
2021-10-26 23:19:09 14.11 ℃ 100 % 1018.01 hPa
2021-10-26 23:09:10 13.94 ℃ 100 % 1018.01 hPa
2021-10-26 22:59:09 13.87 ℃ 100 % 1017.96 hPa
2021-10-26 22:49:09 13.8 ℃ 100 % 1017.89 hPa
2021-10-26 22:39:10 13.87 ℃ 100 % 1017.85 hPa
2021-10-26 22:29:09 13.85 ℃ 100 % 1017.79 hPa
2021-10-26 22:19:10 13.96 ℃ 100 % 1017.75 hPa
2021-10-26 22:09:10 13.87 ℃ 100 % 1017.72 hPa
2021-10-26 21:59:10 13.72 ℃ 100 % 1017.65 hPa
2021-10-26 21:49:10 13.76 ℃ 100 % 1017.72 hPa
2021-10-26 21:39:10 13.87 ℃ 100 % 1017.86 hPa
2021-10-26 21:29:10 13.99 ℃ 100 % 1018.01 hPa
2021-10-26 21:19:10 14.14 ℃ 100 % 1018.04 hPa
2021-10-26 21:09:10 14.14 ℃ 100 % 1018.09 hPa
2021-10-26 20:59:10 14.28 ℃ 100 % 1018.1 hPa
2021-10-26 20:39:10 14.26 ℃ 100 % 1018.07 hPa
2021-10-26 20:19:10 14.33 ℃ 100 % 1018.03 hPa
2021-10-26 19:10:30 14.95 ℃ 100 % 1018.13 hPa
2021-10-26 19:00:30 14.94 ℃ 100 % 1018.08 hPa
2021-10-26 18:50:30 15.03 ℃ 100 % 1018.06 hPa
2021-10-26 18:40:30 15.2 ℃ 100 % 1018.03 hPa
2021-10-26 18:30:30 15.13 ℃ 100 % 1018.01 hPa
2021-10-26 18:20:30 15.17 ℃ 100 % 1017.99 hPa
2021-10-26 18:10:30 15.28 ℃ 100 % 1017.93 hPa
2021-10-26 18:00:30 15.18 ℃ 100 % 1017.89 hPa
2021-10-26 17:50:30 15.07 ℃ 100 % 1017.84 hPa
2021-10-26 17:40:30 14.93 ℃ 100 % 1017.8 hPa
2021-10-26 17:30:30 14.97 ℃ 100 % 1017.75 hPa
2021-10-26 17:20:30 15.06 ℃ 100 % 1017.71 hPa
2021-10-26 17:10:30 15.08 ℃ 100 % 1017.61 hPa
2021-10-26 17:00:30 15.07 ℃ 100 % 1017.62 hPa
2021-10-26 16:50:30 15.02 ℃ 100 % 1017.55 hPa
2021-10-26 16:40:30 15.02 ℃ 100 % 1017.48 hPa
2021-10-26 16:30:30 14.93 ℃ 100 % 1017.44 hPa
2021-10-26 16:20:30 15.01 ℃ 100 % 1017.4 hPa
2021-10-26 16:10:30 15.18 ℃ 100 % 1017.36 hPa
2021-10-26 16:00:30 15.21 ℃ 100 % 1017.3 hPa
2021-10-26 15:50:30 15.3 ℃ 100 % 1017.28 hPa
2021-10-26 15:40:30 15.39 ℃ 100 % 1017.25 hPa
2021-10-26 15:30:30 15.36 ℃ 100 % 1017.29 hPa
2021-10-26 15:20:30 15.38 ℃ 100 % 1017.39 hPa
2021-10-26 15:10:30 15.43 ℃ 100 % 1017.44 hPa
2021-10-26 15:00:30 15.6 ℃ 100 % 1017.4 hPa
2021-10-26 14:50:30 15.69 ℃ 100 % 1017.39 hPa
2021-10-26 14:40:30 15.82 ℃ 100 % 1017.37 hPa
2021-10-26 14:30:30 15.56 ℃ 100 % 1017.38 hPa
2021-10-26 14:20:30 15.8 ℃ 100 % 1017.4 hPa
2021-10-26 14:10:30 15.86 ℃ 100 % 1017.37 hPa
2021-10-26 14:00:30 16 ℃ 100 % 1017.38 hPa
2021-10-26 13:50:30 15.53 ℃ 100 % 1017.47 hPa
2021-10-26 13:40:30 15.47 ℃ 100 % 1017.54 hPa
2021-10-26 13:30:30 15.78 ℃ 100 % 1017.6 hPa
2021-10-26 13:20:30 15.55 ℃ 100 % 1017.63 hPa
2021-10-26 13:10:30 15.48 ℃ 100 % 1017.68 hPa
2021-10-26 13:00:30 15.08 ℃ 100 % 1017.74 hPa
2021-10-26 12:50:30 15.05 ℃ 100 % 1017.74 hPa
2021-10-26 12:40:30 15.04 ℃ 100 % 1017.73 hPa
2021-10-26 12:30:30 15.17 ℃ 100 % 1017.7 hPa
2021-10-26 12:20:30 15.21 ℃ 100 % 1017.74 hPa
2021-10-26 12:10:30 15.15 ℃ 100 % 1017.69 hPa
2021-10-26 12:00:31 15.02 ℃ 100 % 1017.68 hPa
2021-10-26 11:50:31 14.82 ℃ 100 % 1017.66 hPa
2021-10-26 11:40:31 14.93 ℃ 100 % 1017.6 hPa
2021-10-26 11:30:31 14.88 ℃ 100 % 1017.53 hPa
2021-10-26 11:20:31 14.59 ℃ 100 % 1017.49 hPa
2021-10-26 11:10:31 14.54 ℃ 100 % 1017.49 hPa
2021-10-26 11:00:31 14.28 ℃ 100 % 1017.47 hPa
2021-10-26 10:50:31 14.05 ℃ 100 % 1017.5 hPa
2021-10-26 10:40:31 14.25 ℃ 100 % 1017.44 hPa
2021-10-26 10:30:31 14.13 ℃ 100 % 1017.36 hPa
2021-10-26 10:20:31 14 ℃ 100 % 1017.31 hPa
2021-10-26 10:10:31 13.83 ℃ 100 % 1017.28 hPa
2021-10-26 10:00:31 13.63 ℃ 100 % 1017.21 hPa
2021-10-26 09:50:31 13.42 ℃ 100 % 1017.12 hPa
2021-10-26 09:40:31 13.36 ℃ 100 % 1017.08 hPa
2021-10-26 09:30:31 13.4 ℃ 100 % 1017.03 hPa
2021-10-26 09:20:31 13.6 ℃ 100 % 1016.97 hPa
2021-10-26 09:10:31 13.69 ℃ 100 % 1016.85 hPa
2021-10-26 09:00:31 13.73 ℃ 100 % 1016.7 hPa
2021-10-26 08:50:31 13.53 ℃ 100 % 1016.58 hPa
2021-10-26 08:40:31 13.65 ℃ 100 % 1016.48 hPa
2021-10-26 08:30:31 13.53 ℃ 100 % 1016.34 hPa
2021-10-26 08:20:31 13.43 ℃ 100 % 1016.22 hPa
2021-10-26 08:10:31 13.55 ℃ 100 % 1016.19 hPa
2021-10-26 08:00:31 13.65 ℃ 100 % 1016.11 hPa
2021-10-26 07:50:31 13.68 ℃ 100 % 1016.07 hPa
2021-10-26 07:40:31 13.58 ℃ 100 % 1016.08 hPa
2021-10-26 07:30:31 13.41 ℃ 100 % 1016.04 hPa
2021-10-26 07:20:31 13.58 ℃ 100 % 1016.01 hPa
2021-10-26 07:10:31 13.61 ℃ 100 % 1016 hPa
2021-10-26 07:00:31 13.76 ℃ 100 % 1015.98 hPa
2021-10-26 06:50:31 13.83 ℃ 100 % 1015.92 hPa
2021-10-26 06:40:31 13.74 ℃ 100 % 1015.87 hPa
2021-10-26 06:30:31 14.02 ℃ 100 % 1015.74 hPa
2021-10-26 06:20:31 14.04 ℃ 100 % 1015.69 hPa
2021-10-26 06:10:31 13.82 ℃ 100 % 1015.69 hPa
2021-10-26 06:00:31 13.91 ℃ 100 % 1015.65 hPa
2021-10-26 05:50:31 14.09 ℃ 100 % 1015.65 hPa
2021-10-26 05:40:31 13.96 ℃ 100 % 1015.59 hPa
2021-10-26 05:30:31 13.76 ℃ 100 % 1015.55 hPa
2021-10-26 05:20:31 13.51 ℃ 100 % 1015.58 hPa
2021-10-26 05:10:31 13.34 ℃ 100 % 1015.57 hPa
2021-10-26 05:00:31 13.32 ℃ 100 % 1015.58 hPa
2021-10-26 04:50:31 13.65 ℃ 100 % 1015.6 hPa
2021-10-26 04:40:31 13.43 ℃ 100 % 1015.65 hPa
2021-10-26 04:30:31 13.57 ℃ 100 % 1015.68 hPa
2021-10-26 04:20:31 13.71 ℃ 100 % 1015.7 hPa
2021-10-26 04:10:31 13.73 ℃ 100 % 1015.74 hPa
2021-10-26 04:00:31 13.39 ℃ 100 % 1015.71 hPa
2021-10-26 03:50:31 13.51 ℃ 100 % 1015.7 hPa
2021-10-26 03:40:31 13.85 ℃ 100 % 1015.78 hPa
2021-10-26 03:30:31 13.68 ℃ 100 % 1015.86 hPa
2021-10-26 03:20:31 13.69 ℃ 100 % 1015.83 hPa
2021-10-26 03:10:31 13.77 ℃ 100 % 1015.84 hPa
2021-10-26 03:00:31 13.8 ℃ 100 % 1015.88 hPa
2021-10-26 02:50:31 13.73 ℃ 100 % 1015.91 hPa
2021-10-26 02:40:31 13.96 ℃ 100 % 1015.97 hPa
2021-10-26 02:30:31 13.93 ℃ 100 % 1016 hPa
2021-10-26 02:20:31 13.9 ℃ 100 % 1016.04 hPa
2021-10-26 02:10:31 13.57 ℃ 100 % 1016.08 hPa
2021-10-26 02:00:31 13.78 ℃ 100 % 1016.09 hPa
2021-10-26 01:50:31 13.64 ℃ 100 % 1016.1 hPa
2021-10-26 01:40:31 13.56 ℃ 100 % 1016.09 hPa
2021-10-26 01:30:31 13.8 ℃ 100 % 1016.1 hPa
2021-10-26 01:20:31 13.81 ℃ 100 % 1016.14 hPa
2021-10-26 01:10:32 13.88 ℃ 100 % 1016.18 hPa
2021-10-26 01:00:32 13.66 ℃ 100 % 1016.26 hPa
2021-10-26 00:50:32 13.51 ℃ 100 % 1016.25 hPa
2021-10-26 00:40:32 13.57 ℃ 100 % 1016.27 hPa
2021-10-26 00:30:32 13.37 ℃ 100 % 1016.31 hPa
2021-10-26 00:20:32 13.17 ℃ 100 % 1016.37 hPa
2021-10-26 00:10:32 13.5 ℃ 100 % 1016.4 hPa
2021-10-26 00:00:32 13.63 ℃ 100 % 1016.44 hPa
2021-10-25 23:50:32 13.85 ℃ 100 % 1016.47 hPa
2021-10-25 23:40:32 13.89 ℃ 100 % 1016.47 hPa
2021-10-25 23:30:32 13.7 ℃ 100 % 1016.53 hPa
2021-10-25 23:20:32 13.68 ℃ 100 % 1016.58 hPa
2021-10-25 23:10:32 13.56 ℃ 100 % 1016.56 hPa
2021-10-25 23:00:32 13.44 ℃ 100 % 1016.59 hPa
2021-10-25 22:50:32 13.27 ℃ 100 % 1016.58 hPa
2021-10-25 22:40:32 13.49 ℃ 100 % 1016.57 hPa
2021-10-25 22:30:32 13.55 ℃ 100 % 1016.49 hPa
2021-10-25 22:20:32 13.44 ℃ 100 % 1016.44 hPa
2021-10-25 22:10:32 13.63 ℃ 100 % 1016.42 hPa
2021-10-25 22:00:32 13.97 ℃ 100 % 1016.44 hPa
2021-10-25 21:50:32 13.84 ℃ 100 % 1016.47 hPa
2021-10-25 21:40:32 13.68 ℃ 100 % 1016.49 hPa
2021-10-25 21:30:32 13.5 ℃ 100 % 1016.49 hPa
2021-10-25 21:20:32 13.42 ℃ 100 % 1016.51 hPa
2021-10-25 21:10:32 13.27 ℃ 100 % 1016.53 hPa
2021-10-25 21:00:32 13.46 ℃ 100 % 1016.59 hPa
2021-10-25 20:50:32 13.46 ℃ 100 % 1016.65 hPa
2021-10-25 20:40:32 13.25 ℃ 100 % 1016.71 hPa
2021-10-25 20:30:32 13.23 ℃ 100 % 1016.74 hPa
2021-10-25 20:20:32 13.27 ℃ 100 % 1016.73 hPa
2021-10-25 20:10:32 13.04 ℃ 100 % 1016.79 hPa
2021-10-25 20:00:32 12.63 ℃ 100 % 1016.87 hPa
2021-10-25 19:50:32 12.39 ℃ 100 % 1016.85 hPa
2021-10-25 19:40:32 12.39 ℃ 100 % 1016.78 hPa
2021-10-25 19:30:32 12.3 ℃ 100 % 1016.74 hPa
2021-10-25 19:20:32 12.37 ℃ 100 % 1016.75 hPa
2021-10-25 19:10:32 12.43 ℃ 100 % 1016.74 hPa
2021-10-25 19:00:32 12.29 ℃ 100 % 1016.7 hPa
2021-10-25 18:50:32 12.39 ℃ 100 % 1016.65 hPa
2021-10-25 18:40:32 12.39 ℃ 100 % 1016.66 hPa
2021-10-25 18:30:32 12.48 ℃ 100 % 1016.65 hPa
2021-10-25 18:20:32 12.6 ℃ 100 % 1016.68 hPa
2021-10-25 18:10:32 12.76 ℃ 100 % 1016.68 hPa
2021-10-25 18:00:32 12.83 ℃ 100 % 1016.7 hPa
2021-10-25 17:50:32 13.03 ℃ 100 % 1016.72 hPa
2021-10-25 17:40:32 13.21 ℃ 100 % 1016.73 hPa
2021-10-25 17:30:32 13.16 ℃ 100 % 1016.71 hPa
2021-10-25 17:20:32 13.35 ℃ 100 % 1016.71 hPa
2021-10-25 17:10:32 13.46 ℃ 100 % 1016.77 hPa
2021-10-25 17:00:32 13.56 ℃ 100 % 1016.83 hPa
2021-10-25 16:50:32 13.76 ℃ 100 % 1016.85 hPa
2021-10-25 16:40:32 13.67 ℃ 100 % 1016.87 hPa
2021-10-25 16:30:32 13.62 ℃ 100 % 1016.89 hPa
2021-10-25 16:20:32 13.43 ℃ 100 % 1016.93 hPa
2021-10-25 16:10:32 13.56 ℃ 100 % 1016.95 hPa
2021-10-25 16:00:32 13.73 ℃ 100 % 1016.95 hPa
2021-10-25 15:50:32 13.61 ℃ 100 % 1016.97 hPa
2021-10-25 15:40:32 13.69 ℃ 100 % 1017 hPa
2021-10-25 15:30:32 13.85 ℃ 100 % 1017.01 hPa
2021-10-25 15:20:32 13.65 ℃ 100 % 1017.06 hPa
2021-10-25 15:10:32 13.26 ℃ 100 % 1017.17 hPa
2021-10-25 15:00:32 13.28 ℃ 100 % 1017.24 hPa
2021-10-25 14:50:33 13.32 ℃ 100 % 1017.35 hPa
2021-10-25 14:40:32 13.54 ℃ 100 % 1017.43 hPa
2021-10-25 14:30:33 13.49 ℃ 100 % 1017.45 hPa
2021-10-25 14:20:32 13.23 ℃ 100 % 1017.52 hPa
2021-10-25 14:10:32 13.25 ℃ 100 % 1017.64 hPa
2021-10-25 14:00:32 13.14 ℃ 100 % 1017.71 hPa
2021-10-25 13:50:33 12.84 ℃ 100 % 1017.78 hPa
2021-10-25 13:40:33 12.33 ℃ 100 % 1017.79 hPa
2021-10-25 13:30:33 12.1 ℃ 100 % 1017.86 hPa
2021-10-25 13:20:33 12.03 ℃ 100 % 1017.93 hPa
2021-10-25 13:10:33 11.97 ℃ 100 % 1017.9 hPa
2021-10-25 13:00:33 11.69 ℃ 100 % 1017.94 hPa
2021-10-25 12:50:33 11.5 ℃ 100 % 1017.86 hPa
2021-10-25 12:40:33 11.58 ℃ 100 % 1017.82 hPa
2021-10-25 12:30:33 11.58 ℃ 100 % 1017.92 hPa
2021-10-25 12:20:33 11.58 ℃ 100 % 1018.04 hPa
2021-10-25 12:10:33 11.08 ℃ 100 % 1018.14 hPa
2021-10-25 12:00:33 10.94 ℃ 100 % 1018.18 hPa
2021-10-25 11:50:33 10.82 ℃ 100 % 1018.11 hPa
2021-10-25 11:40:33 10.72 ℃ 100 % 1018.21 hPa
2021-10-25 11:30:33 10.53 ℃ 100 % 1018.24 hPa
2021-10-25 11:20:33 10 ℃ 100 % 1018.29 hPa
2021-10-25 11:10:33 9.63 ℃ 100 % 1018.4 hPa
2021-10-25 11:00:33 9.6 ℃ 100 % 1018.39 hPa
2021-10-25 10:50:33 9.27 ℃ 100 % 1018.43 hPa
2021-10-25 10:40:33 9.22 ℃ 100 % 1018.44 hPa
2021-10-25 10:30:33 9.08 ℃ 100 % 1018.5 hPa
2021-10-25 10:20:33 9.25 ℃ 100 % 1018.52 hPa
2021-10-25 10:10:33 8.78 ℃ 100 % 1018.55 hPa
2021-10-25 10:00:34 8.33 ℃ 100 % 1018.58 hPa
2021-10-25 09:50:33 8.18 ℃ 100 % 1018.55 hPa
2021-10-25 09:40:33 8.21 ℃ 100 % 1018.53 hPa
2021-10-25 09:30:33 8.34 ℃ 100 % 1018.5 hPa
2021-10-25 09:20:33 8.3 ℃ 100 % 1018.51 hPa
2021-10-25 09:10:33 8.39 ℃ 100 % 1018.5 hPa
2021-10-25 09:00:33 8.06 ℃ 100 % 1018.49 hPa
2021-10-25 08:50:33 7.84 ℃ 100 % 1018.48 hPa
2021-10-25 08:40:33 7.72 ℃ 100 % 1018.43 hPa
2021-10-25 08:30:33 7.89 ℃ 100 % 1018.37 hPa
2021-10-25 08:20:33 7.77 ℃ 100 % 1018.32 hPa
2021-10-25 08:10:33 7.63 ℃ 100 % 1018.26 hPa
2021-10-25 08:00:33 7.63 ℃ 100 % 1018.27 hPa
2021-10-25 07:50:33 7.69 ℃ 100 % 1018.31 hPa
2021-10-25 07:40:33 7.75 ℃ 100 % 1018.38 hPa
2021-10-25 07:30:33 7.79 ℃ 100 % 1018.47 hPa
2021-10-25 07:20:33 7.8 ℃ 100 % 1018.55 hPa
2021-10-25 07:10:33 7.81 ℃ 100 % 1018.61 hPa
2021-10-25 07:00:33 7.88 ℃ 100 % 1018.64 hPa
2021-10-25 06:50:33 8.04 ℃ 100 % 1018.68 hPa
2021-10-25 06:40:33 8.19 ℃ 100 % 1018.67 hPa
2021-10-25 06:30:33 8.07 ℃ 100 % 1018.67 hPa
2021-10-25 06:20:33 7.76 ℃ 100 % 1018.73 hPa
2021-10-25 06:10:33 7.86 ℃ 100 % 1018.8 hPa
2021-10-25 06:00:33 7.92 ℃ 100 % 1018.85 hPa
2021-10-25 05:50:33 7.79 ℃ 100 % 1018.88 hPa
2021-10-25 05:40:33 7.81 ℃ 100 % 1018.91 hPa
2021-10-25 05:30:33 7.85 ℃ 100 % 1018.93 hPa
2021-10-25 05:20:33 8.02 ℃ 100 % 1019.02 hPa
2021-10-25 05:10:33 7.97 ℃ 100 % 1019.07 hPa
2021-10-25 05:00:33 8.07 ℃ 100 % 1019.11 hPa
2021-10-25 04:50:33 8.22 ℃ 100 % 1019.15 hPa
2021-10-25 04:40:33 8.08 ℃ 100 % 1019.19 hPa
2021-10-25 04:30:33 8.02 ℃ 100 % 1019.26 hPa
2021-10-25 04:20:34 8.04 ℃ 100 % 1019.39 hPa
2021-10-25 04:10:33 8.13 ℃ 100 % 1019.51 hPa
2021-10-25 04:00:33 8.17 ℃ 100 % 1019.59 hPa
2021-10-25 03:50:33 8.22 ℃ 100 % 1019.64 hPa
2021-10-25 03:40:33 8.51 ℃ 100 % 1019.71 hPa
2021-10-25 03:30:33 8.53 ℃ 100 % 1019.8 hPa
2021-10-25 03:20:33 8.55 ℃ 100 % 1019.91 hPa
2021-10-25 03:10:34 8.75 ℃ 100 % 1019.98 hPa
2021-10-25 03:00:34 8.7 ℃ 100 % 1020.08 hPa
2021-10-25 02:50:34 8.75 ℃ 100 % 1020.11 hPa
2021-10-25 02:40:34 8.71 ℃ 100 % 1020.15 hPa
2021-10-25 02:30:34 8.61 ℃ 100 % 1020.15 hPa
2021-10-25 02:20:34 8.84 ℃ 100 % 1020.21 hPa
2021-10-25 02:10:34 8.9 ℃ 100 % 1020.25 hPa
2021-10-25 02:00:34 8.73 ℃ 100 % 1020.31 hPa
2021-10-25 01:50:35 8.92 ℃ 100 % 1020.3 hPa
2021-10-25 01:40:34 8.73 ℃ 100 % 1020.31 hPa
2021-10-25 01:30:34 8.71 ℃ 100 % 1020.35 hPa
2021-10-25 01:20:34 8.57 ℃ 100 % 1020.43 hPa
2021-10-25 01:10:34 8.54 ℃ 100 % 1020.46 hPa
2021-10-25 01:00:34 8.7 ℃ 100 % 1020.49 hPa
2021-10-25 00:50:34 8.8 ℃ 100 % 1020.52 hPa
2021-10-25 00:40:34 8.73 ℃ 100 % 1020.55 hPa
2021-10-25 00:30:34 8.63 ℃ 100 % 1020.58 hPa
2021-10-25 00:20:34 8.49 ℃ 100 % 1020.62 hPa
2021-10-25 00:10:34 8.58 ℃ 100 % 1020.65 hPa
2021-10-25 00:00:34 8.74 ℃ 100 % 1020.72 hPa
2021-10-24 23:50:34 8.74 ℃ 100 % 1020.74 hPa
2021-10-24 23:40:34 8.76 ℃ 100 % 1020.8 hPa
2021-10-24 23:30:34 8.85 ℃ 100 % 1020.9 hPa
2021-10-24 23:20:34 8.94 ℃ 100 % 1020.96 hPa
2021-10-24 23:10:34 9.03 ℃ 100 % 1021.06 hPa
2021-10-24 23:00:34 9.31 ℃ 100 % 1021.15 hPa
2021-10-24 22:50:34 9.52 ℃ 100 % 1021.24 hPa
2021-10-24 22:40:34 9.83 ℃ 100 % 1021.3 hPa
2021-10-24 22:30:34 10 ℃ 100 % 1021.36 hPa
2021-10-24 22:20:34 9.98 ℃ 100 % 1021.4 hPa
2021-10-24 22:10:34 10.09 ℃ 100 % 1021.45 hPa
2021-10-24 22:00:34 10.14 ℃ 100 % 1021.47 hPa
2021-10-24 21:50:34 10.08 ℃ 100 % 1021.54 hPa
2021-10-24 21:40:34 10.19 ℃ 100 % 1021.61 hPa
2021-10-24 21:30:34 10.41 ℃ 100 % 1021.73 hPa
2021-10-24 21:20:34 10.42 ℃ 100 % 1021.89 hPa
2021-10-24 21:10:34 10.47 ℃ 100 % 1022.06 hPa
2021-10-24 21:00:34 10.57 ℃ 100 % 1022.21 hPa
2021-10-24 20:50:34 10.59 ℃ 100 % 1022.37 hPa
2021-10-24 20:40:34 10.8 ℃ 100 % 1022.48 hPa
2021-10-24 20:30:34 10.96 ℃ 100 % 1022.57 hPa
2021-10-24 20:20:34 11.01 ℃ 100 % 1022.64 hPa
2021-10-24 20:10:34 10.98 ℃ 100 % 1022.77 hPa
2021-10-24 20:00:34 10.93 ℃ 100 % 1022.88 hPa
2021-10-24 19:50:34 11.08 ℃ 100 % 1023 hPa
2021-10-24 19:40:34 11.22 ℃ 100 % 1023.08 hPa
2021-10-24 19:30:34 11.45 ℃